[[{"header":{"parameterUnit":"m.s-1","parameterCategory":1,"la1":31.0,"la2":29.5877,"lo1":-88.7671,"lo2":-86.6584,"dy":0.0162,"dx":0.0185,"nx":115,"ny":88,"refTime":"2023-08-15T06:00:00:Z","depth":0,"parameterNumber":2,"parameterNumberName":"U-component_of_WINDS"},"data":[0.0,0.0,0.0,0.0,0.0,0.0,0.0,0.0,0.0,0.0,0.0,0.0,0.0,0.0,0.0,0.0,0.0,0.0,0.0,0.0,0.0,0.0,0.0,0.0,0.0,0.0,0.0,0.0,0.0,0.0,0.0,0.0,0.0,0.0,0.0,0.0,0.0,0.0,0.0,0.0,0.0,0.0,0.0,0.0,0.0,0.0,0.0,0.0,0.0,0.0,0.0,0.0,0.0,0.0,0.0,0.0,0.0,0.0,0.0,0.0,0.0,0.0,0.0,0.0,0.0,0.0,0.0,0.0,0.0,0.0,0.0,0.0,0.0,0.0,0.0,0.0,0.0,0.0,0.0,0.0,0.0,0.0,0.0,0.0,0.0,0.0,0.0,0.0,0.0,0.0,0.0,0.0,0.0,0.0,0.0,0.0,0.0,0.0,0.0,0.0,0.0,0.0,0.0,0.0,0.0,0.0,0.0,0.0,0.0,0.0,0.0,0.0,0.0,0.0,0.0,0.0,0.0,0.0,0.0,0.0,0.0,0.0,0.0,0.0,0.0,0.0,0.0,0.0,0.0,0.0,0.0,0.0,0.0,0.0,0.0,0.0,0.0,0.0,0.0,0.0,0.0,0.0,0.0,0.0,0.0,0.0,0.0,0.0,0.0,0.0,0.0,0.0,0.0,0.0,0.0,0.0,0.0,0.0,0.0,0.0,0.0,0.0,0.0,0.0,0.0,0.0,0.0,0.0,0.0,0.0,0.0,0.0,0.0,0.0,0.0,0.0,0.0,0.0,0.0,0.0,0.0,0.0,0.0,0.0,0.0,0.0,0.0,0.0,0.0,0.0,0.0,0.0,0.0,0.0,0.0,0.0,0.0,0.0,0.0,0.0,0.0,0.0,0.0,0.0,0.0,0.0,0.0,0.0,0.0,0.0,0.0,0.0,0.0,0.0,0.0,0.0,0.0,0.0,0.0,0.0,0.0,0.0,0.0,0.0,0.0,0.0,0.0,0.0,0.0,0.0,0.0,0.0,0.0,0.0,0.0,0.0,0.0,0.0,0.0,0.0,0.0,0.0,0.0,0.0,0.0,0.0,0.0,0.0,0.0,0.0,0.0,0.0,0.0,0.0,0.0,0.0,0.0,0.0,0.0,0.0,0.0,0.0,0.0,0.0,0.0,0.0,0.0,0.0,0.0,0.0,0.0,0.0,0.0,0.0,0.0,0.0,0.0,0.0,0.0,0.0,0.0,0.0,0.0,0.0,0.0,0.0,0.0,0.0,0.0,0.0,0.0,0.0,0.0,0.0,0.0,0.0,0.0,0.0,0.0,0.0,0.0,0.0,0.0,0.0,0.0,0.0,0.0,0.0,0.0,0.0,0.0,0.0,0.0,0.0,0.0,0.0,0.0,0.0,0.0,0.0,0.0,0.0,0.0,0.0,0.0,0.0,0.0,0.0,0.0,0.0,0.0,0.0,0.0,0.0,0.0,0.0,0.0,0.0,0.0,0.0,0.0,0.0,0.0,0.0,0.0,0.0,0.0,0.0,0.0,0.0,0.0,0.0,0.0,0.0,0.0,0.0,0.0,0.0,0.0,0.0,0.0,0.0,0.0,0.0,0.0,0.0,0.0,0.0,0.0,0.0,0.0,0.0,0.0,0.0,0.0,0.0,0.0,0.0,0.0,0.0,0.0,0.0,0.0,0.0,0.0,0.0,0.0,0.0,0.0,0.0,0.0,0.0,0.0,0.0,0.0,0.0,0.0,0.0,0.0,0.0,0.0,0.0,0.0,0.0,0.0,0.0,0.0,0.0,0.0,0.0,0.0,0.0,0.0,0.0,0.0,0.0,0.0,0.0,0.0,0.0,0.0,0.0,0.0,0.0,0.0,0.0,0.0,0.0,0.0,0.0,0.0,0.0,0.0,0.0,0.0,0.0,0.0,0.0,0.0,0.0,0.0,0.0,0.0,0.0,0.0,0.0,0.0,0.0,0.0,0.0,0.0,0.0,0.0,0.0,0.0,0.0,0.0,0.0,0.0,0.0,0.0,0.0,0.0,0.0,0.0,0.0,0.0,0.0,0.0,0.0,0.0,0.0,0.0,0.0,0.0,0.0,0.0,0.0,0.0,0.0,0.0,0.0,0.0,0.0,0.0,0.0,0.0,0.0,0.0,0.0,0.0,0.0,0.0,0.0,0.0,0.0,0.0,0.0,0.0,0.0,0.0,0.0,0.0,0.0,0.0,0.0,0.0,0.0,0.0,0.0,0.0,0.0,0.0,0.0,0.0,0.0,0.0,0.0,0.0,0.0,0.0,0.0,0.0,0.0,0.0,0.0,0.0,0.0,0.0,0.0,0.0,0.0,0.0,0.0,0.0,0.0,0.0,0.0,0.0,0.0,0.0,0.0,0.0,0.0,0.0,0.0,0.0,0.0,0.0,0.0,0.0,0.0,0.0,0.0,0.0,0.0,0.0,0.0,0.0,0.0,0.0,0.0,0.0,0.0,0.0,0.0,0.0,0.0,0.0,0.0,0.0,0.0,0.0,0.0,0.0,0.0,0.0,0.0,0.0,0.0,0.0,0.0,0.0,0.0,0.0,0.0,0.0,0.0,0.0,0.0,0.0,0.0,0.0,0.0,0.0,0.0,0.0,0.0,0.0,0.0,0.0,0.0,0.0,0.0,0.0,0.0,0.0,0.0,0.0,0.0,0.0,0.0,0.0,0.0,0.0,0.0,0.0,0.0,0.0,0.0,0.0,0.0,0.0,0.0,0.0,0.0,0.0,0.0,0.0,0.0,0.0,0.0,0.0,0.0,0.0,0.0,0.0,0.0,0.0,0.0,0.0,0.0,0.0,0.0,0.0,0.0,0.0,0.0,0.0,0.0,0.0,0.0,0.0,0.0,0.0,0.0,0.0,0.0,0.0,0.0,0.0,0.0,0.0,0.0,0.0,0.0,0.0,0.0,0.0,0.0,0.0,0.0,0.0,0.0,0.0,0.0,0.0,0.0,0.0,0.0,0.0,0.0,0.0,0.0,0.0,0.0,0.0,0.0,0.0,0.0,0.0,0.0,0.0,0.0,0.0,0.0,0.0,0.0,0.0,0.0,0.0,0.0,0.0,0.0,0.0,0.0,0.0,0.0,0.0,0.0,0.0,0.0,0.0,0.0,0.0,0.0,0.0,0.0,0.0,0.0,0.0,0.0,0.0,0.0,0.0,0.0,0.0,0.0,0.0,0.0,0.0,0.0,0.0,0.0,0.0,0.0,0.0,0.0,0.0,0.0,0.0,0.0,0.0,0.0,0.0,0.0,0.0,0.0,0.0,0.0,0.0,0.0,0.0,0.0,0.0,0.0,0.0,0.0,0.0,0.0,0.0,0.0,0.0,0.0,0.0,0.0,0.0,0.0,0.0,0.0,0.0,0.0,0.0,0.0,0.0,0.0,0.0,0.0,0.0,0.0,0.0,0.0,0.0,0.0,0.0,0.0,0.0,0.0,0.0,0.0,0.0,0.0,0.0,0.0,0.0,0.0,0.0,0.0,0.0,0.0,0.0,0.0,0.0,0.0,0.0,0.0,0.0,0.0,0.0,0.0,0.0,0.0,0.0,0.0,0.0,0.0,0.0,0.0,0.0,0.0,0.0,0.0,0.0,0.0,0.0,0.0,0.0,0.0,0.0,0.0,0.0,0.0,0.0,0.0,0.0,0.0,0.0,0.0,0.0,0.0,0.0,0.0,0.0,0.0,0.0,0.0,0.0,0.0,0.0,0.0,0.0,0.0,0.0,0.0,0.0,0.0,0.0,0.0,0.0,0.0,0.0,0.0,0.0,0.0,0.0,0.0,0.0,0.0,0.0,0.0,0.0,0.0,0.0,0.0,0.0,0.0,0.0,0.0,0.0,0.0,0.0,0.0,0.0,0.0,0.0,0.0,0.0,0.0,0.0,0.0,0.0,0.0,0.0,0.0,0.0,0.0,0.0,0.0,0.0,0.0,0.0,0.0,0.0,0.0,0.0,0.0,0.0,0.0,0.0,0.0,0.0,0.0,0.0,0.0,0.0,0.0,0.0,0.0,0.0,0.0,0.0,0.0,0.0,0.0,0.0,0.0,0.0,0.0,0.0,0.0,0.0,0.0,0.0,0.0,0.0,0.0,0.0,0.0,0.0,0.0,0.0,0.0,0.0,0.0,0.0,0.0,0.0,0.0,0.0,0.0,0.0,0.0,0.0,0.0,0.0,0.0,0.0,0.0,0.0,0.0,0.0,0.0,0.0,0.0,0.0,0.0,0.9834,0.0,0.0,0.0,0.0,0.0,0.0,0.0,0.0,0.0,0.0,0.0,0.0,0.0,0.0,0.0,0.0,0.0,0.0,0.0,0.0,0.0,0.0,0.0,0.0,0.0,0.0,0.0,0.0,0.0,0.0,0.0,0.0,0.0,0.0,0.0,0.0,0.0,0.0,0.0,0.0,0.0,0.0,0.0,0.0,0.0,0.0,0.0,0.0,0.0,0.0,0.0,0.0,0.0,0.0,0.0,0.0,0.0,0.0,0.0,0.0,0.0,0.0,0.0,0.0,0.0,0.0,0.0,0.0,0.0,0.0,0.0,0.0,0.0,0.0,0.0,0.0,0.0,0.0,0.0,0.0,0.0,0.0,0.0,0.0,0.0,0.0,0.0,0.0,0.0,0.0,0.0,0.0,0.0,0.0,0.0,0.0,0.0,0.0,0.0,0.0,0.0,0.0,0.0,0.0,0.0,0.0,0.0,0.0,0.0,0.0,0.991,0.988,0.9874,0.9887,0.9888,0.0,0.0,0.0,0.0,0.0,0.0,0.0,0.0,0.0,0.0,0.0,0.0,0.0,0.0,0.0,0.0,0.0,0.0,0.0,0.0,0.0,0.0,0.0,0.0,0.0,0.0,0.0,0.0,0.0,0.0,0.0,0.0,0.0,0.0,0.0,0.0,0.0,0.0,0.0,0.0,0.0,0.0,0.0,0.0,0.0,0.0,0.0,0.0,0.0,0.0,0.0,0.0,0.0,0.0,0.0,0.0,0.0,0.0,0.0,0.0,0.0,0.0,0.0,0.0,0.0,0.0,0.0,0.0,0.0,0.0,0.0,0.0,0.0,0.0,0.0,0.0,0.0,0.0,0.0,0.0,0.0,0.0,0.0,0.0,0.0,0.0,0.0,0.0,0.0,0.0,0.0,0.0,0.0,0.0,0.0,0.0,0.0,0.0,0.0,0.0,0.0,0.0,0.0,0.0,0.0,0.0,0.0,0.0,0.0,0.0,0.0,0.0,0.9752,0.9731,0.9732,0.0,0.0,0.0,0.0,0.0,0.0,0.0,0.0,0.0,0.0,0.0,0.0,0.0,0.0,0.0,0.0,0.0,0.0,0.0,0.0,0.0,0.0,0.0,0.0,0.0,0.0,0.0,0.0,0.0,0.0,0.0,0.0,0.0,0.0,0.0,0.0,0.0,0.0,0.0,0.0,0.0,0.0,0.0,0.0,0.0,0.0,0.0,0.0,0.0,0.0,0.0,0.0,0.0,0.0,0.0,0.0,0.0,0.0,0.0,0.0,0.0,0.0,0.0,0.0,0.0,0.0,0.0,0.0,0.0,0.0,0.0,0.0,0.0,0.0,0.0,0.0,0.0,0.0,0.0,0.0,0.0,0.0,0.0,0.0,0.0,0.0,0.0,0.0,0.0,0.0,0.0,0.0,0.0,0.0,0.0,0.0,0.0,0.0,0.0,0.0,0.0,0.0,0.0,0.0,0.0,0.0,0.0,0.0,0.0,0.0,0.953,0.953,0.953,0.0,0.954,0.0,0.0,0.0,0.0,0.0,0.0,0.0,0.0,0.0,0.0,0.0,0.0,0.0,0.0,0.0,0.0,0.0,0.0,0.0,0.0,0.0,0.0,0.0,0.0,0.0,0.0,0.0,0.0,0.0,0.0,0.0,0.0,0.0,0.0,0.0,0.0,0.0,0.0,0.0,0.0,0.0,0.0,0.0,0.0,0.0,0.0,0.0,0.0,0.0,0.0,0.0,0.0,0.0,0.0,0.0,0.0,0.0,0.0,0.0,0.0,0.0,0.0,0.0,0.0,0.0,0.0,0.0,0.0,0.0,0.0,0.0,0.0,0.0,0.0,0.0,0.0,0.0,0.0,0.0,0.0,0.0,0.0,0.0,0.0,0.0,0.0,0.0,0.0,0.0,0.0,0.0,0.0,0.0,0.0,0.0,0.0,0.0,0.0,0.0,0.0,0.0,0.0,0.0,0.0,0.0,0.0,0.0,0.0,0.0,0.0,0.9376,0.9394,0.934,0.9313,0.0,0.0,0.0,0.0,0.0,0.0,0.0,0.0,0.0,0.0,0.0,0.0,0.0,0.0,0.0,0.0,0.0,0.0,0.0,0.0,0.0,0.0,0.0,0.0,0.0,0.0,0.0,0.0,0.0,0.0,0.0,0.0,0.0,0.0,0.0,0.0,0.0,0.0,0.0,0.0,0.0,0.0,0.0,0.0,0.0,0.0,0.0,0.0,0.0,0.0,0.0,0.0,0.0,0.0,0.0,0.0,0.0,0.0,0.0,0.0,0.0,0.0,0.0,0.0,0.0,0.0,0.0,0.0,0.0,0.0,0.0,0.0,0.0,0.0,0.0,0.0,0.0,0.0,0.0,0.0,0.0,0.0,0.0,0.0,0.0,0.0,0.0,0.0,0.0,0.0,0.0,0.0,0.0,0.0,0.0,0.0,0.0,0.0,0.0,0.0,0.0,0.0,0.0,0.0,0.0,0.0,0.0,0.0,0.0,0.0,0.9194,0.9184,0.9194,0.9146,0.9116,0.9085,0.0,0.0,0.0,0.0,0.0,0.0,0.0,0.0,0.0,0.0,0.0,0.0,0.0,0.0,0.0,0.0,0.0,0.0,0.0,0.0,0.0,0.0,0.0,0.0,0.0,0.0,0.0,0.0,0.0,0.0,0.0,0.0,0.0,0.0,0.0,0.0,0.0,0.0,0.0,0.0,0.0,0.0,0.0,0.0,0.0,0.0,0.0,0.0,0.0,0.0,0.0,0.0,0.0,0.0,0.0,0.0,0.0,0.0,0.0,0.0,0.0,0.0,0.0,0.0,0.0,0.0,0.0,0.0,0.0,0.0,0.0,0.0,0.0,0.0,0.0,0.0,0.0,0.0,0.0,0.0,0.0,0.0,0.0,0.0,0.0,0.0,0.0,0.0,0.0,0.0,0.0,0.0,0.0,0.0,0.0,0.0,0.0,0.0,0.0,0.0,0.0,0.0,0.0,0.0,0.0,0.0,0.0,0.0,0.8913,0.8902,0.8913,0.8942,0.8913,0.8874,0.0,0.0,0.0,0.0,0.0,0.0,0.0,0.0,0.0,0.0,0.0,0.0,0.0,0.0,0.0,0.0,0.0,0.0,0.0,0.0,0.0,0.0,0.0,0.0,0.0,0.0,0.0,0.0,0.0,0.0,0.0,0.0,0.0,0.0,0.0,0.0,0.0,0.0,0.0,0.0,0.0,0.0,0.0,0.0,0.0,0.0,0.0,0.0,0.0,0.0,0.0,0.0,0.0,0.0,0.0,0.0,0.0,0.0,0.0,0.0,0.0,0.0,0.0,0.0,0.0,0.0,0.0,0.0,0.0,0.0,0.0,0.0,0.0,0.0,0.0,0.0,0.0,0.0,0.0,0.0,0.0,0.0,0.0,0.0,0.0,0.0,0.0,0.0,0.0,0.0,0.0,0.0,0.0,0.0,0.0,0.0,0.0,0.0,0.0,0.0,0.0,0.0,0.0,0.0,0.0,0.0,0.0,0.0,0.0,0.8705,0.8705,0.8705,0.8705,0.866,0.8632,0.0,0.0,0.0,0.0,0.0,0.0,0.0,0.0,0.0,0.0,0.0,0.0,0.0,0.0,0.0,0.0,0.0,0.0,0.0,0.0,0.0,0.0,0.0,0.0,0.0,0.0,0.0,0.0,0.0,0.0,0.0,0.0,0.0,0.0,0.0,0.0,0.0,0.0,0.0,0.0,0.0,0.0,0.0,0.0,0.0,0.0,0.0,0.0,0.0,0.0,0.0,0.0,0.0,0.0,0.0,0.0,0.0,0.0,0.0,0.0,0.0,0.0,0.0,0.0,0.0,0.0,0.0,0.0,0.0,0.0,0.0,0.0,0.0,0.0,0.0,0.0,0.0,0.0,0.0,0.0,0.0,0.0,0.0,0.0,0.0,0.0,0.0,0.0,0.0,0.0,0.0,0.0,0.0,0.0,0.0,0.0,0.0,0.0,0.0,0.0,0.0,0.0,0.0,0.0,0.0,0.0,0.0,0.0,0.0,0.8457,0.0,0.8428,0.8441,0.8396,0.8371,0.0,0.0,0.0,0.0,0.0,0.0,0.0,0.0,0.0,0.0,0.0,0.0,0.0,0.0,0.0,0.0,0.0,0.0,0.0,0.0,0.0,0.0,0.0,0.0,0.0,0.0,0.0,0.0,0.0,0.0,0.0,0.0,0.0,0.0,0.0,0.0,0.0,0.0,0.0,0.0,0.0,0.0,0.0,0.0,0.0,0.0,0.0,0.0,0.0,0.0,0.0,0.0,0.0,0.0,0.0,0.0,0.0,0.0,0.0,0.0,0.0,0.0,0.0,0.0,0.0,0.0,0.0,0.0,0.0,0.0,0.0,0.0,0.0,0.0,0.0,0.0,0.0,0.0,0.0,0.0,0.0,0.0,0.0,0.0,0.0,0.0,0.0,0.0,0.0,0.0,0.0,0.0,0.0,0.0,0.0,0.0,0.0,0.0,0.0,0.0,0.0,0.0,0.0,0.0,0.0,0.0,0.0,0.0,0.8092,0.8104,0.8104,0.8104,0.8118,0.8104,0.8063,0.0,0.0,0.0,0.0,0.0,0.0,0.0,0.0,0.0,0.0,0.0,0.0,0.0,0.0,0.0,0.0,0.0,0.0,0.0,0.0,0.0,0.0,0.0,0.0,0.0,0.0,0.0,0.0,0.0,0.0,0.0,0.0,0.0,0.0,0.0,0.0,0.0,0.0,0.0,0.0,0.0,0.0,0.0,0.0,0.0,0.0,0.0,0.0,0.0,0.0,0.0,0.0,0.0,0.0,0.0,0.0,0.0,0.0,0.0,0.0,0.0,0.0,0.0,0.0,0.0,0.0,0.0,0.0,0.0,0.0,0.0,0.0,0.0,0.0,0.0,0.0,0.0,0.0,0.0,0.0,0.0,0.0,0.0,0.0,0.0,0.0,0.0,0.0,0.0,0.0,0.0,0.0,0.0,0.0,0.0,0.0,0.0,0.0,0.0,0.0,0.0,0.0,0.0,0.0,0.0,0.0,0.0,0.0,0.0,0.7811,0.7826,0.7797,0.7768,0.7753,0.7753,0.0,0.0,0.0,0.0,0.0,0.0,0.0,0.0,0.0,0.0,0.0,0.0,0.0,0.0,0.0,0.0,0.0,0.0,0.0,0.0,0.0,0.0,0.0,0.0,0.0,0.0,0.0,0.0,0.0,0.0,0.0,0.0,0.0,0.0,0.0,0.0,0.0,0.0,0.0,0.0,0.0,0.0,0.0,0.0,0.0,0.0,0.0,0.0,0.0,0.0,0.0,0.0,0.0,0.0,0.0,0.0,0.0,0.0,0.0,0.0,0.0,0.0,0.0,0.0,0.0,0.0,0.0,0.0,0.0,0.0,0.0,0.0,0.0,0.0,0.0,0.0,0.0,0.0,0.0,0.0,0.0,0.0,0.0,0.0,0.0,0.0,0.0,0.0,0.0,0.0,0.0,0.0,0.0,0.0,0.0,0.0,0.0,0.0,0.0,0.0,0.0,0.0,0.0,0.0,0.0,0.0,0.0,0.0,0.0,0.7253,0.7393,0.7467,0.7422,0.7407,0.7392,0.7376,0.0,0.0,0.0,0.0,0.0,0.0,0.0,0.0,0.0,0.0,0.0,0.0,0.0,0.0,0.0,0.0,0.0,0.0,0.0,0.0,0.0,0.0,0.0,0.0,0.0,0.0,0.0,0.0,0.0,0.0,0.0,0.0,0.0,0.0,0.0,0.0,0.0,0.0,0.0,0.0,0.0,0.0,0.0,0.0,0.0,0.0,0.0,0.0,0.0,0.0,0.0,0.0,0.0,0.0,0.0,0.0,0.0,0.0,0.0,0.0,0.0,0.0,0.0,0.0,0.0,0.0,0.0,0.0,0.0,0.0,0.0,0.0,0.0,0.0,0.0,0.0,0.0,0.0,0.0,0.0,0.0,0.0,0.0,0.0,0.0,0.0,0.0,0.0,0.0,0.0,0.0,0.0,0.0,0.0,0.0,0.0,0.0,0.0,0.0,0.0,0.0,0.0,0.0,0.0,0.0,0.0,0.0,0.0,0.6512,0.6858,0.7042,0.7058,0.7058,0.7026,0.0,0.0,0.0,0.0,0.0,0.0,0.0,0.0,0.0,0.0,0.0,0.0,0.0,0.0,0.0,0.0,0.0,0.0,0.0,0.0,0.0,0.0,0.0,0.0,0.0,0.0,0.0,0.0,0.0,0.0,0.0,0.0,0.0,0.0,0.0,0.0,0.0,0.0,0.0,0.0,0.0,0.0,0.0,0.0,0.0,0.0,0.0,0.0,0.0,0.0,0.0,0.0,0.0,0.0,0.0,0.0,0.0,0.0,0.0,0.0,0.0,0.0,0.0,0.0,0.0,0.0,0.0,0.0,0.0,0.0,0.0,0.0,0.0,0.0,0.0,0.0,0.0,0.0,0.0,0.0,0.0,0.0,0.0,0.0,0.0,0.0,0.0,0.0,0.0,0.0,0.0,0.0,0.0,0.0,0.0,0.0,0.0,0.0,0.0,0.0,0.0,0.0,0.0,0.0,0.0,0.0,0.0,0.0,0.0,0.656,0.6384,0.6418,0.6651,0.6668,0.6638,0.0,0.0,0.0,0.0,0.0,0.0,0.0,0.0,0.0,0.0,0.0,0.0,0.0,0.0,0.0,0.0,0.0,0.0,0.0,0.0,0.0,0.0,0.0,0.0,0.0,0.0,0.0,0.0,0.0,0.0,0.0,0.0,0.0,0.0,0.0,0.0,0.0,0.0,0.0,0.0,0.0,0.0,0.0,0.0,0.0,0.0,0.0,0.0,0.0,0.0,0.0,0.0,0.0,0.0,0.0,0.0,0.0,0.0,0.0,0.0,0.0,0.0,0.0,0.0,0.0,0.0,0.0,0.0,0.0,0.0,0.0,0.0,0.0,0.0,0.0,0.0,0.0,0.0,0.0,0.0,0.0,0.0,0.0,0.0,0.0,0.0,0.0,0.0,0.0,0.0,0.0,0.0,0.0,0.0,0.0,0.0,0.0,0.0,0.0,0.0,0.0,0.0,0.0,0.0,0.0,0.0,0.0,0.0,0.6434,0.6553,0.634,0.6355,0.6529,0.6332,0.6236,0.0,0.0,0.0,0.0,0.0,0.0,0.0,0.0,0.0,0.0,0.0,0.0,0.0,0.0,0.0,0.0,0.0,0.0,0.0,0.0,0.0,0.0,0.0,0.0,0.0,0.0,0.0,0.0,0.0,0.0,0.0,0.0,0.0,0.0,0.0,0.0,0.0,0.0,0.0,0.0,0.0,0.0,0.0,0.0,0.0,0.0,0.0,0.0,0.0,0.0,0.0,0.0,0.0,0.0,0.0,0.0,0.0,0.0,0.0,0.0,0.0,0.0,0.0,0.0,0.0,0.0,0.0,0.0,0.0,0.0,0.0,0.0,0.0,0.0,0.0,0.0,0.0,0.0,0.0,0.0,0.0,0.0,0.0,0.0,0.0,0.0,0.0,0.0,0.0,0.0,0.0,0.0,0.0,0.0,0.0,0.0,0.0,0.0,0.0,0.0,0.0,0.0,0.0,0.0,0.0,0.0,0.0,0.0,0.6581,0.6494,0.6518,0.6533,0.6601,0.6191,0.5948,0.0,0.0,0.0,0.0,0.0,0.0,0.0,0.0,0.0,0.0,0.0,0.0,0.0,0.0,0.0,0.0,0.0,0.0,0.0,0.0,0.0,0.0,0.0,0.0,0.0,0.0,0.0,0.0,0.0,0.0,0.0,0.0,0.0,0.0,0.0,0.0,0.0,0.0,0.0,0.0,0.0,0.0,0.0,0.0,0.0,0.0,0.0,0.0,0.0,0.0,0.0,0.0,0.0,0.0,0.0,0.0,0.0,0.0,0.0,0.0,0.0,0.0,0.0,0.0,0.0,0.0,0.0,0.0,0.0,0.0,0.0,0.0,0.0,0.0,0.0,0.0,0.0,0.0,0.0,0.0,0.0,0.0,0.0,0.0,0.0,0.0,0.0,0.0,0.0,0.0,0.0,0.0,0.0,0.0,0.0,0.0,0.0,0.0,0.0,0.0,0.0,0.0,0.0,0.0,0.0,0.0,0.0,0.0,0.6222,0.6483,0.6138,0.6205,0.6668,0.6527,0.6268,0.0,0.0,0.0,0.0,0.0,0.0,0.0,0.0,0.0,0.0,0.0,0.0,0.0,0.0,0.0,0.0,0.0,0.0,0.0,0.0,0.0,0.0,0.0,0.0,0.0,0.0,0.0,0.0,0.0,0.0,0.0,0.0,0.0,0.0,0.0,0.0,0.0,0.0,0.0,0.0,0.0,0.0,0.0,0.0,0.0,0.0,0.0,0.0,0.3423,0.0,0.0,0.0,0.0,0.0,0.0,0.0,0.0,0.0,0.0,0.0,0.0,0.0,0.0,0.0,0.0,0.0,0.0,0.0,0.0,0.0,0.0,0.0,0.0,0.0,0.0,0.0,0.0,0.0,0.0,0.0,0.0,0.0,0.0,0.0,0.0,0.0,0.0,0.0,0.0,0.0,0.0,0.0,0.0,0.0,0.0,0.0,0.0,0.0,0.0,0.0,0.0,0.0,0.0,0.0,0.0,0.0,0.0,0.0,0.6166,0.6306,0.6127,0.6203,0.6536,0.6528,0.6268,0.0,0.0,0.0,0.0,0.0,0.0,0.0,0.0,0.0,0.0,0.0,0.0,0.0,0.0,0.0,0.0,0.0,0.0,0.0,0.0,0.0,0.0,0.0,0.0,0.0,0.0,0.0,0.0,0.0,0.0,0.0,0.0,0.0,0.0,0.0,0.0,0.0,0.0,0.0,0.0,0.0,0.0,0.0,0.0,0.0,0.0,0.0,0.0,0.0,0.0,0.0,0.0,0.0,0.0,0.0,0.0,0.0,0.0,0.0,0.0,0.0,0.0,0.0,0.0,0.0,0.0,0.0,0.0,0.0,0.0,0.0,0.0,0.0,0.0,0.0,0.0,0.0,0.0,0.0,0.0,0.0,0.0,0.0,0.0,0.0,0.0,0.0,0.0,0.0,0.0,0.0,0.0,0.0,0.0,0.0,0.0,0.0,0.0,0.0,0.0,0.0,0.0,0.0,0.0,0.0,0.0,0.0,0.6025,0.6114,0.6006,0.6114,0.6206,0.626,0.626,0.6022,0.548,0.0,0.0,0.0,0.0,0.0,0.0,0.0,0.0,0.0,0.0,0.0,0.0,0.0,0.0,0.0,0.0,0.0,0.0,0.0,0.0,0.0,0.0,0.0,0.0,0.0,0.0,0.0,0.0,0.0,0.0,0.0,0.0,0.0,0.0,0.0,0.0,0.0,0.0,0.3074,0.2977,0.0,0.0,0.0,0.0,0.0,0.0,0.0,0.0,0.2826,0.0,0.0,0.0,0.0,0.0,0.0,0.0,0.0,0.0,0.0,0.0,0.0,0.0,0.0,0.0,0.0,0.0,0.0,0.0,0.0,0.0,0.0,0.0,0.0,0.0,0.0,0.0,0.0,0.0,0.0,0.0,0.0,0.0,0.0,0.0,0.0,0.0,0.0,0.0,0.0,0.0,0.0,0.0,0.0,0.0,0.0,0.0,0.0,0.0,0.0,0.0,0.0,0.0,0.0,0.0,0.0,0.5318,0.5476,0.5578,0.5578,0.5617,0.5679,0.5727,0.5679,0.5538,0.5282,0.0,0.0,0.0,0.0,0.0,0.0,0.0,0.0,0.0,0.0,0.0,0.0,0.0,0.0,0.0,0.0,0.0,0.0,0.0,0.0,0.0,0.0,0.0,0.0,0.0,0.0,0.0,0.0,0.0,0.0,0.0,0.0,0.0,0.0,0.0,0.0,0.0,0.0,0.0,0.2616,0.2529,0.0,0.0,0.0,0.0,0.0,0.0,0.0,0.0,0.2836,0.0,0.0,0.0,0.0,0.0,0.0,0.0,0.0,0.0,0.0,0.0,0.0,0.0,0.0,0.0,0.0,0.0,0.0,0.0,0.0,0.0,0.0,0.0,0.0,0.0,0.0,0.0,0.0,0.0,0.0,0.0,0.0,0.0,0.0,0.0,0.0,0.0,0.0,0.0,0.0,0.0,0.0,0.0,0.0,0.0,0.0,0.0,0.0,0.0,0.0,0.0,0.0,0.0,0.0,0.0,0.502,0.4972,0.4941,0.4979,0.4979,0.5004,0.5099,0.5112,0.5075,0.0,0.0,0.0,0.0,0.0,0.0,0.0,0.0,0.0,0.0,0.0,0.0,0.0,0.0,0.0,0.0,0.0,0.0,0.0,0.0,0.0,0.0,0.0,0.0,0.0,0.0,0.0,0.0,0.0,0.0,0.0,0.0,0.0,0.0,0.0,0.0,0.0,0.0,0.0,0.0,0.2394,0.2311,0.2342,0.0,0.0,0.0,0.0,0.0,0.0,0.2598,0.275,0.0,0.0,0.0,0.0,0.0,0.0,0.0,0.0,0.0,0.0,0.0,0.0,0.0,0.0,0.0,0.0,0.0,0.0,0.0,0.0,0.0,0.0,0.0,0.0,0.0,0.0,0.0,0.0,0.0,0.0,0.0,0.0,0.0,0.0,0.0,0.0,0.0,0.0,0.0,0.0,0.0,0.0,0.0,0.0,0.0,0.0,0.0,0.0,0.0,0.0,0.0,0.0,0.0,0.0,0.0,0.4718,0.4468,0.4333,0.4333,0.4328,0.4366,0.4441,0.4576,0.4579,0.0,0.0,0.0,0.0,0.0,0.0,0.0,0.0,0.0,0.0,0.0,0.0,0.0,0.0,0.0,0.0,0.0,0.0,0.0,0.0,0.0,0.0,0.0,0.0,0.0,0.0,0.0,0.0,0.0,0.0,0.0,0.0,0.0,0.0,0.0,0.0,0.0,0.0,0.0,0.0,0.0,0.2156,0.2134,0.2115,0.0,0.0,0.0,0.0,0.2381,0.2531,0.0,0.0,0.0,0.0,0.0,0.0,0.0,0.0,0.0,0.0,0.0,0.0,0.0,0.0,0.0,0.0,0.0,0.0,0.0,0.0,0.0,0.0,0.0,0.0,0.0,0.0,0.0,0.0,0.0,0.0,0.0,0.0,0.0,0.0,0.0,0.0,0.0,0.0,0.0,0.0,0.0,0.0,0.0,0.0,0.0,0.0,0.0,0.0,0.0,0.0,0.0,0.0,0.0,0.0,0.0,0.0,0.4091,0.3896,0.3788,0.3784,0.3811,0.3849,0.3988,0.3988,0.3977,0.0,0.0,0.0,0.0,0.0,0.0,0.0,0.0,0.0,0.0,0.0,0.0,0.0,0.0,0.0,0.0,0.0,0.0,0.0,0.0,0.0,0.0,0.0,0.0,0.0,0.0,0.0,0.0,0.0,0.0,0.0,0.0,0.0,0.0,0.0,0.0,0.0,0.0,0.0,0.0,0.0,0.2085,0.2248,0.216,0.2103,0.0,0.0,0.2297,0.2297,0.2571,0.0,0.0,0.0,0.0,0.0,0.0,0.0,0.0,0.0,0.0,0.0,0.0,0.0,0.0,0.0,0.0,0.0,0.0,0.0,0.0,0.0,0.0,0.0,0.0,0.0,0.0,0.0,0.0,0.0,0.0,0.0,0.0,0.0,0.0,0.0,0.0,0.0,0.0,0.0,0.0,0.0,0.0,0.0,0.0,0.0,0.0,0.0,0.0,0.0,0.0,0.0,0.0,0.0,0.0,0.0,0.369,0.3556,0.3357,0.3233,0.3257,0.3261,0.3294,0.3327,0.3397,0.3353,0.0,0.0,0.0,0.0,0.0,0.0,0.0,0.0,0.0,0.0,0.0,0.0,0.0,0.0,0.0,0.0,0.0,0.0,0.0,0.0,0.0,0.0,0.0,0.0,0.0,0.0,0.0,0.0,0.0,0.0,0.0,0.0,0.0,0.0,0.0,0.0,0.0,0.0,0.0,0.0,0.0,0.0,0.2118,0.2069,0.0,0.0,0.0,0.2247,0.225,0.0,0.0,0.0,0.0,0.0,0.0,0.0,0.0,0.0,0.0,0.0,0.0,0.0,0.0,0.0,0.0,0.0,0.0,0.0,0.0,0.0,0.0,0.0,0.0,0.0,0.0,0.0,0.0,0.0,0.0,0.0,0.0,0.0,0.0,0.0,0.0,0.0,0.0,0.0,0.0,0.0,0.0,0.0,0.0,0.0,0.0,0.0,0.0,0.0,0.0,0.0,0.0,0.0,0.0,0.0,0.0,0.0,0.3004,0.2853,0.2743,0.2676,0.2673,0.2702,0.2706,0.2841,0.0,0.0,0.0,0.0,0.0,0.0,0.0,0.0,0.0,0.0,0.0,0.0,0.0,0.0,0.0,0.0,0.0,0.0,0.0,0.0,0.0,0.0,0.0,0.0,0.0,0.0,0.0,-0.0888,0.0,0.0,0.0,0.0,0.0,0.0,0.0,0.0,0.0,0.0,0.0,0.0,0.0,0.0,0.2046,0.2021,0.2024,0.1995,0.0,0.0,0.2236,0.2173,0.2447,0.2676,0.0,0.0,0.0,0.0,0.0,0.0,0.0,0.0,0.0,0.0,0.0,0.0,0.0,0.0,0.0,0.0,0.0,0.0,0.0,0.0,0.0,0.0,0.0,0.0,0.0,0.0,0.0,0.0,0.0,0.0,0.0,0.0,0.0,0.0,0.0,0.0,0.0,0.0,0.0,0.0,0.0,0.0,0.0,0.0,0.0,0.0,0.0,0.0,0.0,0.0,0.0,0.0,0.0,0.0,0.0,0.2465,0.2457,0.2326,0.2156,0.2081,0.2081,0.2147,0.2286,0.2323,0.0,0.0,0.0,0.0,0.0,0.0,0.0,0.0,0.0,0.0,0.0,0.0,0.0,0.0,0.0,0.0,0.0,0.0,0.0,0.0,0.0,0.0,0.0,0.0,0.0,0.0,0.0,0.0,0.0,0.0,0.0,0.0,0.0,0.0,0.0,0.0,0.0,0.0,0.0,0.0,0.0,0.1933,0.1976,0.2024,0.1991,0.0,0.0,0.2242,0.2137,0.2338,0.251,0.2543,0.0,0.0,0.0,0.0,0.0,0.0,0.0,0.0,0.0,0.0,0.0,0.0,0.0,0.0,0.0,0.0,0.0,0.0,0.0,0.0,0.0,0.0,0.0,0.0,0.0,0.0,0.0,0.0,0.0,0.0,0.0,0.0,0.0,0.0,0.0,0.0,0.0,0.0,0.0,0.0,0.0,0.0,0.0,0.0,0.0,0.0,0.0,0.0,0.0,0.0,0.0,0.0,0.0,0.2281,0.2146,0.2025,0.1906,0.1798,0.1739,0.1744,0.1785,0.1575,0.1203,0.0,0.0,0.0,0.0,0.0,0.0,0.0,0.0,0.0,0.0,0.0,0.0,0.0,0.0,0.0,0.0,0.0,0.0,0.0,0.0,0.0,0.0,0.0,0.0,0.0,0.0,0.0,0.0,-0.2723,-0.3159,-0.3315,0.0,0.0,0.0,0.0,0.0,0.0,0.0,0.0,0.0,0.0,0.1873,0.195,0.1945,0.0,0.0,0.1978,0.2047,0.1978,0.2114,0.2211,0.2247,0.2377,0.0,0.0,0.0,0.0,0.0,0.0,0.0,0.0,0.0,0.0,0.0,0.0,0.0,0.0,0.0,0.0,0.0,0.0,0.0,0.0,0.0,0.0,0.0,0.0,0.0,0.0,0.0,0.0,0.0,0.0,0.0,0.0,0.0,0.0,0.0,0.0,0.0,0.0,0.0,0.0,0.0,0.0,0.0,0.0,0.0,0.0,0.0,0.0,0.0,0.0,0.0,0.0,0.183,0.1806,0.1692,0.1612,0.1492,0.1298,0.1229,0.1246,0.0804,0.0285,0.0,0.0,0.0,0.0,0.0,0.0,0.0,0.0,0.0,0.0,0.0,0.0,0.0,0.0,0.0,0.0,0.0,0.0,0.0,0.0,0.0,0.0,0.0,0.0,0.0,0.0,0.0,0.0,-0.3019,-0.3448,-0.3602,0.0,0.0,0.0,0.0,0.0,0.0,0.0,0.0,0.0,0.0,0.1715,0.17,0.1754,0.1812,0.1751,0.178,0.1842,0.1809,0.187,0.1962,0.1997,0.0,0.0,0.0,0.0,0.0,0.0,0.0,0.0,0.0,0.0,0.0,0.0,0.0,0.0,0.0,0.0,0.0,0.0,0.0,0.0,0.0,0.0,0.0,0.0,0.0,0.0,0.0,0.0,0.0,0.0,-0.246,0.0,0.0,0.0,0.0,0.0,0.0,0.0,0.0,0.0,0.0,0.0,0.0,0.0,0.0,0.0,0.0,0.0,0.0,0.0,0.0,0.0,0.0,0.1385,0.1301,0.1421,0.1442,0.1284,0.0801,0.0532,0.0505,0.0067,-0.035,-0.07,0.0,0.0,0.0,0.0,0.0,0.0,0.0,0.0,0.0,0.0,0.0,0.0,0.0,0.0,0.0,0.0,0.0,0.0,0.0,0.0,0.0,0.0,0.0,0.0,0.0,0.0,-0.2562,-0.3189,-0.367,0.0,0.0,0.0,0.0,0.0,0.0,0.0,0.0,0.0,0.0,0.1483,0.1462,0.1322,0.149,0.1535,0.1328,0.155,0.1678,0.1613,0.1721,0.1816,0.0,0.0,0.0,0.0,0.0,0.0,0.0,0.0,0.0,0.0,0.0,0.0,0.0,0.0,0.0,0.0,0.0,0.0,0.0,0.0,0.0,0.0,0.0,0.0,0.0,0.0,0.0,-0.5012,-0.4608,0.0,0.0,0.0,0.0,0.0,0.0,0.0,0.0,0.0,0.0,0.0,-0.2275,-0.2012,0.0,0.0,0.0,0.0,0.0,0.0,0.0,0.0,0.0,0.0,0.0,0.0,0.0788,0.0787,0.0725,0.0654,0.0576,0.0334,0.0142,-0.0101,-0.0403,-0.0935,-0.1617,0.0,0.0,0.0,0.0,0.0,0.0,0.0,0.0,0.0,0.0,0.0,0.0,0.0,0.0,0.0,0.0,0.0,0.0,0.0,0.0,0.0,0.0,0.0,0.0,0.0,-0.2534,0.0,0.0,0.0,0.0,0.0,0.0,0.0,0.0,0.0,0.0,0.0,0.1207,0.1333,0.1349,0.1345,0.1311,0.1281,0.1256,0.0,0.0,0.0,0.0,0.0,0.0,0.0,0.0,0.0,0.0,0.0,0.0,0.0,0.0,0.1692,0.1992,0.2028,0.2001,0.1911,0.0,0.0,0.0,0.0,0.0,0.0,0.0,0.0,0.0,0.0,0.0,0.0,0.0,0.0,-0.6504,0.0,-0.6014,0.0,0.0,0.0,0.0,0.0,0.0,0.0,0.0,-0.4026,-0.3783,-0.3631,-0.3225,-0.3003,0.0,-0.2598,-0.1984,0.0,0.0,0.0,0.0,0.0,0.0,0.0,0.0,0.0179,0.0179,0.0131,0.0084,0.004,-0.0156,-0.0372,-0.059,-0.0932,-0.1476,-0.2267,-0.2618,-0.2701,0.0,0.0,0.0,0.0,0.0,0.0,0.0,0.0,0.0,0.0,0.0,0.0,0.0,0.0,0.0,0.0,0.0,0.0,0.0,0.0,0.0,0.0,0.0,-0.3081,0.0,0.0,0.0,0.0,0.0,0.0,0.0,0.0,0.0,0.073,0.0892,0.0971,0.1145,0.1157,0.1154,0.1123,0.0,0.0,0.0,0.0,0.0,0.0,0.0,0.1326,0.1169,0.1222,0.1233,0.1274,0.1498,0.1609,0.1556,0.0,0.0,0.1738,0.1767,0.1734,0.1639,0.1397,0.1192,0.1113,0.0741,0.033,0.0,0.0,0.0,0.0,0.0,0.0,0.0,0.0,-0.8712,-0.8418,0.0,-0.7943,0.0,0.0,0.0,0.0,0.0,-0.5829,0.0,0.0,-0.5107,-0.4863,-0.4807,-0.4501,-0.4165,-0.3839,-0.3611,-0.3393,-0.3163,-0.2235,0.0,0.0,0.0,0.0,0.0,0.0,-0.0447,-0.0403,-0.0314,-0.022,-0.0253,-0.0673,-0.0927,-0.1022,-0.1478,-0.2032,-0.2665,-0.2711,-0.2918,-0.3256,-0.287,0.0,0.0,0.0,0.0,0.0,0.0,0.0,0.0,0.0,0.0,0.0,0.0,0.0,0.0,0.0,0.0,0.0,0.0,0.0,0.0,-0.3174,0.0,0.0,0.0,0.0,0.0,0.0,0.0,0.0,0.0,0.0,0.0592,0.0761,0.0815,0.0896,0.0,0.0,0.0,0.0,0.0959,0.0916,0.0949,0.0989,0.0989,0.1067,0.1097,0.1056,0.0,0.0,0.1253,0.1523,0.1607,0.1343,0.1518,0.168,0.1484,0.143,0.1491,0.155,0.1113,0.0715,0.0626,0.0266,-0.0133,-1.2686,0.0,0.0,0.0,0.0,-1.0381,-1.01,-0.9765,-0.949,-0.9259,-0.902,-0.8795,0.0,0.0,0.0,0.0,0.0,0.0,-0.7047,-0.6797,-0.6538,-0.6221,-0.5797,-0.5371,-0.5127,-0.4866,-0.4487,-0.4217,-0.3965,-0.3619,-0.2943,-0.2059,0.0,0.0,0.0,0.0,-0.1254,-0.112,-0.0941,-0.0835,-0.0759,-0.0885,-0.1128,-0.1422,-0.1868,-0.2335,-0.2755,-0.3099,-0.3272,-0.33,-0.3327,0.0,0.0,0.0,0.0,0.0,0.0,0.0,0.0,0.0,0.0,0.0,0.0,0.0,0.0,0.0,0.0,0.0,0.0,0.0,-0.3735,-0.3804,-0.3945,0.0,0.0,0.0,0.0,0.0,0.0,0.0,0.0,0.0,0.069,0.0765,0.0763,0.0,0.0,0.0843,0.0786,0.083,0.0865,0.0872,0.0911,0.0,0.0,0.105,0.1057,0.0839,0.0936,0.1034,0.1078,0.1303,0.1393,0.1168,0.0808,0.0536,0.0575,0.0703,0.0751,0.0626,0.0403,0.009,-0.0135,-0.0403,-0.0716,-1.4348,-1.2862,-1.2261,-1.1827,-1.1445,-1.1407,-1.1156,-1.0771,-1.0583,-1.0345,-1.0154,-0.9915,-0.9723,-0.9529,-0.9036,0.0,0.0,0.0,-0.7988,-0.7717,-0.7402,-0.7079,-0.6701,-0.6213,-0.5996,-0.5828,-0.534,-0.507,-0.4908,-0.4652,-0.4075,-0.3257,0.0,0.0,-0.1835,-0.1834,-0.1791,-0.1614,-0.1435,-0.1283,-0.1253,-0.1274,-0.1433,-0.1781,-0.2118,-0.2475,-0.2859,-0.32,-0.3467,-0.3565,-0.3657,-0.3793,0.0,0.0,0.0,0.0,0.0,0.0,0.0,0.0,0.0,0.0,0.0,-0.0094,0.0,0.0,0.0,0.0,-0.3462,-0.3877,-0.4345,-0.4126,0.0,0.0,0.0,0.0,0.0,0.0,0.0,-0.0865,-0.028,0.0285,0.078,0.0766,0.0709,0.0668,0.0726,0.0778,0.0815,0.0,0.0755,0.0814,0.081,0.081,0.081,0.0898,0.0898,0.0719,0.081,0.0855,0.0764,0.081,0.081,0.0629,0.0135,-0.0225,-0.009,-0.0134,-0.0134,-0.009,-0.0359,-0.0627,-0.0807,-0.1045,-0.1285,-1.5882,-1.5269,-1.4174,-1.3289,-1.2626,-1.2539,-1.2323,-1.1977,-1.1819,-1.1628,-1.1377,-1.1217,-1.0972,-1.0667,-1.0131,0.0,-0.9413,-0.8883,-0.8626,-0.8421,-0.7895,-0.7568,-0.7515,-0.7025,-0.6756,-0.6756,-0.6154,-0.5882,-0.5828,-0.5395,-0.4953,-0.4519,-0.3685,-0.3034,-0.2553,-0.2277,-0.2101,-0.2018,-0.1792,-0.1658,-0.1657,-0.1724,-0.1855,-0.2101,-0.2254,-0.2534,-0.2989,-0.3227,-0.3534,-0.3973,-0.3963,-0.4153,-0.4631,0.0,0.0,0.0,0.0,0.0,0.0,0.0,0.0,0.0,0.0,0.0,0.0,0.0,0.0,0.0,-0.3626,0.0,-0.4665,-0.4262,0.0,0.0,0.0,-0.3377,-0.2855,-0.2073,-0.1471,-0.11,0.0,0.0,0.0762,0.0,0.0652,0.0388,0.0546,0.0751,0.0776,0.0723,0.071,0.0683,0.0676,0.0674,0.0674,0.0674,0.0629,0.0584,0.0629,0.0584,0.0405,0.0135,-0.0045,-0.009,-0.045,-0.0719,-0.0584,-0.0897,-0.1075,-0.0674,-0.0987,-0.1391,-0.14,-0.1578,-0.1712,-1.6743,-1.6063,-1.5744,-1.4925,-1.3731,-1.3116,-1.2725,-1.2627,-1.2323,-1.2076,-1.1877,-1.1678,-1.1326,-1.082,-1.0608,-1.0257,-0.9836,-0.9517,-0.9256,-0.9001,-0.8639,-0.8381,-0.8156,-0.7729,-0.7402,-0.7246,-0.6756,-0.648,-0.6485,-0.6,-0.5531,-0.5014,-0.4714,-0.4018,-0.309,-0.2818,-0.2598,-0.237,-0.2237,-0.2059,-0.1971,-0.2083,-0.2212,-0.2266,-0.2408,-0.2703,-0.3076,-0.3328,-0.3597,-0.3928,-0.4146,-0.4398,-0.4598,-0.4318,0.0,0.0,0.0,0.0,0.0,0.0,0.0,0.0,0.0,-0.0462,-0.1532,0.0,-0.3789,0.0,-0.4773,-0.4995,-0.5139,-0.4744,0.0,0.0,-0.3899,-0.3287,-0.2728,-0.205,-0.1445,-0.0775,-0.0575,-0.0263,0.0158,0.0215,0.0108,-0.0157,-0.0,0.0262,0.0468,0.0507,0.0492,0.0473,0.0459,0.0495,0.045,0.0315,0.018,0.0135,0.0135,0.0135,0.009,-0.027,-0.0584,-0.0809,-0.0988,-0.1121,-0.1166,-0.1299,-0.1344,-0.1345,-0.1389,-0.1448,-0.1586,-0.1847,-0.2069,-1.7568,-1.6885,-1.6655,-1.605,-1.5183,-1.4022,-1.338,-1.3113,-1.2764,-1.252,-1.2323,-1.1977,-1.1569,-1.1276,-1.0972,-1.0718,-1.036,-0.9991,-0.9725,-0.9524,-0.9211,-0.8949,-0.8745,-0.8309,-0.8043,-0.7889,-0.7354,-0.7031,-0.7031,-0.6544,-0.6101,-0.5736,-0.5435,-0.4886,-0.4144,-0.3546,-0.3129,-0.2815,-0.264,-0.2506,-0.2375,-0.2462,-0.2475,-0.2504,-0.259,-0.2791,-0.3032,-0.3302,-0.3647,-0.4051,-0.4426,-0.4771,-0.5114,-0.4744,-0.4494,0.0,0.0,0.0,0.0,0.0,0.0,0.0,0.0,0.0,0.0,0.0,-0.3994,-0.4894,-0.4985,-0.4959,-0.4944,-0.4547,-0.4286,-0.4187,-0.3708,-0.3209,-0.2761,-0.215,-0.1617,-0.1169,-0.0972,-0.0763,-0.06,-0.0554,-0.0613,-0.0765,-0.0654,-0.0433,-0.0053,0.0052,0.005,0.0048,0.0046,0.0045,0.0045,-0.009,-0.0225,-0.045,-0.0494,-0.0494,-0.0494,-0.0719,-0.0942,-0.1079,-0.1212,-0.1299,-0.1389,-0.1569,-0.1705,-0.1842,-0.1865,-0.19,-0.1942,-0.2171,-0.2422,-1.8306,-1.7823,-1.7198,-1.6857,-1.6534,-1.5171,-1.4229,-1.3501,-1.3162,-1.291,-1.2725,-1.2224,-1.1927,-1.1778,-1.1377,-1.1124,-1.0972,-1.036,-1.0102,-1.0102,-0.9681,-0.942,-0.9263,-0.889,-0.8626,-0.8474,-0.7895,-0.7628,-0.758,-0.7031,-0.6701,-0.6437,-0.5967,-0.5604,-0.5389,-0.4449,-0.3794,-0.3331,-0.3096,-0.2909,-0.2773,-0.2789,-0.2752,-0.2755,-0.2765,-0.286,-0.3022,-0.3308,-0.3682,-0.4242,-0.4616,-0.5061,-0.5577,-0.5018,-0.4614,0.0,-0.3497,0.0,0.0,0.0,0.0,0.0,0.0,0.0,0.0,-0.3573,-0.4187,-0.5116,-0.4768,-0.4538,-0.4587,-0.413,-0.3848,-0.3782,-0.3473,-0.3097,-0.2813,-0.2316,-0.1932,-0.177,-0.1488,-0.1346,-0.1344,-0.1346,-0.1346,-0.1343,-0.1342,-0.1162,-0.07,-0.0573,-0.0503,-0.0484,-0.0509,-0.0494,-0.0494,-0.0494,-0.0629,-0.1034,-0.1078,-0.1124,-0.1078,-0.1167,-0.1254,-0.1213,-0.1346,-0.1479,-0.1479,-0.1794,-0.2064,-0.2199,-0.2357,-0.247,-0.2405,-0.2475,-0.2715,-1.902,-1.8645,-1.8098,-1.7492,-1.6897,-1.6486,-1.5556,-1.4257,-1.3583,-1.318,-1.291,-1.2666,-1.248,-1.2323,-1.1927,-1.1678,-1.1528,-1.0972,-1.0718,-1.0718,-1.0154,-0.9895,-0.9836,-0.9316,-0.9099,-0.9001,-0.8474,-0.8156,-0.8055,-0.7568,-0.7178,-0.6894,-0.6576,-0.6253,-0.5941,0.0,0.0,0.0,-0.3539,-0.3265,-0.3132,-0.3095,-0.3056,-0.2968,-0.3056,0.0,-0.3317,-0.3601,-0.3811,-0.3979,-0.4303,0.0,0.0,0.0,0.0,0.0,0.0,0.0,0.0,0.0,0.0,0.0,-0.254,-0.2702,-0.296,-0.4182,-0.5166,-0.5596,-0.537,-0.5162,-0.4994,-0.4342,-0.3959,-0.3968,-0.3453,-0.3081,-0.2896,-0.2597,-0.2277,-0.1997,-0.1896,-0.1792,-0.1736,-0.1679,-0.168,-0.168,-0.1734,-0.1675,-0.1552,-0.1291,-0.1092,-0.1002,-0.0942,-0.0947,-0.0945,-0.0987,-0.1031,-0.1166,-0.1211,-0.1256,-0.1256,-0.1433,-0.1524,-0.1526,-0.1658,-0.1794,-0.1975,-0.2111,-0.225,-0.2417,-0.2594,-0.269,-0.2677,-0.2822,-0.3028,-1.9772,0.0,-1.8867,-1.8285,0.0,-1.7209,-1.6565,-1.5658,-1.4588,-1.3828,-1.3286,-1.3045,-1.2861,-1.2686,-1.2332,-1.2076,-1.1877,-1.1469,-1.1217,-1.1065,-1.0718,-1.0454,-1.0213,-0.9784,-0.9524,-0.9361,-0.8844,-0.8593,-0.8487,-0.7955,-0.7617,-0.7442,-0.7123,-0.6848,-0.657,-0.6157,-0.5503,-0.4678,-0.4207,-0.3839,-0.3654,-0.3531,-0.3423,-0.3186,0.0,0.0,0.0,0.0,0.0,0.0,0.0,0.0,0.0,0.0,0.0,-0.4338,-0.3932,-0.3491,-0.3223,-0.3039,-0.2918,-0.2814,-0.3025,-0.3227,-0.3414,-0.4253,-0.4948,-0.5238,-0.5145,-0.4978,-0.4754,-0.4307,-0.3955,-0.3889,-0.3485,-0.3187,-0.3007,-0.2742,-0.2521,-0.2296,-0.2184,-0.2071,-0.2015,-0.2015,-0.2015,-0.2015,-0.2015,-0.2015,-0.1953,-0.1687,-0.1465,-0.1388,-0.1335,-0.1334,-0.1262,-0.1256,-0.1344,-0.1389,-0.1435,-0.1479,-0.1524,-0.1705,-0.1794,-0.1884,-0.1971,-0.2105,-0.2335,-0.2461,-0.259,-0.2694,-0.2954,-0.3129,-0.32,-0.3201,-0.3273,-2.0464,-1.9686,-1.9498,-1.9013,-1.8297,-1.7843,-1.7409,-1.6987,0.0,0.0,0.0,-1.345,-1.319,-1.3027,-1.2725,-1.248,-1.2224,-1.1927,-1.1678,-1.1418,-1.1226,-1.0922,-1.0616,-1.0257,-0.994,-0.9666,-0.9159,-0.8903,-0.8811,-0.8321,-0.8008,-0.7955,-0.7586,-0.7317,-0.7074,-0.6476,-0.5883,-0.5366,-0.4844,-0.4466,-0.4221,-0.4043,-0.3805,-0.3506,-0.3529,-0.3487,-0.3332,-0.3589,-0.3884,-0.4257,-0.45,-0.4832,-0.5206,-0.4849,-0.4603,-0.4553,-0.3996,-0.361,-0.3459,-0.3313,-0.3217,-0.3108,-0.3416,-0.3704,-0.3862,-0.4113,-0.4397,-0.4591,-0.4591,-0.4554,-0.4372,-0.4121,-0.3899,-0.3785,-0.3577,-0.3302,-0.3188,-0.2912,-0.2745,-0.2631,-0.2464,-0.235,-0.2406,-0.2406,-0.2352,-0.235,-0.2406,-0.235,-0.2286,-0.2014,-0.1773,-0.1672,-0.163,-0.1595,-0.1496,-0.1524,-0.1524,-0.1658,-0.1703,-0.1792,-0.1882,-0.2016,-0.2107,-0.2199,-0.2292,-0.2445,-0.2635,-0.2812,-0.2979,-0.2984,-0.3349,-0.367,-0.3673,-0.3635,-0.3681,-2.1188,-2.0855,-1.9951,-1.9436,-1.9174,-1.8623,-1.8037,-1.7249,-1.5847,-1.505,-1.4671,-1.4037,-1.3621,-1.3478,-1.3065,-1.2832,-1.2774,-1.2283,-1.2036,0.0,-1.1477,-1.1175,-1.1023,-1.0616,-1.0257,-0.9947,-0.9629,-0.9309,-0.9008,-0.8752,-0.8487,-0.8168,-0.7901,-0.7634,-0.7257,-0.6956,-0.6597,-0.6236,-0.5323,-0.4763,-0.4622,-0.4503,-0.4264,-0.4007,-0.4069,-0.4024,-0.3799,-0.402,-0.4133,-0.4222,-0.4365,-0.4455,-0.4523,-0.4469,-0.4313,-0.4125,-0.3984,-0.3847,-0.3591,-0.3544,-0.3558,-0.3503,-0.3574,-0.363,-0.3828,-0.4091,-0.4242,-0.4293,-0.4283,-0.4249,-0.4216,-0.3987,-0.3825,-0.3793,-0.358,-0.3416,-0.3357,-0.3188,-0.3021,-0.2965,-0.3019,-0.2965,-0.291,-0.2907,-0.291,-0.2963,-0.2907,-0.2963,-0.2839,-0.2501,-0.2097,-0.1965,-0.1899,-0.1834,-0.182,-0.1839,-0.1928,-0.193,-0.2061,-0.2146,-0.2192,-0.2326,-0.242,-0.2467,-0.2578,-0.2677,-0.2832,-0.3067,-0.3232,-0.3354,-0.3628,-0.3828,-0.4002,-0.4183,-0.4316,-2.1656,-2.1284,-2.0758,-2.0175,-1.9491,-1.8849,-1.8365,-1.799,-1.7014,-1.6132,-1.5426,-1.5049,-1.4715,-1.4345,-1.382,-1.3472,-1.3213,-1.2584,-1.2224,-1.2076,-1.1728,-1.1418,-1.1167,-1.0769,-1.0462,-1.0257,-0.9895,-0.9577,-0.9316,-0.9106,-0.885,-0.854,-0.8115,-0.7794,-0.7634,-0.7198,-0.6923,-0.6761,-0.5924,-0.5414,-0.5213,-0.5018,-0.4789,-0.4523,-0.4594,-0.4405,-0.407,-0.4353,-0.444,-0.4368,-0.4577,-0.4649,-0.4583,-0.4576,-0.447,-0.426,-0.411,-0.3932,-0.3824,-0.3663,-0.3585,-0.3585,-0.3585,-0.3638,-0.3691,-0.3858,-0.4021,-0.4079,-0.4079,-0.4079,-0.3965,-0.3852,-0.3799,-0.3691,-0.358,-0.3471,-0.3416,-0.3357,-0.3246,-0.3132,-0.3132,-0.3132,-0.3132,-0.3132,-0.3132,-0.3132,-0.3132,-0.3132,-0.3132,-0.287,-0.2645,-0.2557,-0.2467,-0.2376,-0.2286,-0.2269,-0.229,-0.2284,-0.2373,-0.2413,-0.2413,-0.2504,-0.2623,-0.272,-0.2874,-0.3019,-0.3172,-0.3385,-0.3607,-0.3794,-0.3996,-0.4237,-0.4429,-0.47,-0.4846,-2.2065,-2.1584,-2.1452,-2.0792,-1.9793,-1.9254,-1.8951,-1.8755,-1.8218,-1.7397,-1.6465,-1.6078,-1.562,-1.5112,-1.4624,-1.4114,-1.3706,-1.3159,-1.2704,-1.2452,-1.219,-1.1849,-1.1455,-1.114,-1.0799,-1.0478,-1.011,-0.9836,-0.9629,-0.9413,-0.9106,-0.8804,-0.8275,-0.8008,-0.7901,-0.7461,-0.7192,-0.7085,-0.6544,-0.6109,-0.5732,-0.5559,-0.534,-0.5066,-0.5066,-0.4842,-0.4395,-0.4629,-0.4743,-0.4684,-0.4791,-0.4849,-0.4739,-0.4743,-0.4688,-0.4519,-0.4242,-0.4079,-0.3965,-0.3805,-0.3638,-0.3635,-0.3638,-0.3585,-0.3585,-0.3691,-0.3799,-0.3913,-0.3913,-0.3858,-0.3799,-0.3744,-0.3688,-0.3641,-0.3585,-0.3585,-0.3471,-0.3416,-0.3416,-0.3246,-0.319,-0.3246,-0.319,-0.319,-0.3246,-0.3246,-0.319,-0.3246,-0.3246,-0.3246,-0.3204,-0.3128,-0.2975,-0.2818,-0.2764,-0.266,-0.2602,-0.2587,-0.261,-0.2615,-0.2668,-0.277,-0.2909,-0.3058,-0.3305,-0.3464,-0.3556,-0.3825,-0.4009,-0.4197,-0.4433,-0.4673,-0.4893,-0.5179,-0.5403,-2.2606,-2.2077,-2.1644,-2.1079,-2.0493,-2.027,-1.9915,-1.9523,-1.9162,-1.8649,-1.7836,-1.6573,-1.5858,-1.5506,-1.5112,-1.4778,-1.4495,-1.4149,-1.3845,-1.3497,-1.3275,-1.2761,-1.2053,-1.1878,-1.1333,-1.0629,-1.0486,-1.0244,-0.9866,-0.9621,-0.9316,-0.8804,-0.848,-0.8215,-0.7955,-0.7723,-0.7515,-0.7257,-0.709,-0.6707,-0.6173,-0.6005,-0.5782,-0.5513,-0.5508,-0.5285,-0.4882,-0.4952,-0.5132,-0.5187,-0.5014,-0.4901,-0.4901,-0.4901,-0.4791,-0.4519,-0.446,-0.4353,-0.4021,-0.3852,-0.3796,-0.3799,-0.3691,-0.3585,-0.3585,-0.3641,-0.3638,-0.3638,-0.3638,-0.3638,-0.3638,-0.3641,-0.3638,-0.3641,-0.3585,-0.3585,-0.3585,-0.3585,-0.3585,-0.3585,-0.353,-0.3585,-0.353,-0.353,-0.353,-0.353,-0.3471,-0.3471,-0.3471,-0.3527,-0.3524,-0.349,-0.3243,-0.3029,-0.2926,-0.2868,-0.285,-0.2882,-0.2895,-0.2941,-0.3135,-0.3219,-0.3301,-0.3532,-0.384,-0.3962,-0.4131,-0.4338,-0.4594,-0.4689,-0.4882,-0.5124,-0.5454,-0.5677,-0.5782,-2.3135,-2.2642,-2.2426,-2.1861,-2.1103,-2.0684,-2.0363,-2.0172,-1.9863,-1.9562,-1.9227,-1.8351,-1.749,-1.6559,-1.5849,-1.5444,-1.5219,-1.4483,-1.416,-1.3926,-1.3513,-1.315,-1.278,-1.2384,-1.1964,-1.1597,-1.1247,-1.0825,-1.0461,-0.9926,-0.9465,-0.9256,-0.8896,-0.8639,-0.8427,-0.8215,-0.7949,-0.7634,-0.7515,-0.7246,-0.6879,-0.6549,-0.6327,-0.6059,-0.6005,-0.5782,-0.5496,-0.5508,-0.5513,-0.5576,-0.5517,-0.5344,-0.5128,-0.5128,-0.5014,-0.4736,-0.457,-0.4408,-0.4135,-0.4021,-0.3907,-0.3907,-0.3802,-0.3688,-0.3744,-0.3635,-0.3585,-0.3585,-0.3585,-0.3585,-0.3585,-0.3585,-0.3585,-0.3585,-0.3585,-0.3585,-0.3585,-0.3585,-0.3585,-0.3585,-0.3585,-0.3585,-0.3585,-0.3585,-0.3585,-0.3585,-0.3585,-0.3641,-0.3585,-0.3585,-0.3638,-0.3685,-0.3586,-0.3404,-0.3245,-0.3179,-0.3213,-0.324,-0.3308,-0.345,-0.3517,-0.3587,-0.3732,-0.3926,-0.4209,-0.4449,-0.4574,-0.4729,-0.4963,-0.5128,-0.5352,-0.5567,-0.5786,-0.595,-0.6,-2.3664,-2.322,-2.3051,-2.2546,-2.1801,-2.1272,-2.0959,-2.078,-2.0452,-2.0252,-2.0053,-1.9584,-1.8845,-1.7831,-1.6914,-1.6258,-1.5835,-1.5154,-1.4666,-1.4512,-1.4061,-1.3728,-1.347,-1.3055,-1.2659,-1.2363,-1.1898,-1.1453,-1.1009,-1.0348,-0.9918,-0.9636,-0.9316,-0.9061,-0.8903,-0.8646,-0.8374,-0.8109,-0.7889,-0.7681,-0.7419,-0.7085,-0.6815,-0.6544,-0.6391,-0.6218,-0.5937,-0.59,-0.59,-0.59,-0.585,-0.5686,-0.5462,-0.5411,-0.5293,-0.5014,-0.4791,-0.4574,-0.4411,-0.4245,-0.4187,-0.4132,-0.4021,-0.3907,-0.3852,-0.3747,-0.3749,-0.3749,-0.3694,-0.3635,-0.3585,-0.3585,-0.3585,-0.3585,-0.3585,-0.3585,-0.3585,-0.3585,-0.3585,-0.3585,-0.3585,-0.3585,-0.3585,-0.3638,-0.3691,-0.3638,-0.3694,-0.3694,-0.3694,-0.3694,-0.3747,-0.3855,-0.391,-0.3871,-0.3619,-0.3505,-0.3538,-0.3613,-0.3701,-0.3764,-0.3868,-0.403,-0.4179,-0.4421,-0.4605,-0.4805,-0.5,-0.5222,-0.5348,-0.5622,-0.5791,-0.59,-0.6005,-0.6059,-0.6114,-2.4206,-2.3701,-2.3195,-2.2967,-2.2859,-2.2342,-2.1837,-2.1416,-2.108,-2.0605,-2.0159,-1.97,-1.9395,-1.9222,-1.8272,-1.7384,-1.6509,-1.6332,-1.5938,-1.538,-1.5274,-1.4783,-1.393,-1.3855,-1.3316,-1.2556,-1.2406,-1.1919,-1.111,-1.0939,-1.0561,-0.9866,-0.9688,-0.9465,-0.9211,-0.8956,-0.8692,-0.8521,-0.8156,-0.7901,-0.7842,-0.7574,-0.7252,-0.6933,-0.6761,-0.6539,-0.6209,-0.6173,-0.6178,-0.6173,-0.5959,-0.5795,-0.5791,-0.5736,-0.5631,-0.5297,-0.5128,-0.5014,-0.4904,-0.4743,-0.4632,-0.4463,-0.4301,-0.4135,-0.4079,-0.3968,-0.3968,-0.3965,-0.3855,-0.3744,-0.3638,-0.3641,-0.3585,-0.3585,-0.3585,-0.3585,-0.3585,-0.3638,-0.3585,-0.3641,-0.3638,-0.3641,-0.3638,-0.3744,-0.3796,-0.3796,-0.391,-0.3965,-0.3968,-0.3913,-0.3965,-0.4079,-0.4249,-0.4359,-0.4055,-0.3955,-0.3931,-0.4013,-0.4068,-0.4036,-0.4271,-0.4509,-0.4698,-0.4927,-0.5116,-0.5303,-0.55,-0.5681,-0.5791,-0.59,-0.595,-0.6059,-0.6168,-0.6173,-0.6228,-2.4723,-2.4206,-2.3701,-2.3484,-2.346,-2.328,-2.2907,-2.2414,-2.2151,-2.1729,-2.112,-2.0792,-2.0423,-1.986,-1.9448,-1.8742,-1.7911,-1.7473,-1.7007,-1.6445,-1.6069,-1.5428,-1.4781,-1.4443,-1.4028,-1.3459,-1.3058,-1.2513,-1.1801,-1.1245,-1.0846,-1.0561,-1.009,-0.9725,-0.9465,-0.9368,-0.9152,-0.8844,-0.8586,-0.8427,-0.8321,-0.7949,-0.7687,-0.7526,-0.7144,-0.6923,-0.6771,-0.6436,-0.6218,-0.6173,-0.6064,-0.6009,-0.5955,-0.585,-0.574,-0.5631,-0.5513,-0.5403,-0.5348,-0.5073,-0.4908,-0.4853,-0.4632,-0.4525,-0.4411,-0.4245,-0.4135,-0.4079,-0.4021,-0.391,-0.3858,-0.3694,-0.3585,-0.3585,-0.3585,-0.3585,-0.3641,-0.3691,-0.3744,-0.3744,-0.3802,-0.3858,-0.3858,-0.391,-0.3907,-0.391,-0.4021,-0.4135,-0.4135,-0.4187,-0.4298,-0.4411,-0.4525,-0.4636,-0.4625,-0.4484,-0.444,-0.4483,-0.4506,-0.4649,-0.48,-0.4962,-0.5136,-0.5295,-0.5508,-0.5626,-0.5786,-0.59,-0.6064,-0.6119,-0.6114,-0.6168,-0.6332,-0.6332,-0.6386,-2.5107,-2.4723,-2.423,-2.4013,-2.4001,-2.3833,-2.3568,-2.3244,-2.3025,-2.2628,-2.2192,-2.1812,-2.1331,-2.0757,-2.0398,-1.9912,-1.9258,-1.8433,-1.7798,-1.7334,-1.6769,-1.6166,-1.5525,-1.504,-1.4598,-1.4163,-1.3635,-1.307,-1.2369,-1.1758,-1.1357,-1.1016,-1.0522,-1.0105,-0.9859,-0.9725,-0.9472,-0.9211,-0.9008,-0.885,-0.8633,-0.8321,-0.8062,-0.7848,-0.7515,-0.7192,-0.7101,-0.6598,-0.6268,-0.6228,-0.6173,-0.6173,-0.6059,-0.5955,-0.5905,-0.5845,-0.5786,-0.5677,-0.5622,-0.5458,-0.5293,-0.5179,-0.5073,-0.4967,-0.4853,-0.4632,-0.4522,-0.4408,-0.4301,-0.4245,-0.419,-0.4027,-0.386,-0.3749,-0.3747,-0.3749,-0.3749,-0.3799,-0.3907,-0.3965,-0.4021,-0.4079,-0.4135,-0.419,-0.4245,-0.4242,-0.4356,-0.4408,-0.4467,-0.4577,-0.4739,-0.4798,-0.4908,-0.5018,-0.512,-0.505,-0.4933,-0.4925,-0.4973,-0.5113,-0.5238,-0.5352,-0.5517,-0.5681,-0.5786,-0.5896,-0.6005,-0.6119,-0.6228,-0.6282,-0.6277,-0.6332,-0.6436,-0.6485,-0.6598,-2.5312,-2.5204,-2.4747,-2.453,-2.447,-2.4085,-2.3821,-2.3785,-2.3628,-2.3356,-2.2968,-2.2453,-2.2089,-2.1735,-2.124,-2.0797,-2.0392,-1.9299,-1.836,-1.7853,-1.7595,-1.698,-1.6084,-1.577,-1.5186,-1.4483,-1.401,-1.345,-1.2814,-1.2464,-1.1979,-1.1301,-1.098,-1.0646,-1.0311,-1.0023,-0.9769,-0.9606,-0.9389,-0.9113,-0.8804,-0.8633,-0.8368,-0.8002,-0.7783,-0.7515,-0.7144,-0.681,-0.6539,-0.6209,-0.6223,-0.6178,-0.6173,-0.6178,-0.6119,-0.6005,-0.6,-0.5955,-0.5845,-0.5795,-0.5622,-0.5449,-0.5454,-0.5403,-0.5183,-0.5124,-0.5014,-0.4901,-0.4794,-0.4688,-0.4688,-0.4574,-0.4356,-0.4079,-0.4024,-0.4024,-0.4021,-0.4021,-0.4079,-0.419,-0.4245,-0.4301,-0.4463,-0.4574,-0.4688,-0.4688,-0.4794,-0.4901,-0.4901,-0.5014,-0.5128,-0.5183,-0.5293,-0.5458,-0.5567,-0.5677,-0.5517,-0.5407,-0.5449,-0.5513,-0.5622,-0.5736,-0.5791,-0.59,-0.595,-0.6005,-0.6168,-0.6277,-0.6332,-0.6386,-0.6386,-0.649,-0.6652,-0.6756,-0.6815,-2.5636,-2.5312,-2.5143,-2.5071,-2.5047,-2.4879,-2.4638,-2.429,-2.421,-2.3815,-2.3226,-2.2983,-2.2712,-2.2421,-2.2059,-2.1742,-2.137,-2.062,-1.9705,-1.8659,-1.8248,-1.7622,-1.6832,-1.6389,-1.567,-1.4655,-1.4065,-1.3657,-1.3254,-1.2747,-1.2357,-1.2045,-1.1567,-1.1178,-1.0981,-1.0694,-1.0402,-1.0143,-0.9731,-0.9361,-0.9211,-0.8903,-0.8593,-0.8368,-0.8049,-0.7681,-0.7359,-0.6977,-0.6593,-0.6209,-0.6273,-0.6277,-0.6228,-0.6173,-0.6173,-0.6119,-0.6119,-0.6119,-0.6064,-0.6005,-0.5891,-0.5727,-0.5732,-0.574,-0.5631,-0.5525,-0.547,-0.5407,-0.5234,-0.5066,-0.5014,-0.4959,-0.4754,-0.4408,-0.4353,-0.4353,-0.4356,-0.4408,-0.4519,-0.4629,-0.468,-0.4736,-0.4904,-0.4963,-0.5018,-0.5124,-0.523,-0.534,-0.5399,-0.5458,-0.5572,-0.5626,-0.5736,-0.5732,-0.5791,-0.5845,-0.5791,-0.5736,-0.5736,-0.5786,-0.5896,-0.5955,-0.6009,-0.6059,-0.6114,-0.6168,-0.6277,-0.6386,-0.644,-0.6544,-0.6598,-0.6761,-0.6918,-0.7031,-0.7085,-2.5913,-2.5588,-2.5396,-2.5312,-2.5312,-2.5312,-2.5131,-2.4843,-2.4807,-2.442,-2.3871,-2.3567,-2.3292,-2.2914,-2.2628,-2.2309,-2.1969,-2.1666,-2.0841,-1.9673,-1.8952,-1.8274,-1.742,-1.665,-1.5858,-1.4862,-1.4338,-1.3961,-1.3563,-1.2998,-1.2637,-1.2406,-1.197,-1.1549,-1.139,-1.1186,-1.0958,-1.0692,-1.0361,-1.0034,-0.9818,-0.9445,-0.918,-0.8954,-0.8576,-0.8072,-0.7672,-0.7399,-0.6986,-0.6519,-0.6381,-0.6282,-0.6232,-0.6173,-0.6173,-0.6173,-0.6173,-0.6173,-0.6173,-0.6119,-0.6059,-0.6009,-0.6023,-0.6068,-0.603,-0.5944,-0.5945,-0.5888,-0.5783,-0.5653,-0.5612,-0.5608,-0.5409,-0.5162,-0.4823,-0.4688,-0.4739,-0.4849,-0.5011,-0.512,-0.5175,-0.5234,-0.5348,-0.5352,-0.5403,-0.5508,-0.5618,-0.5673,-0.5727,-0.5786,-0.5841,-0.59,-0.5955,-0.5955,-0.5959,-0.6009,-0.6059,-0.6009,-0.6009,-0.6009,-0.6064,-0.6064,-0.6119,-0.6277,-0.6327,-0.644,-0.6549,-0.6603,-0.6663,-0.6766,-0.6869,-0.7031,-0.7192,-0.7295,-0.7408,-2.6117,-2.6033,-2.5528,-2.5312,-2.5312,-2.5312,-2.5276,-2.5288,-2.5276,-2.504,-2.4673,-2.4214,-2.3828,-2.3444,-2.3087,-2.2788,-2.2434,-2.2228,-2.1742,-2.0817,-1.986,-1.8944,-1.8056,-1.6883,-1.6008,-1.525,-1.4791,-1.4365,-1.3883,-1.3336,-1.2885,-1.2537,-1.2236,-1.1892,-1.1686,-1.1551,-1.1406,-1.1293,-1.1133,-1.0861,-1.0514,-1.0251,-0.9914,-0.9626,-0.9202,-0.8661,-0.8108,-0.8002,-0.7616,-0.6814,-0.6478,-0.6373,-0.627,-0.6206,-0.6253,-0.6298,-0.6265,-0.6253,-0.6234,-0.6281,-0.6267,-0.6235,-0.6355,-0.6492,-0.64,-0.6447,-0.647,-0.6364,-0.6373,-0.6331,-0.6327,-0.6318,-0.6248,-0.6045,-0.5402,-0.5081,-0.5124,-0.523,-0.5395,-0.5508,-0.5618,-0.5677,-0.5736,-0.574,-0.5791,-0.5795,-0.5845,-0.5841,-0.5891,-0.5946,-0.6,-0.6059,-0.6064,-0.6064,-0.6069,-0.6069,-0.6114,-0.6223,-0.6173,-0.6223,-0.6223,-0.6282,-0.6277,-0.644,-0.6598,-0.6707,-0.682,-0.6874,-0.6928,-0.709,-0.7198,-0.7365,-0.7467,-0.7622,-0.7783,-2.6602,-2.6045,-2.5528,-2.5312,-2.5312,-2.5312,-2.5312,-2.5312,-2.5312,-2.5111,-2.4814,-2.4648,-2.4329,-2.3982,-2.3833,-2.3603,-2.3176,-2.2804,-2.2394,-2.1696,-2.0543,-1.9412,-1.8302,-1.7214,-1.6478,-1.5918,-1.5321,-1.4762,-1.4231,-1.3805,-1.3364,-1.2857,-1.2635,-1.2482,-1.2326,-1.1996,-1.1826,-1.1604,-1.1272,-1.1016,-1.0788,-1.0502,-1.0193,-0.9853,-0.9525,-0.9116,-0.8557,-0.8416,-0.8016,-0.7226,-0.6973,-0.6808,-0.6659,-0.661,-0.6615,-0.6663,-0.6615,-0.6618,-0.6618,-0.6613,-0.656,-0.651,-0.666,-0.6771,-0.6899,-0.6823,-0.6736,-0.6671,-0.6671,-0.6685,-0.6556,-0.6556,-0.646,-0.627,-0.5848,-0.5542,-0.5584,-0.5626,-0.5677,-0.5732,-0.5736,-0.5841,-0.5896,-0.5955,-0.6005,-0.6064,-0.6064,-0.6119,-0.6114,-0.6109,-0.6168,-0.6173,-0.6173,-0.6173,-0.6173,-0.6173,-0.6228,-0.6332,-0.6327,-0.6381,-0.6436,-0.6495,-0.6544,-0.6652,-0.682,-0.6928,-0.7036,-0.709,-0.7252,-0.7413,-0.7515,-0.7676,-0.7788,-0.7949,-0.8156,-2.7073,-2.6406,-2.5865,-2.5504,-2.5324,-2.5312,-2.5312,-2.5312,-2.5312,-2.5123,-2.4861,-2.4801,-2.4574,-2.42,-2.4177,-2.4039,-2.3704,-2.3383,-2.2887,-2.2221,-2.0881,-1.9578,-1.8424,-1.7581,-1.7016,-1.6485,-1.58,-1.5225,-1.4687,-1.4187,-1.366,-1.3273,-1.2932,-1.2752,-1.2581,-1.2377,-1.2182,-1.2098,-1.1799,-1.1529,-1.1345,-1.1056,-1.0773,-1.0407,-1.0114,-0.9685,-0.9132,-0.8728,-0.8154,-0.756,-0.7315,-0.7161,-0.7037,-0.6978,-0.6928,-0.691,-0.6933,-0.6911,-0.6791,-0.6791,-0.6791,-0.6745,-0.6852,-0.704,-0.7135,-0.7111,-0.7106,-0.7121,-0.7106,-0.7044,-0.6959,-0.6908,-0.68,-0.6702,-0.6388,-0.6119,-0.6043,-0.6034,-0.6041,-0.5991,-0.5955,-0.5955,-0.6059,-0.6119,-0.6168,-0.6223,-0.6277,-0.6332,-0.6386,-0.6386,-0.6332,-0.6337,-0.6332,-0.6386,-0.6386,-0.6386,-0.644,-0.649,-0.6652,-0.6652,-0.6652,-0.6761,-0.681,-0.6918,-0.7085,-0.7198,-0.7306,-0.7467,-0.7628,-0.7788,-0.7889,-0.8049,-0.8156,-0.8268,-0.8533,-2.7545,-2.6812,-2.6322,-2.5793,-2.5348,-2.5312,-2.5312,-2.5312,-2.5312,-2.5111,-2.4849,-2.4801,-2.4574,-2.4273,-2.4189,-2.4177,-2.4166,-2.3745,-2.3234,-2.2402,-2.1204,-1.9858,-1.8851,-1.794,-1.7369,-1.6939,-1.6242,-1.5664,-1.5147,-1.4466,-1.3966,-1.3578,-1.3173,-1.2833,-1.2709,-1.2575,-1.2621,-1.252,-1.2281,-1.2119,-1.1936,-1.169,-1.1367,-1.1064,-1.0635,-1.014,-0.9515,-0.8942,-0.8417,-0.7788,-0.7571,-0.7486,-0.7471,-0.729,-0.7234,-0.7249,-0.7279,-0.7162,-0.6997,-0.7035,-0.6946,-0.6993,-0.7178,-0.725,-0.7278,-0.731,-0.7455,-0.7445,-0.7517,-0.7404,-0.738,-0.7335,-0.7269,-0.7163,-0.688,-0.6708,-0.6483,-0.6524,-0.6492,-0.6322,-0.6349,-0.6265,-0.6261,-0.6242,-0.6282,-0.6436,-0.6436,-0.649,-0.6544,-0.6544,-0.6549,-0.6495,-0.649,-0.6593,-0.6598,-0.6544,-0.6652,-0.6761,-0.6977,-0.7085,-0.7025,-0.7079,-0.7128,-0.7241,-0.7354,-0.7574,-0.7729,-0.7836,-0.8055,-0.8162,-0.8315,-0.8468,-0.8633,-0.8685,-0.885,-2.7709,-2.6887,-2.6334,-2.5793,-2.536,-2.5312,-2.5312,-2.5312,-2.5312,-2.517,-2.5052,-2.4861,-2.4646,-2.4418,-2.4261,-2.4189,-2.4189,-2.3875,-2.3324,-2.2352,-2.1768,-2.078,-1.9707,-1.8458,-1.7638,-1.7192,-1.6564,-1.5996,-1.5601,-1.5091,-1.4605,-1.3983,-1.3597,-1.3282,-1.3012,-1.2789,-1.2629,-1.256,-1.2428,-1.2305,-1.2182,-1.1934,-1.1685,-1.1435,-1.0877,-1.0231,-0.9646,-0.939,-0.9082,-0.8695,-0.8265,-0.8033,-0.7917,-0.7805,-0.78,-0.7731,-0.7746,-0.7761,-0.7703,-0.7678,-0.7649,-0.7496,-0.7521,-0.7529,-0.7459,-0.7483,-0.7521,-0.7526,-0.7526,-0.7526,-0.7512,-0.7558,-0.7579,-0.755,-0.758,-0.754,-0.7424,-0.7115,-0.6993,-0.7026,-0.6902,-0.6813,-0.6803,-0.6658,-0.6663,-0.6668,-0.6657,-0.6652,-0.6707,-0.6761,-0.6766,-0.6712,-0.6712,-0.6815,-0.6815,-0.6815,-0.6923,-0.7085,-0.73,-0.7467,-0.7408,-0.7402,-0.7509,-0.7616,-0.7735,-0.7889,-0.8103,-0.8256,-0.8421,-0.858,-0.8685,-0.8844,-0.8949,-0.9061,-0.9166,-2.7797,-2.6887,-2.6334,-2.5793,-2.536,-2.5312,-2.5312,-2.5312,-2.5312,-2.5241,-2.5052,-2.4861,-2.4718,-2.449,-2.4273,-2.4189,-2.4116,-2.3897,-2.3396,-2.2586,-2.1964,-2.1272,-2.043,-1.917,-1.8245,-1.7703,-1.6763,-1.6209,-1.5903,-1.5505,-1.4951,-1.4505,-1.4081,-1.3721,-1.3477,-1.3044,-1.2838,-1.2774,-1.2569,-1.2436,-1.2243,-1.2058,-1.1747,-1.1435,-1.0933,-1.0364,-1.0104,-0.9786,-0.9536,-0.9274,-0.8882,-0.863,-0.8376,-0.8317,-0.8182,-0.8112,-0.8047,-0.7982,-0.7977,-0.7982,-0.7912,-0.7857,-0.7862,-0.7792,-0.7787,-0.7722,-0.7717,-0.7722,-0.7722,-0.7722,-0.7722,-0.7792,-0.7862,-0.7862,-0.7987,-0.806,-0.7932,-0.7551,-0.7305,-0.7405,-0.7262,-0.7163,-0.7145,-0.7084,-0.6997,-0.7048,-0.7072,-0.7112,-0.7041,-0.7041,-0.7036,-0.7041,-0.6987,-0.7036,-0.7036,-0.7085,-0.7246,-0.7408,-0.7568,-0.7729,-0.7836,-0.7889,-0.7889,-0.8002,-0.8109,-0.8321,-0.8533,-0.8685,-0.8784,-0.889,-0.9001,-0.9159,-0.9263,-0.9361,-0.9524,-2.7663,-2.6767,-2.6286,-2.5793,-2.536,-2.5312,-2.5312,-2.5312,-2.5312,-2.5253,-2.5123,-2.4921,-2.4729,-2.4562,-2.4273,-2.42,-2.4116,-2.3824,-2.3379,-2.304,-2.2241,-2.1597,-2.0882,-1.9919,-1.9035,-1.8228,-1.7035,-1.6448,-1.6114,-1.5696,-1.5291,-1.4959,-1.4454,-1.4097,-1.3874,-1.3485,-1.3163,-1.3124,-1.2861,-1.2632,-1.2453,-1.2235,-1.1872,-1.1435,-1.0996,-1.0688,-1.0498,-1.0244,-0.9862,-0.9652,-0.946,-0.928,-0.8964,-0.8705,-0.8506,-0.8366,-0.8306,-0.8312,-0.8247,-0.8182,-0.8117,-0.8117,-0.8052,-0.8052,-0.7987,-0.7982,-0.7917,-0.7982,-0.7917,-0.7917,-0.7982,-0.7982,-0.8052,-0.8122,-0.8192,-0.8317,-0.8275,-0.8069,-0.7892,-0.7751,-0.7793,-0.78,-0.7703,-0.7618,-0.7523,-0.7433,-0.7515,-0.7502,-0.7439,-0.7422,-0.7478,-0.7527,-0.7516,-0.7483,-0.7516,-0.7658,-0.7749,-0.7836,-0.7985,-0.8152,-0.8246,-0.8162,-0.8215,-0.8374,-0.854,-0.8752,-0.885,-0.9001,-0.9106,-0.9211,-0.9316,-0.942,-0.9517,-0.9614,-0.9784,-2.7102,-2.6226,-2.6142,-2.5793,-2.536,-2.5312,-2.5348,-2.5312,-2.5324,-2.5312,-2.5241,-2.4921,-2.479,-2.4646,-2.4345,-2.4189,-2.4116,-2.3824,-2.3519,-2.3298,-2.2626,-2.2018,-2.1453,-2.0547,-1.9756,-1.8854,-1.767,-1.6813,-1.6298,-1.593,-1.5564,-1.5312,-1.4844,-1.4525,-1.4215,-1.3838,-1.3505,-1.3457,-1.3179,-1.3004,-1.2838,-1.2445,-1.2058,-1.156,-1.1247,-1.1059,-1.0807,-1.0624,-1.0371,-1.0174,-0.9983,-0.9792,-0.9542,-0.9215,-0.8958,-0.8823,-0.8823,-0.8765,-0.8759,-0.8705,-0.8576,-0.8447,-0.8312,-0.8112,-0.8047,-0.8047,-0.8112,-0.8117,-0.8052,-0.8052,-0.7982,-0.8177,-0.8247,-0.8382,-0.8576,-0.8705,-0.8753,-0.8768,-0.8654,-0.8548,-0.8499,-0.846,-0.8304,-0.8243,-0.8181,-0.8086,-0.8159,-0.816,-0.8086,-0.8075,-0.8138,-0.812,-0.816,-0.8075,-0.7987,-0.8237,-0.8423,-0.8402,-0.8473,-0.8689,-0.871,-0.8459,-0.8487,-0.8825,-0.895,-0.9061,-0.9211,-0.9263,-0.9368,-0.9517,-0.9629,-0.974,-0.9836,-0.9888,-0.9985,-2.6724,-2.6093,-2.6093,-2.5961,-2.5745,-2.5721,-2.5721,-2.5673,-2.5432,-2.5312,-2.5241,-2.5052,-2.4849,-2.4718,-2.449,-2.4273,-2.4116,-2.3751,-2.3593,-2.3446,-2.2777,-2.2187,-2.1807,-2.0933,-2.0127,-1.9279,-1.8284,-1.7405,-1.667,-1.6086,-1.584,-1.5613,-1.5163,-1.4887,-1.4657,-1.4183,-1.3878,-1.3783,-1.3529,-1.3259,-1.3084,-1.2555,-1.2088,-1.1747,-1.156,-1.1303,-1.1122,-1.0933,-1.0744,-1.0618,-1.0491,-1.0301,-1.0047,-0.9856,-0.9524,-0.9332,-0.921,-0.9145,-0.9145,-0.9022,-0.8835,-0.8765,-0.863,-0.8565,-0.8565,-0.8565,-0.8506,-0.8501,-0.8506,-0.8501,-0.8565,-0.856,-0.863,-0.8765,-0.8894,-0.8958,-0.9145,-0.921,-0.928,-0.9221,-0.9041,-0.888,-0.8954,-0.8861,-0.879,-0.8829,-0.883,-0.8759,-0.8681,-0.8753,-0.8729,-0.883,-0.883,-0.8851,-0.8755,-0.889,-0.9041,-0.9004,-0.909,-0.9255,-0.9384,-0.9248,-0.9289,-0.9498,-0.9574,-0.9631,-0.9472,-0.9524,-0.9681,-0.9792,-0.9866,-0.9985,-1.0066,-1.0177,-1.0293,-2.6493,-2.6105,-2.6226,-2.6262,-2.625,-2.6129,-2.6081,-2.5997,-2.5528,-2.5312,-2.5312,-2.5182,-2.4992,-2.479,-2.4574,-2.4345,-2.42,-2.374,-2.3593,-2.3446,-2.2777,-2.2187,-2.1721,-2.1145,-2.0458,-1.9544,-1.8984,-1.8273,-1.7178,-1.6419,-1.6022,-1.5828,-1.5493,-1.5204,-1.5035,-1.455,-1.4305,-1.4109,-1.387,-1.3529,-1.3122,-1.2664,-1.2282,-1.2002,-1.1784,-1.1622,-1.1435,-1.131,-1.1122,-1.0996,-1.087,-1.0751,-1.0491,-1.0498,-1.0238,-0.9843,-0.9588,-0.9466,-0.9402,-0.9274,-0.9215,-0.9215,-0.9145,-0.9081,-0.9081,-0.9081,-0.9081,-0.9081,-0.9081,-0.9081,-0.9011,-0.9081,-0.9145,-0.9151,-0.9215,-0.921,-0.9466,-0.9594,-0.9722,-0.9664,-0.9408,-0.9384,-0.9464,-0.9452,-0.9363,-0.9395,-0.9395,-0.9426,-0.9352,-0.9357,-0.9417,-0.9494,-0.9582,-0.9656,-0.963,-0.9649,-0.9717,-0.9683,-0.9798,-0.996,-1.0123,-1.0215,-1.0226,-1.0207,-1.0324,-1.0367,-1.0052,-0.9829,-0.9971,-1.0045,-1.0098,-1.0286,-1.0615,-1.0731,-1.0794,-2.6493,-2.6142,-2.6635,-2.6839,-2.6743,-2.6322,-2.6105,-2.6033,-2.554,-2.5312,-2.5312,-2.517,-2.4992,-2.479,-2.4418,-2.4261,-2.4043,-2.3813,-2.3593,-2.3446,-2.2777,-2.2176,-2.1797,-2.1359,-2.0702,-1.983,-1.9352,-1.8495,-1.7561,-1.6884,-1.6422,-1.6199,-1.5745,-1.5355,-1.5188,-1.483,-1.4736,-1.4506,-1.4204,-1.3862,-1.3537,-1.3066,-1.2788,-1.2567,-1.2287,-1.2032,-1.1859,-1.1725,-1.1549,-1.1486,-1.1199,-1.1059,-1.0996,-1.0996,-1.0996,-1.0744,-1.0364,-0.9926,-0.9926,-0.9728,-0.9664,-0.967,-0.953,-0.946,-0.946,-0.946,-0.946,-0.9454,-0.946,-0.946,-0.946,-0.946,-0.9524,-0.96,-0.9664,-0.9728,-0.9926,-0.9983,-1.011,-1.0238,-1.011,-1.0047,-1.0021,-0.997,-0.9901,-0.9945,-0.9983,-0.9995,-1.0013,-0.9985,-1.0021,-1.0104,-1.02,-1.0275,-1.0409,-1.0428,-1.0464,-1.0413,-1.0515,-1.0675,-1.0785,-1.0923,-1.0781,-1.0805,-1.0997,-1.0923,-1.0554,-1.0364,-1.0355,-1.0455,-1.0624,-1.0942,-1.1288,-1.1352,-1.1217,-2.7286,-2.6747,-2.7152,-2.7136,-2.6911,-2.6659,-2.6382,-2.6033,-2.554,-2.5312,-2.5312,-2.5241,-2.5052,-2.479,-2.4345,-2.4189,-2.4127,-2.3751,-2.3593,-2.3446,-2.2777,-2.2252,-2.1883,-2.1436,-2.0819,-2.0207,-1.9703,-1.9141,-1.8181,-1.7415,-1.6815,-1.6345,-1.5965,-1.5627,-1.5229,-1.4999,-1.4784,-1.4538,-1.4299,-1.4045,-1.3839,-1.3502,-1.3173,-1.3123,-1.2894,-1.2615,-1.236,-1.2225,-1.2015,-1.1843,-1.1536,-1.1498,-1.1373,-1.131,-1.1178,-1.1059,-1.0978,-1.0722,-1.0461,-1.0263,-1.0155,-1.0066,-0.9926,-0.9779,-0.9779,-0.9804,-0.9804,-0.9779,-0.9786,-0.9798,-0.9874,-0.9913,-0.9983,-1.006,-1.02,-1.0302,-1.043,-1.0441,-1.0498,-1.0688,-1.0814,-1.0764,-1.0638,-1.0555,-1.0548,-1.0541,-1.0591,-1.0564,-1.0613,-1.0656,-1.0718,-1.0739,-1.0843,-1.0885,-1.1022,-1.1164,-1.1265,-1.1269,-1.1398,-1.1511,-1.1511,-1.1518,-1.1432,-1.1368,-1.1426,-1.1275,-1.1012,-1.0919,-1.0841,-1.1021,-1.117,-1.1399,-1.1606,-1.1511,-1.1471,-2.813,-2.7648,-2.7818,-2.7621,-2.7128,-2.6995,-2.661,-2.6057,-2.5528,-2.5312,-2.5241,-2.5182,-2.4992,-2.479,-2.4418,-2.4189,-2.42,-2.374,-2.3593,-2.3298,-2.2852,-2.2327,-2.1959,-2.1512,-2.0896,-2.0264,-1.9991,-1.9395,-1.8628,-1.796,-1.7308,-1.6581,-1.6297,-1.5769,-1.5295,-1.5062,-1.4856,-1.4609,-1.4403,-1.4275,-1.4188,-1.3902,-1.37,-1.3577,-1.3463,-1.3266,-1.2937,-1.2836,-1.2603,-1.2493,-1.2228,-1.2153,-1.2074,-1.1968,-1.1889,-1.1854,-1.1876,-1.1818,-1.143,-1.1115,-1.0782,-1.0646,-1.0581,-1.0653,-1.0568,-1.0516,-1.0523,-1.0647,-1.064,-1.0562,-1.0523,-1.0679,-1.0783,-1.0868,-1.0855,-1.0924,-1.1026,-1.1074,-1.1175,-1.1262,-1.1432,-1.1459,-1.1311,-1.1199,-1.1185,-1.1066,-1.1129,-1.1185,-1.1185,-1.1185,-1.1185,-1.1185,-1.1365,-1.1413,-1.1531,-1.171,-1.1926,-1.2003,-1.212,-1.2097,-1.2012,-1.2043,-1.2048,-1.1962,-1.1921,-1.1976,-1.1919,-1.1621,-1.1406,-1.1526,-1.1589,-1.1717,-1.1773,-1.171,-1.1757,-2.8888,-2.8694,-2.8469,-2.8089,-2.756,-2.714,-2.6598,-2.5997,-2.5528,-2.5324,-2.5241,-2.4992,-2.4861,-2.4718,-2.4418,-2.4189,-2.42,-2.3824,-2.3666,-2.3372,-2.2852,-2.2327,-2.1959,-2.1502,-2.0896,-2.0333,-2.002,-1.9478,-1.8834,-1.8576,-1.7752,-1.6944,-1.661,-1.5892,-1.5408,-1.5103,-1.4927,-1.4633,-1.4474,-1.4474,-1.4466,-1.4268,-1.4085,-1.4005,-1.3799,-1.3541,-1.3522,-1.3416,-1.34,-1.3341,-1.306,-1.2867,-1.2755,-1.2704,-1.2623,-1.2572,-1.2751,-1.2706,-1.2528,-1.2069,-1.1864,-1.1824,-1.1722,-1.1579,-1.1477,-1.1715,-1.1817,-1.1606,-1.1464,-1.1586,-1.1701,-1.1831,-1.1699,-1.1664,-1.1616,-1.1682,-1.1822,-1.1878,-1.1961,-1.2,-1.2042,-1.2055,-1.2067,-1.1988,-1.1633,-1.1486,-1.1442,-1.1498,-1.1498,-1.1498,-1.156,-1.1622,-1.1809,-1.1934,-1.1988,-1.212,-1.212,-1.2182,-1.2243,-1.2305,-1.2282,-1.2336,-1.2435,-1.2472,-1.2414,-1.2607,-1.2659,-1.2268,-1.195,-1.1948,-1.2011,-1.2185,-1.2273,-1.2297,-1.231,-2.8395,-2.8059,-2.7681,-2.7428,-2.7188,-2.6647,-2.6117,-2.5636,-2.5396,-2.5312,-2.5312,-2.4992,-2.4801,-2.4718,-2.4418,-2.4189,-2.4116,-2.3824,-2.3666,-2.3298,-2.2841,-2.2402,-2.2025,-2.1578,-2.0964,-2.0489,-2.0098,-1.9478,-1.878,-1.8709,-1.8154,-1.7441,-1.6884,-1.6294,-1.5707,-1.5105,-1.4792,-1.4705,-1.4569,-1.4569,-1.4537,-1.4546,-1.4434,-1.4403,-1.4355,-1.4244,-1.4166,-1.396,-1.4058,-1.3994,-1.3572,-1.3442,-1.3351,-1.3276,-1.3126,-1.2999,-1.3271,-1.337,-1.334,-1.2809,-1.2262,-1.2044,-1.1969,-1.2072,-1.2114,-1.2072,-1.1983,-1.1962,-1.2086,-1.2135,-1.2058,-1.2187,-1.2354,-1.2383,-1.2419,-1.2448,-1.2546,-1.2658,-1.2638,-1.258,-1.2675,-1.2712,-1.2725,-1.2737,-1.2304,-1.1914,-1.1862,-1.1777,-1.1836,-1.1866,-1.1974,-1.2044,-1.2248,-1.2328,-1.2383,-1.2329,-1.2336,-1.2422,-1.2507,-1.2554,-1.2664,-1.2621,-1.2666,-1.2744,-1.2805,-1.2887,-1.2866,-1.2666,-1.2533,-1.2489,-1.2546,-1.2687,-1.2793,-1.2805,-1.2744,-2.7782,-2.7416,-2.6899,-2.6683,-2.6622,-2.6262,-2.5793,-2.5372,-2.5324,-2.5312,-2.5241,-2.4992,-2.4801,-2.4718,-2.4418,-2.42,-2.4127,-2.3824,-2.3666,-2.3298,-2.2852,-2.2467,-2.2111,-2.1655,-2.0974,-2.0566,-2.0098,-1.9478,-1.87,-1.8709,-1.8285,-1.7761,-1.7261,-1.6623,-1.5741,-1.5057,-1.4569,-1.4569,-1.4569,-1.4569,-1.4569,-1.4553,-1.4545,-1.4537,-1.4506,-1.4498,-1.4443,-1.43,-1.4377,-1.4313,-1.4125,-1.3844,-1.3737,-1.3576,-1.3416,-1.3424,-1.3538,-1.3855,-1.3653,-1.3337,-1.2826,-1.2613,-1.2529,-1.2514,-1.2457,-1.2457,-1.2557,-1.2529,-1.2577,-1.2527,-1.2513,-1.2961,-1.3123,-1.3182,-1.3175,-1.3189,-1.3244,-1.3329,-1.3186,-1.3172,-1.3218,-1.3299,-1.3196,-1.3193,-1.291,-1.2535,-1.2447,-1.2425,-1.2489,-1.2497,-1.2595,-1.266,-1.2701,-1.2702,-1.2696,-1.2838,-1.2908,-1.3004,-1.3068,-1.3076,-1.3108,-1.3064,-1.3021,-1.314,-1.317,-1.3152,-1.3105,-1.3065,-1.2987,-1.294,-1.2956,-1.3,-1.2887,-1.292,-1.2867,-2.7085,-2.6887,-2.6346,-2.6117,-2.6117,-2.6105,-2.5769,-2.5336,-2.5312,-2.5312,-2.5253,-2.4921,-2.4801,-2.4729,-2.4345,-2.42,-2.4116,-2.3824,-2.3593,-2.3372,-2.2777,-2.2478,-2.2101,-2.1655,-2.0974,-2.0566,-2.0098,-1.9478,-1.8692,-1.87,-1.8399,-1.7957,-1.7448,-1.6801,-1.579,-1.5033,-1.4649,-1.4569,-1.4569,-1.4569,-1.4569,-1.4569,-1.4569,-1.4569,-1.4569,-1.4569,-1.4537,-1.4514,-1.4522,-1.4498,-1.4498,-1.4364,-1.4379,-1.4395,-1.4324,-1.4364,-1.4395,-1.4371,-1.4227,-1.3954,-1.3598,-1.3251,-1.31,-1.3143,-1.3317,-1.3339,-1.3273,-1.3085,-1.3388,-1.3519,-1.3708,-1.3845,-1.3856,-1.3897,-1.3866,-1.3851,-1.3821,-1.3805,-1.3738,-1.3654,-1.3731,-1.3715,-1.3632,-1.3557,-1.3478,-1.3289,-1.3132,-1.3086,-1.3068,-1.3057,-1.3053,-1.3103,-1.3136,-1.3202,-1.3251,-1.341,-1.3563,-1.3587,-1.3597,-1.3607,-1.3664,-1.3694,-1.3611,-1.3617,-1.366,-1.3772,-1.3638,-1.3502,-1.3518,-1.3509,-1.3241,-1.3155,-1.3042,-1.3161,-1.3297,-2.6529,-2.6334,-2.5793,-2.5576,-2.5576,-2.5576,-2.5456,-2.5336,-2.5312,-2.5312,-2.5241,-2.4921,-2.4801,-2.4646,-2.4418,-2.4189,-2.4116,-2.3813,-2.3593,-2.3519,-2.2777,-2.2478,-2.2176,-2.1568,-2.0964,-2.0566,-2.0098,-1.9478,-1.87,-1.8709,-1.8451,-1.8026,-1.748,-1.6766,-1.5856,-1.5057,-1.4569,-1.4569,-1.4569,-1.4569,-1.4569,-1.4569,-1.4569,-1.4569,-1.4569,-1.4569,-1.4569,-1.4569,-1.4569,-1.4569,-1.4569,-1.4569,-1.4569,-1.4569,-1.4569,-1.4569,-1.4569,-1.4289,-1.4072,-1.3783,-1.371,-1.3564,-1.3492,-1.3492,-1.3492,-1.3492,-1.3484,-1.3564,-1.3717,-1.379,-1.3775,-1.4114,-1.4227,-1.4227,-1.4219,-1.4219,-1.4212,-1.4219,-1.4237,-1.4205,-1.423,-1.4261,-1.4244,-1.4138,-1.3992,-1.3913,-1.3797,-1.3557,-1.3514,-1.3435,-1.3439,-1.3439,-1.3431,-1.3603,-1.3741,-1.3953,-1.4044,-1.4079,-1.4056,-1.3999,-1.4081,-1.4254,-1.4382,-1.4379,-1.4397,-1.4467,-1.432,-1.4259,-1.4206,-1.4118,-1.3996,-1.383,-1.3821,-1.3951,-1.4169,-2.5973,-2.5781,-2.5456,-2.5312,-2.5312,-2.5312,-2.5312,-2.5312,-2.5312,-2.5312,-2.5241,-2.4921,-2.4801,-2.4729,-2.4418,-2.4189,-2.4116,-2.3813,-2.3593,-2.3446,-2.2777,-2.2402,-2.2101,-2.1578,-2.0964,-2.0498,-2.0098,-1.9478,-1.8709,-1.8709,-1.8451,-1.7954,-1.7434,-1.6891,-1.6137,-1.5478,-1.4928,-1.4832,-1.4784,-1.4569,-1.4569,-1.4569,-1.4569,-1.4569,-1.4569,-1.4569,-1.4569,-1.4569,-1.4569,-1.4569,-1.4569,-1.4569,-1.4569,-1.4569,-1.4569,-1.4569,-1.4258,-1.4057,-1.3855,-1.3717,-1.3637,-1.3492,-1.3492,-1.3492,-1.3492,-1.3492,-1.3492,-1.3564,-1.3717,-1.379,-1.3928,-1.4281,-1.4353,-1.4425,-1.4425,-1.4425,-1.4425,-1.4425,-1.4425,-1.4489,-1.4561,-1.4569,-1.4721,-1.4673,-1.4561,-1.4511,-1.4469,-1.4199,-1.403,-1.4006,-1.3982,-1.3998,-1.4106,-1.4263,-1.438,-1.4421,-1.455,-1.4527,-1.4597,-1.4614,-1.4782,-1.5052,-1.5074,-1.5125,-1.508,-1.5095,-1.5124,-1.506,-1.5095,-1.5076,-1.5067,-1.4861,-1.4673,-1.4782,-1.5016,-2.5324,-2.5312,-2.5312,-2.5312,-2.5312,-2.5312,-2.5312,-2.5312,-2.5312,-2.5312,-2.5241,-2.4921,-2.479,-2.4718,-2.4345,-2.4189,-2.4116,-2.3751,-2.3666,-2.3372,-2.2777,-2.2402,-2.1949,-2.1512,-2.0896,-2.042,-1.9951,-1.9469,-1.878,-1.854,-1.829,-1.7989,-1.759,-1.7133,-1.6677,-1.6084,-1.5517,-1.5231,-1.4919,-1.48,-1.4776,-1.4601,-1.4577,-1.4569,-1.4569,-1.4569,-1.4569,-1.4569,-1.4569,-1.4569,-1.4569,-1.4569,-1.4569,-1.4569,-1.4569,-1.441,-1.3939,-1.3745,-1.371,-1.3564,-1.3564,-1.3492,-1.3492,-1.3492,-1.3492,-1.3492,-1.3492,-1.3564,-1.3645,-1.3855,-1.4065,-1.4281,-1.4425,-1.4497,-1.4569,-1.4569,-1.4569,-1.4569,-1.4569,-1.4561,-1.4633,-1.4713,-1.4856,-1.4927,-1.4927,-1.4925,-1.4882,-1.4944,-1.4751,-1.4652,-1.4706,-1.4784,-1.4911,-1.501,-1.5081,-1.5018,-1.5141,-1.5187,-1.5428,-1.5558,-1.5661,-1.579,-1.5872,-1.5878,-1.574,-1.5688,-1.5817,-1.5963,-1.6053,-1.6034,-1.598,-1.5785,-1.5475,-1.5606,-1.5845,-2.5312,-2.5312,-2.5312,-2.5312,-2.5312,-2.5312,-2.5312,-2.5312,-2.5312,-2.5253,-2.5111,-2.4933,-2.4718,-2.4574,-2.4357,-2.42,-2.4043,-2.3813,-2.3666,-2.3298,-2.2777,-2.2413,-2.1959,-2.1512,-2.0896,-2.042,-1.9942,-1.9469,-1.8772,-1.8451,-1.8201,-1.7997,-1.7814,-1.7532,-1.7125,-1.6756,-1.6142,-1.5675,-1.5221,-1.5046,-1.4919,-1.48,-1.4648,-1.4577,-1.4569,-1.4569,-1.4569,-1.4569,-1.4569,-1.4569,-1.4569,-1.4569,-1.4569,-1.4561,-1.4561,-1.4201,-1.3818,-1.3528,-1.3564,-1.3492,-1.3492,-1.3492,-1.3492,-1.3492,-1.3492,-1.3492,-1.3492,-1.3564,-1.3645,-1.3855,-1.4065,-1.4281,-1.4425,-1.4569,-1.4569,-1.4569,-1.4569,-1.4641,-1.4641,-1.4705,-1.4776,-1.4856,-1.507,-1.5141,-1.5204,-1.5204,-1.5275,-1.5355,-1.5363,-1.5221,-1.5284,-1.5346,-1.5417,-1.5488,-1.5497,-1.5466,-1.5649,-1.5824,-1.607,-1.6211,-1.6332,-1.6459,-1.6656,-1.6646,-1.6503,-1.6524,-1.6609,-1.6674,-1.6708,-1.686,-1.6795,-1.6577,-1.6362,-1.6486,-1.6609,-2.5312,-2.5312,-2.5312,-2.5312,-2.5312,-2.5312,-2.5312,-2.5312,-2.5312,-2.5253,-2.5123,-2.4849,-2.4718,-2.4502,-2.4273,-2.42,-2.42,-2.3813,-2.3593,-2.3372,-2.2777,-2.2327,-2.1883,-2.1436,-2.0809,-2.0342,-1.9863,-1.9469,-1.8772,-1.829,-1.8031,-1.8031,-1.8031,-1.7797,-1.7454,-1.7128,-1.6724,-1.6156,-1.5682,-1.538,-1.5157,-1.4975,-1.4832,-1.4601,-1.4577,-1.4569,-1.4569,-1.4569,-1.4569,-1.4569,-1.4569,-1.4569,-1.4561,-1.4489,-1.4281,-1.3992,-1.3688,-1.3542,-1.3492,-1.3492,-1.3492,-1.3492,-1.3506,-1.3492,-1.3492,-1.3492,-1.3492,-1.3492,-1.3645,-1.379,-1.4,-1.4209,-1.4425,-1.4569,-1.4569,-1.4569,-1.4641,-1.4721,-1.4784,-1.4848,-1.4991,-1.5141,-1.5213,-1.5355,-1.5488,-1.563,-1.57,-1.585,-1.5788,-1.5647,-1.5709,-1.5771,-1.5771,-1.5771,-1.585,-1.5929,-1.6061,-1.6272,-1.6412,-1.6621,-1.6821,-1.701,-1.7101,-1.725,-1.7301,-1.7331,-1.7292,-1.7225,-1.73,-1.7444,-1.7502,-1.7348,-1.7158,-1.7254,-1.735,-2.5204,-2.524,-2.5288,-2.5312,-2.5312,-2.5312,-2.5312,-2.5312,-2.5312,-2.5182,-2.5052,-2.4861,-2.4646,-2.4418,-2.4273,-2.42,-2.4116,-2.3813,-2.3593,-2.353,-2.2777,-2.2262,-2.1807,-2.1349,-2.0731,-2.0177,-1.9784,-1.9478,-1.8772,-1.8282,-1.8031,-1.8031,-1.8031,-1.7789,-1.7448,-1.7342,-1.6984,-1.6549,-1.6087,-1.5737,-1.5411,-1.5213,-1.503,-1.476,-1.4601,-1.4569,-1.4569,-1.4569,-1.4569,-1.4569,-1.4569,-1.4569,-1.4489,-1.4338,-1.4057,-1.3848,-1.3622,-1.3557,-1.3492,-1.3492,-1.355,-1.355,-1.3536,-1.3645,-1.3711,-1.3543,-1.3499,-1.3492,-1.3564,-1.3717,-1.3928,-1.4137,-1.4281,-1.4497,-1.4641,-1.4641,-1.4721,-1.4864,-1.4999,-1.5141,-1.5284,-1.5434,-1.5638,-1.578,-1.5842,-1.6061,-1.6123,-1.6272,-1.6298,-1.6158,-1.6122,-1.6246,-1.6193,-1.6123,-1.6193,-1.6342,-1.6482,-1.6621,-1.683,-1.6968,-1.7176,-1.7392,-1.7608,-1.7677,-1.7687,-1.7872,-1.7881,-1.785,-1.7792,-1.788,-1.7948,-1.8017,-1.7969,-1.791,-1.7823,-2.4374,-2.4747,-2.5143,-2.5312,-2.5312,-2.5312,-2.53,-2.5312,-2.5312,-2.5099,-2.4921,-2.479,-2.4646,-2.4345,-2.4215,-2.412,-2.407,-2.3711,-2.357,-2.335,-2.2745,-2.2187,-2.1807,-2.1349,-2.0731,-2.0177,-1.9794,-1.9399,-1.8772,-1.8282,-1.8031,-1.8031,-1.7951,-1.7789,-1.7392,-1.7392,-1.7131,-1.6706,-1.6524,-1.6198,-1.5936,-1.5443,-1.5102,-1.4951,-1.4871,-1.4609,-1.4585,-1.4569,-1.4569,-1.4569,-1.4569,-1.4569,-1.4433,-1.4201,-1.3992,-1.379,-1.3711,-1.3587,-1.3594,-1.3623,-1.3697,-1.3814,-1.3894,-1.404,-1.4004,-1.3689,-1.3528,-1.3528,-1.3609,-1.3769,-1.3915,-1.4053,-1.4271,-1.4488,-1.4704,-1.4784,-1.4928,-1.5135,-1.5342,-1.553,-1.5681,-1.5805,-1.6017,-1.6202,-1.6272,-1.6403,-1.6464,-1.6621,-1.6894,-1.693,-1.6758,-1.6731,-1.6569,-1.6542,-1.6612,-1.6751,-1.6899,-1.7028,-1.7166,-1.7382,-1.7529,-1.7735,-1.7872,-1.794,-1.8056,-1.8144,-1.8279,-1.8317,-1.8297,-1.8279,-1.8279,-1.8279,-1.8279,-1.824,-1.8124,-2.3941,-2.4218,-2.4494,-2.4614,-2.4662,-2.4855,-2.4963,-2.4999,-2.5204,-2.517,-2.4921,-2.479,-2.4574,-2.4108,-2.3971,-2.389,-2.3818,-2.3413,-2.3223,-2.2977,-2.2711,-2.2241,-2.1807,-2.1288,-2.0644,-2.0098,-1.9478,-1.9002,-1.8665,-1.8282,-1.8031,-1.8031,-1.7951,-1.7789,-1.7473,-1.7392,-1.7147,-1.6738,-1.673,-1.6611,-1.6381,-1.5928,-1.5419,-1.5245,-1.4917,-1.4662,-1.4585,-1.4569,-1.4569,-1.4648,-1.48,-1.4668,-1.4591,-1.4551,-1.4373,-1.4178,-1.4043,-1.3923,-1.3909,-1.3923,-1.3975,-1.4037,-1.4194,-1.4318,-1.4488,-1.4229,-1.404,-1.4033,-1.4033,-1.4199,-1.4494,-1.4637,-1.4855,-1.5079,-1.5378,-1.5535,-1.5823,-1.611,-1.6203,-1.6321,-1.642,-1.6395,-1.6554,-1.6682,-1.6769,-1.6894,-1.6945,-1.7235,-1.7544,-1.7713,-1.7515,-1.7364,-1.7235,-1.7042,-1.7107,-1.7176,-1.7245,-1.7382,-1.751,-1.7725,-1.7862,-1.8008,-1.8144,-1.8202,-1.8279,-1.8424,-1.8492,-1.8549,-1.8482,-1.8414,-1.8414,-1.8482,-1.8482,-1.8549,-1.8414,-2.358,-2.373,-2.3749,-2.3851,-2.3833,-2.423,-2.4434,-2.4506,-2.4879,-2.5013,-2.479,-2.4661,-2.448,-2.4172,-2.3787,-2.358,-2.3347,-2.3131,-2.2932,-2.259,-2.2334,-2.1808,-2.1424,-2.1095,-2.033,-1.9629,-1.8948,-1.8804,-1.8629,-1.8223,-1.7992,-1.8006,-1.7959,-1.7789,-1.7554,-1.74,-1.7155,-1.6902,-1.673,-1.673,-1.6579,-1.6397,-1.5888,-1.5407,-1.4973,-1.4719,-1.4621,-1.4704,-1.4711,-1.4895,-1.5102,-1.4958,-1.4901,-1.4805,-1.4682,-1.448,-1.4388,-1.4333,-1.437,-1.434,-1.4328,-1.4316,-1.4509,-1.4631,-1.4818,-1.484,-1.4724,-1.4695,-1.4695,-1.4669,-1.4894,-1.5119,-1.5342,-1.5573,-1.588,-1.6261,-1.6565,-1.6934,-1.695,-1.7089,-1.7135,-1.709,-1.7177,-1.7292,-1.7344,-1.753,-1.7731,-1.8029,-1.828,-1.839,-1.8375,-1.8247,-1.8124,-1.7967,-1.771,-1.7627,-1.7636,-1.7725,-1.7784,-1.7988,-1.8192,-1.8259,-1.8337,-1.8405,-1.8472,-1.8549,-1.8627,-1.8694,-1.8627,-1.8617,-1.8684,-1.8751,-1.8684,-1.8751,-1.8684,-2.2751,-2.3159,-2.358,-2.3815,-2.3773,-2.3881,-2.3917,-2.3917,-2.4013,-2.3994,-2.3958,-2.4095,-2.419,-2.4406,-2.4204,-2.3844,-2.3258,-2.2905,-2.2529,-2.2243,-2.1761,-2.1278,-2.0866,-2.0538,-1.9738,-1.9014,-1.8513,-1.8271,-1.8431,-1.8145,-1.8004,-1.8345,-1.804,-1.787,-1.77,-1.7465,-1.7229,-1.6976,-1.6812,-1.673,-1.6643,-1.6452,-1.6222,-1.5842,-1.5451,-1.5042,-1.4858,-1.5383,-1.5483,-1.5591,-1.5523,-1.5341,-1.5181,-1.5103,-1.496,-1.4791,-1.4618,-1.4683,-1.4697,-1.4784,-1.4662,-1.4816,-1.5028,-1.5277,-1.5425,-1.5627,-1.5574,-1.5514,-1.5408,-1.5083,-1.5257,-1.542,-1.5568,-1.5801,-1.6118,-1.6648,-1.7106,-1.7316,-1.7455,-1.7647,-1.788,-1.8027,-1.818,-1.8275,-1.8299,-1.8428,-1.8586,-1.887,-1.9004,-1.9107,-1.9209,-1.9195,-1.9088,-1.8663,-1.8341,-1.8056,-1.8027,-1.8037,-1.8066,-1.8259,-1.8395,-1.8452,-1.8519,-1.8596,-1.8664,-1.8741,-1.8818,-1.8818,-1.8885,-1.8875,-1.8942,-1.9008,-1.8942,-1.8942,-1.8875]},{"header":{"parameterUnit":"m.s-1","parameterCategory":1,"la1":31.0,"la2":29.5877,"lo1":-88.7671,"lo2":-86.6584,"dy":0.0162,"dx":0.0185,"nx":115,"ny":88,"refTime":"2023-08-15T06:00:00:Z","depth":0,"parameterNumber":3,"parameterNumberName":"V-component_of_WINDS"},"data":[0.0,0.0,0.0,0.0,0.0,0.0,0.0,0.0,0.0,0.0,0.0,0.0,0.0,0.0,0.0,0.0,0.0,0.0,0.0,0.0,0.0,0.0,0.0,0.0,0.0,0.0,0.0,0.0,0.0,0.0,0.0,0.0,0.0,0.0,0.0,0.0,0.0,0.0,0.0,0.0,0.0,0.0,0.0,0.0,0.0,0.0,0.0,0.0,0.0,0.0,0.0,0.0,0.0,0.0,0.0,0.0,0.0,0.0,0.0,0.0,0.0,0.0,0.0,0.0,0.0,0.0,0.0,0.0,0.0,0.0,0.0,0.0,0.0,0.0,0.0,0.0,0.0,0.0,0.0,0.0,0.0,0.0,0.0,0.0,0.0,0.0,0.0,0.0,0.0,0.0,0.0,0.0,0.0,0.0,0.0,0.0,0.0,0.0,0.0,0.0,0.0,0.0,0.0,0.0,0.0,0.0,0.0,0.0,0.0,0.0,0.0,0.0,0.0,0.0,0.0,0.0,0.0,0.0,0.0,0.0,0.0,0.0,0.0,0.0,0.0,0.0,0.0,0.0,0.0,0.0,0.0,0.0,0.0,0.0,0.0,0.0,0.0,0.0,0.0,0.0,0.0,0.0,0.0,0.0,0.0,0.0,0.0,0.0,0.0,0.0,0.0,0.0,0.0,0.0,0.0,0.0,0.0,0.0,0.0,0.0,0.0,0.0,0.0,0.0,0.0,0.0,0.0,0.0,0.0,0.0,0.0,0.0,0.0,0.0,0.0,0.0,0.0,0.0,0.0,0.0,0.0,0.0,0.0,0.0,0.0,0.0,0.0,0.0,0.0,0.0,0.0,0.0,0.0,0.0,0.0,0.0,0.0,0.0,0.0,0.0,0.0,0.0,0.0,0.0,0.0,0.0,0.0,0.0,0.0,0.0,0.0,0.0,0.0,0.0,0.0,0.0,0.0,0.0,0.0,0.0,0.0,0.0,0.0,0.0,0.0,0.0,0.0,0.0,0.0,0.0,0.0,0.0,0.0,0.0,0.0,0.0,0.0,0.0,0.0,0.0,0.0,0.0,0.0,0.0,0.0,0.0,0.0,0.0,0.0,0.0,0.0,0.0,0.0,0.0,0.0,0.0,0.0,0.0,0.0,0.0,0.0,0.0,0.0,0.0,0.0,0.0,0.0,0.0,0.0,0.0,0.0,0.0,0.0,0.0,0.0,0.0,0.0,0.0,0.0,0.0,0.0,0.0,0.0,0.0,0.0,0.0,0.0,0.0,0.0,0.0,0.0,0.0,0.0,0.0,0.0,0.0,0.0,0.0,0.0,0.0,0.0,0.0,0.0,0.0,0.0,0.0,0.0,0.0,0.0,0.0,0.0,0.0,0.0,0.0,0.0,0.0,0.0,0.0,0.0,0.0,0.0,0.0,0.0,0.0,0.0,0.0,0.0,0.0,0.0,0.0,0.0,0.0,0.0,0.0,0.0,0.0,0.0,0.0,0.0,0.0,0.0,0.0,0.0,0.0,0.0,0.0,0.0,0.0,0.0,0.0,0.0,0.0,0.0,0.0,0.0,0.0,0.0,0.0,0.0,0.0,0.0,0.0,0.0,0.0,0.0,0.0,0.0,0.0,0.0,0.0,0.0,0.0,0.0,0.0,0.0,0.0,0.0,0.0,0.0,0.0,0.0,0.0,0.0,0.0,0.0,0.0,0.0,0.0,0.0,0.0,0.0,0.0,0.0,0.0,0.0,0.0,0.0,0.0,0.0,0.0,0.0,0.0,0.0,0.0,0.0,0.0,0.0,0.0,0.0,0.0,0.0,0.0,0.0,0.0,0.0,0.0,0.0,0.0,0.0,0.0,0.0,0.0,0.0,0.0,0.0,0.0,0.0,0.0,0.0,0.0,0.0,0.0,0.0,0.0,0.0,0.0,0.0,0.0,0.0,0.0,0.0,0.0,0.0,0.0,0.0,0.0,0.0,0.0,0.0,0.0,0.0,0.0,0.0,0.0,0.0,0.0,0.0,0.0,0.0,0.0,0.0,0.0,0.0,0.0,0.0,0.0,0.0,0.0,0.0,0.0,0.0,0.0,0.0,0.0,0.0,0.0,0.0,0.0,0.0,0.0,0.0,0.0,0.0,0.0,0.0,0.0,0.0,0.0,0.0,0.0,0.0,0.0,0.0,0.0,0.0,0.0,0.0,0.0,0.0,0.0,0.0,0.0,0.0,0.0,0.0,0.0,0.0,0.0,0.0,0.0,0.0,0.0,0.0,0.0,0.0,0.0,0.0,0.0,0.0,0.0,0.0,0.0,0.0,0.0,0.0,0.0,0.0,0.0,0.0,0.0,0.0,0.0,0.0,0.0,0.0,0.0,0.0,0.0,0.0,0.0,0.0,0.0,0.0,0.0,0.0,0.0,0.0,0.0,0.0,0.0,0.0,0.0,0.0,0.0,0.0,0.0,0.0,0.0,0.0,0.0,0.0,0.0,0.0,0.0,0.0,0.0,0.0,0.0,0.0,0.0,0.0,0.0,0.0,0.0,0.0,0.0,0.0,0.0,0.0,0.0,0.0,0.0,0.0,0.0,0.0,0.0,0.0,0.0,0.0,0.0,0.0,0.0,0.0,0.0,0.0,0.0,0.0,0.0,0.0,0.0,0.0,0.0,0.0,0.0,0.0,0.0,0.0,0.0,0.0,0.0,0.0,0.0,0.0,0.0,0.0,0.0,0.0,0.0,0.0,0.0,0.0,0.0,0.0,0.0,0.0,0.0,0.0,0.0,0.0,0.0,0.0,0.0,0.0,0.0,0.0,0.0,0.0,0.0,0.0,0.0,0.0,0.0,0.0,0.0,0.0,0.0,0.0,0.0,0.0,0.0,0.0,0.0,0.0,0.0,0.0,0.0,0.0,0.0,0.0,0.0,0.0,0.0,0.0,0.0,0.0,0.0,0.0,0.0,0.0,0.0,0.0,0.0,0.0,0.0,0.0,0.0,0.0,0.0,0.0,0.0,0.0,0.0,0.0,0.0,0.0,0.0,0.0,0.0,0.0,0.0,0.0,0.0,0.0,0.0,0.0,0.0,0.0,0.0,0.0,0.0,0.0,0.0,0.0,0.0,0.0,0.0,0.0,0.0,0.0,0.0,0.0,0.0,0.0,0.0,0.0,0.0,0.0,0.0,0.0,0.0,0.0,0.0,0.0,0.0,0.0,0.0,0.0,0.0,0.0,0.0,0.0,0.0,0.0,0.0,0.0,0.0,0.0,0.0,0.0,0.0,0.0,0.0,0.0,0.0,0.0,0.0,0.0,0.0,0.0,0.0,0.0,0.0,0.0,0.0,0.0,0.0,0.0,0.0,0.0,0.0,0.0,0.0,0.0,0.0,0.0,0.0,0.0,0.0,0.0,0.0,0.0,0.0,0.0,0.0,0.0,0.0,0.0,0.0,0.0,0.0,0.0,0.0,0.0,0.0,0.0,0.0,0.0,0.0,0.0,0.0,0.0,0.0,0.0,0.0,0.0,0.0,0.0,0.0,0.0,0.0,0.0,0.0,0.0,0.0,0.0,0.0,0.0,0.0,0.0,0.0,0.0,0.0,0.0,0.0,0.0,0.0,0.0,0.0,0.0,0.0,0.0,0.0,0.0,0.0,0.0,0.0,0.0,0.0,0.0,0.0,0.0,0.0,0.0,0.0,0.0,0.0,0.0,0.0,0.0,0.0,0.0,0.0,0.0,0.0,0.0,0.0,0.0,0.0,0.0,0.0,0.0,0.0,0.0,0.0,0.0,0.0,0.0,0.0,0.0,0.0,0.0,0.0,0.0,0.0,0.0,0.0,0.0,0.0,0.0,0.0,0.0,0.0,0.0,0.0,0.0,0.0,0.0,0.0,0.0,0.0,0.0,0.0,0.0,0.0,0.0,0.0,0.0,0.0,0.0,0.0,0.0,0.0,0.0,0.0,0.0,0.0,0.0,0.0,0.0,0.0,0.0,0.0,0.0,0.0,0.0,0.0,0.0,0.0,0.0,0.0,0.0,0.0,0.0,0.0,0.0,0.0,0.0,0.0,0.0,0.0,0.0,0.0,0.0,0.0,0.0,0.0,0.0,0.0,0.0,0.0,0.0,0.0,0.0,0.0,0.0,0.0,0.0,0.0,0.0,0.0,0.0,0.0,0.0,0.0,0.0,0.0,0.0,0.0,0.0,0.0,0.0,0.0,0.0,0.0,0.0,0.0,0.0,0.0,0.0,0.0,0.0,0.0,0.0,0.0,0.0,0.0,-0.2203,0.0,0.0,0.0,0.0,0.0,0.0,0.0,0.0,0.0,0.0,0.0,0.0,0.0,0.0,0.0,0.0,0.0,0.0,0.0,0.0,0.0,0.0,0.0,0.0,0.0,0.0,0.0,0.0,0.0,0.0,0.0,0.0,0.0,0.0,0.0,0.0,0.0,0.0,0.0,0.0,0.0,0.0,0.0,0.0,0.0,0.0,0.0,0.0,0.0,0.0,0.0,0.0,0.0,0.0,0.0,0.0,0.0,0.0,0.0,0.0,0.0,0.0,0.0,0.0,0.0,0.0,0.0,0.0,0.0,0.0,0.0,0.0,0.0,0.0,0.0,0.0,0.0,0.0,0.0,0.0,0.0,0.0,0.0,0.0,0.0,0.0,0.0,0.0,0.0,0.0,0.0,0.0,0.0,0.0,0.0,0.0,0.0,0.0,0.0,0.0,0.0,0.0,0.0,0.0,0.0,0.0,0.0,0.0,0.0,0.0,-0.2632,-0.267,-0.2692,-0.2719,-0.2789,0.0,0.0,0.0,0.0,0.0,0.0,0.0,0.0,0.0,0.0,0.0,0.0,0.0,0.0,0.0,0.0,0.0,0.0,0.0,0.0,0.0,0.0,0.0,0.0,0.0,0.0,0.0,0.0,0.0,0.0,0.0,0.0,0.0,0.0,0.0,0.0,0.0,0.0,0.0,0.0,0.0,0.0,0.0,0.0,0.0,0.0,0.0,0.0,0.0,0.0,0.0,0.0,0.0,0.0,0.0,0.0,0.0,0.0,0.0,0.0,0.0,0.0,0.0,0.0,0.0,0.0,0.0,0.0,0.0,0.0,0.0,0.0,0.0,0.0,0.0,0.0,0.0,0.0,0.0,0.0,0.0,0.0,0.0,0.0,0.0,0.0,0.0,0.0,0.0,0.0,0.0,0.0,0.0,0.0,0.0,0.0,0.0,0.0,0.0,0.0,0.0,0.0,0.0,0.0,0.0,0.0,0.0,0.0,0.0,0.0,0.0,0.0,-0.3169,-0.3232,-0.3351,0.0,0.0,0.0,0.0,0.0,0.0,0.0,0.0,0.0,0.0,0.0,0.0,0.0,0.0,0.0,0.0,0.0,0.0,0.0,0.0,0.0,0.0,0.0,0.0,0.0,0.0,0.0,0.0,0.0,0.0,0.0,0.0,0.0,0.0,0.0,0.0,0.0,0.0,0.0,0.0,0.0,0.0,0.0,0.0,0.0,0.0,0.0,0.0,0.0,0.0,0.0,0.0,0.0,0.0,0.0,0.0,0.0,0.0,0.0,0.0,0.0,0.0,0.0,0.0,0.0,0.0,0.0,0.0,0.0,0.0,0.0,0.0,0.0,0.0,0.0,0.0,0.0,0.0,0.0,0.0,0.0,0.0,0.0,0.0,0.0,0.0,0.0,0.0,0.0,0.0,0.0,0.0,0.0,0.0,0.0,0.0,0.0,0.0,0.0,0.0,0.0,0.0,0.0,0.0,0.0,0.0,0.0,0.0,0.0,0.0,-0.373,-0.373,-0.373,0.0,-0.3758,0.0,0.0,0.0,0.0,0.0,0.0,0.0,0.0,0.0,0.0,0.0,0.0,0.0,0.0,0.0,0.0,0.0,0.0,0.0,0.0,0.0,0.0,0.0,0.0,0.0,0.0,0.0,0.0,0.0,0.0,0.0,0.0,0.0,0.0,0.0,0.0,0.0,0.0,0.0,0.0,0.0,0.0,0.0,0.0,0.0,0.0,0.0,0.0,0.0,0.0,0.0,0.0,0.0,0.0,0.0,0.0,0.0,0.0,0.0,0.0,0.0,0.0,0.0,0.0,0.0,0.0,0.0,0.0,0.0,0.0,0.0,0.0,0.0,0.0,0.0,0.0,0.0,0.0,0.0,0.0,0.0,0.0,0.0,0.0,0.0,0.0,0.0,0.0,0.0,0.0,0.0,0.0,0.0,0.0,0.0,0.0,0.0,0.0,0.0,0.0,0.0,0.0,0.0,0.0,0.0,0.0,0.0,0.0,0.0,0.0,-0.415,-0.4158,-0.4183,-0.4244,0.0,0.0,0.0,0.0,0.0,0.0,0.0,0.0,0.0,0.0,0.0,0.0,0.0,0.0,0.0,0.0,0.0,0.0,0.0,0.0,0.0,0.0,0.0,0.0,0.0,0.0,0.0,0.0,0.0,0.0,0.0,0.0,0.0,0.0,0.0,0.0,0.0,0.0,0.0,0.0,0.0,0.0,0.0,0.0,0.0,0.0,0.0,0.0,0.0,0.0,0.0,0.0,0.0,0.0,0.0,0.0,0.0,0.0,0.0,0.0,0.0,0.0,0.0,0.0,0.0,0.0,0.0,0.0,0.0,0.0,0.0,0.0,0.0,0.0,0.0,0.0,0.0,0.0,0.0,0.0,0.0,0.0,0.0,0.0,0.0,0.0,0.0,0.0,0.0,0.0,0.0,0.0,0.0,0.0,0.0,0.0,0.0,0.0,0.0,0.0,0.0,0.0,0.0,0.0,0.0,0.0,0.0,0.0,0.0,0.0,-0.4584,-0.4604,-0.4584,-0.4635,-0.4695,-0.4755,0.0,0.0,0.0,0.0,0.0,0.0,0.0,0.0,0.0,0.0,0.0,0.0,0.0,0.0,0.0,0.0,0.0,0.0,0.0,0.0,0.0,0.0,0.0,0.0,0.0,0.0,0.0,0.0,0.0,0.0,0.0,0.0,0.0,0.0,0.0,0.0,0.0,0.0,0.0,0.0,0.0,0.0,0.0,0.0,0.0,0.0,0.0,0.0,0.0,0.0,0.0,0.0,0.0,0.0,0.0,0.0,0.0,0.0,0.0,0.0,0.0,0.0,0.0,0.0,0.0,0.0,0.0,0.0,0.0,0.0,0.0,0.0,0.0,0.0,0.0,0.0,0.0,0.0,0.0,0.0,0.0,0.0,0.0,0.0,0.0,0.0,0.0,0.0,0.0,0.0,0.0,0.0,0.0,0.0,0.0,0.0,0.0,0.0,0.0,0.0,0.0,0.0,0.0,0.0,0.0,0.0,0.0,0.0,-0.5069,-0.5088,-0.5069,-0.5059,-0.5069,-0.5098,0.0,0.0,0.0,0.0,0.0,0.0,0.0,0.0,0.0,0.0,0.0,0.0,0.0,0.0,0.0,0.0,0.0,0.0,0.0,0.0,0.0,0.0,0.0,0.0,0.0,0.0,0.0,0.0,0.0,0.0,0.0,0.0,0.0,0.0,0.0,0.0,0.0,0.0,0.0,0.0,0.0,0.0,0.0,0.0,0.0,0.0,0.0,0.0,0.0,0.0,0.0,0.0,0.0,0.0,0.0,0.0,0.0,0.0,0.0,0.0,0.0,0.0,0.0,0.0,0.0,0.0,0.0,0.0,0.0,0.0,0.0,0.0,0.0,0.0,0.0,0.0,0.0,0.0,0.0,0.0,0.0,0.0,0.0,0.0,0.0,0.0,0.0,0.0,0.0,0.0,0.0,0.0,0.0,0.0,0.0,0.0,0.0,0.0,0.0,0.0,0.0,0.0,0.0,0.0,0.0,0.0,0.0,0.0,0.0,-0.5492,-0.5492,-0.5492,-0.5492,-0.5491,-0.5499,0.0,0.0,0.0,0.0,0.0,0.0,0.0,0.0,0.0,0.0,0.0,0.0,0.0,0.0,0.0,0.0,0.0,0.0,0.0,0.0,0.0,0.0,0.0,0.0,0.0,0.0,0.0,0.0,0.0,0.0,0.0,0.0,0.0,0.0,0.0,0.0,0.0,0.0,0.0,0.0,0.0,0.0,0.0,0.0,0.0,0.0,0.0,0.0,0.0,0.0,0.0,0.0,0.0,0.0,0.0,0.0,0.0,0.0,0.0,0.0,0.0,0.0,0.0,0.0,0.0,0.0,0.0,0.0,0.0,0.0,0.0,0.0,0.0,0.0,0.0,0.0,0.0,0.0,0.0,0.0,0.0,0.0,0.0,0.0,0.0,0.0,0.0,0.0,0.0,0.0,0.0,0.0,0.0,0.0,0.0,0.0,0.0,0.0,0.0,0.0,0.0,0.0,0.0,0.0,0.0,0.0,0.0,0.0,0.0,-0.5867,0.0,-0.5874,-0.5856,-0.5852,-0.5888,0.0,0.0,0.0,0.0,0.0,0.0,0.0,0.0,0.0,0.0,0.0,0.0,0.0,0.0,0.0,0.0,0.0,0.0,0.0,0.0,0.0,0.0,0.0,0.0,0.0,0.0,0.0,0.0,0.0,0.0,0.0,0.0,0.0,0.0,0.0,0.0,0.0,0.0,0.0,0.0,0.0,0.0,0.0,0.0,0.0,0.0,0.0,0.0,0.0,0.0,0.0,0.0,0.0,0.0,0.0,0.0,0.0,0.0,0.0,0.0,0.0,0.0,0.0,0.0,0.0,0.0,0.0,0.0,0.0,0.0,0.0,0.0,0.0,0.0,0.0,0.0,0.0,0.0,0.0,0.0,0.0,0.0,0.0,0.0,0.0,0.0,0.0,0.0,0.0,0.0,0.0,0.0,0.0,0.0,0.0,0.0,0.0,0.0,0.0,0.0,0.0,0.0,0.0,0.0,0.0,0.0,0.0,0.0,-0.6266,-0.6218,-0.6218,-0.6218,-0.6201,-0.6218,-0.6271,0.0,0.0,0.0,0.0,0.0,0.0,0.0,0.0,0.0,0.0,0.0,0.0,0.0,0.0,0.0,0.0,0.0,0.0,0.0,0.0,0.0,0.0,0.0,0.0,0.0,0.0,0.0,0.0,0.0,0.0,0.0,0.0,0.0,0.0,0.0,0.0,0.0,0.0,0.0,0.0,0.0,0.0,0.0,0.0,0.0,0.0,0.0,0.0,0.0,0.0,0.0,0.0,0.0,0.0,0.0,0.0,0.0,0.0,0.0,0.0,0.0,0.0,0.0,0.0,0.0,0.0,0.0,0.0,0.0,0.0,0.0,0.0,0.0,0.0,0.0,0.0,0.0,0.0,0.0,0.0,0.0,0.0,0.0,0.0,0.0,0.0,0.0,0.0,0.0,0.0,0.0,0.0,0.0,0.0,0.0,0.0,0.0,0.0,0.0,0.0,0.0,0.0,0.0,0.0,0.0,0.0,0.0,0.0,0.0,-0.6613,-0.6596,-0.663,-0.6664,-0.6681,-0.671,0.0,0.0,0.0,0.0,0.0,0.0,0.0,0.0,0.0,0.0,0.0,0.0,0.0,0.0,0.0,0.0,0.0,0.0,0.0,0.0,0.0,0.0,0.0,0.0,0.0,0.0,0.0,0.0,0.0,0.0,0.0,0.0,0.0,0.0,0.0,0.0,0.0,0.0,0.0,0.0,0.0,0.0,0.0,0.0,0.0,0.0,0.0,0.0,0.0,0.0,0.0,0.0,0.0,0.0,0.0,0.0,0.0,0.0,0.0,0.0,0.0,0.0,0.0,0.0,0.0,0.0,0.0,0.0,0.0,0.0,0.0,0.0,0.0,0.0,0.0,0.0,0.0,0.0,0.0,0.0,0.0,0.0,0.0,0.0,0.0,0.0,0.0,0.0,0.0,0.0,0.0,0.0,0.0,0.0,0.0,0.0,0.0,0.0,0.0,0.0,0.0,0.0,0.0,0.0,0.0,0.0,0.0,0.0,0.0,-0.7221,-0.7077,-0.7055,-0.7075,-0.7091,-0.7107,-0.7123,0.0,0.0,0.0,0.0,0.0,0.0,0.0,0.0,0.0,0.0,0.0,0.0,0.0,0.0,0.0,0.0,0.0,0.0,0.0,0.0,0.0,0.0,0.0,0.0,0.0,0.0,0.0,0.0,0.0,0.0,0.0,0.0,0.0,0.0,0.0,0.0,0.0,0.0,0.0,0.0,0.0,0.0,0.0,0.0,0.0,0.0,0.0,0.0,0.0,0.0,0.0,0.0,0.0,0.0,0.0,0.0,0.0,0.0,0.0,0.0,0.0,0.0,0.0,0.0,0.0,0.0,0.0,0.0,0.0,0.0,0.0,0.0,0.0,0.0,0.0,0.0,0.0,0.0,0.0,0.0,0.0,0.0,0.0,0.0,0.0,0.0,0.0,0.0,0.0,0.0,0.0,0.0,0.0,0.0,0.0,0.0,0.0,0.0,0.0,0.0,0.0,0.0,0.0,0.0,0.0,0.0,0.0,0.0,-0.7971,-0.765,-0.7453,-0.7438,-0.7438,-0.7469,0.0,0.0,0.0,0.0,0.0,0.0,0.0,0.0,0.0,0.0,0.0,0.0,0.0,0.0,0.0,0.0,0.0,0.0,0.0,0.0,0.0,0.0,0.0,0.0,0.0,0.0,0.0,0.0,0.0,0.0,0.0,0.0,0.0,0.0,0.0,0.0,0.0,0.0,0.0,0.0,0.0,0.0,0.0,0.0,0.0,0.0,0.0,0.0,0.0,0.0,0.0,0.0,0.0,0.0,0.0,0.0,0.0,0.0,0.0,0.0,0.0,0.0,0.0,0.0,0.0,0.0,0.0,0.0,0.0,0.0,0.0,0.0,0.0,0.0,0.0,0.0,0.0,0.0,0.0,0.0,0.0,0.0,0.0,0.0,0.0,0.0,0.0,0.0,0.0,0.0,0.0,0.0,0.0,0.0,0.0,0.0,0.0,0.0,0.0,0.0,0.0,0.0,0.0,0.0,0.0,0.0,0.0,0.0,0.0,-0.8946,-0.8395,-0.7997,-0.7856,-0.7841,-0.7841,0.0,0.0,0.0,0.0,0.0,0.0,0.0,0.0,0.0,0.0,0.0,0.0,0.0,0.0,0.0,0.0,0.0,0.0,0.0,0.0,0.0,0.0,0.0,0.0,0.0,0.0,0.0,0.0,0.0,0.0,0.0,0.0,0.0,0.0,0.0,0.0,0.0,0.0,0.0,0.0,0.0,0.0,0.0,0.0,0.0,0.0,0.0,0.0,0.0,0.0,0.0,0.0,0.0,0.0,0.0,0.0,0.0,0.0,0.0,0.0,0.0,0.0,0.0,0.0,0.0,0.0,0.0,0.0,0.0,0.0,0.0,0.0,0.0,0.0,0.0,0.0,0.0,0.0,0.0,0.0,0.0,0.0,0.0,0.0,0.0,0.0,0.0,0.0,0.0,0.0,0.0,0.0,0.0,0.0,0.0,0.0,0.0,0.0,0.0,0.0,0.0,0.0,0.0,0.0,0.0,0.0,0.0,0.0,-0.9584,-1.009,-0.967,-0.9378,-0.9281,-0.8557,-0.8164,0.0,0.0,0.0,0.0,0.0,0.0,0.0,0.0,0.0,0.0,0.0,0.0,0.0,0.0,0.0,0.0,0.0,0.0,0.0,0.0,0.0,0.0,0.0,0.0,0.0,0.0,0.0,0.0,0.0,0.0,0.0,0.0,0.0,0.0,0.0,0.0,0.0,0.0,0.0,0.0,0.0,0.0,0.0,0.0,0.0,0.0,0.0,0.0,0.0,0.0,0.0,0.0,0.0,0.0,0.0,0.0,0.0,0.0,0.0,0.0,0.0,0.0,0.0,0.0,0.0,0.0,0.0,0.0,0.0,0.0,0.0,0.0,0.0,0.0,0.0,0.0,0.0,0.0,0.0,0.0,0.0,0.0,0.0,0.0,0.0,0.0,0.0,0.0,0.0,0.0,0.0,0.0,0.0,0.0,0.0,0.0,0.0,0.0,0.0,0.0,0.0,0.0,0.0,0.0,0.0,0.0,0.0,0.0,-1.1061,-1.1248,-1.1121,-1.109,-1.1095,-0.9533,-0.8615,0.0,0.0,0.0,0.0,0.0,0.0,0.0,0.0,0.0,0.0,0.0,0.0,0.0,0.0,0.0,0.0,0.0,0.0,0.0,0.0,0.0,0.0,0.0,0.0,0.0,0.0,0.0,0.0,0.0,0.0,0.0,0.0,0.0,0.0,0.0,0.0,0.0,0.0,0.0,0.0,0.0,0.0,0.0,0.0,0.0,0.0,0.0,0.0,0.0,0.0,0.0,0.0,0.0,0.0,0.0,0.0,0.0,0.0,0.0,0.0,0.0,0.0,0.0,0.0,0.0,0.0,0.0,0.0,0.0,0.0,0.0,0.0,0.0,0.0,0.0,0.0,0.0,0.0,0.0,0.0,0.0,0.0,0.0,0.0,0.0,0.0,0.0,0.0,0.0,0.0,0.0,0.0,0.0,0.0,0.0,0.0,0.0,0.0,0.0,0.0,0.0,0.0,0.0,0.0,0.0,0.0,0.0,0.0,-1.1579,-1.2192,-1.1667,-1.161,-1.2092,-1.1025,-1.0178,0.0,0.0,0.0,0.0,0.0,0.0,0.0,0.0,0.0,0.0,0.0,0.0,0.0,0.0,0.0,0.0,0.0,0.0,0.0,0.0,0.0,0.0,0.0,0.0,0.0,0.0,0.0,0.0,0.0,0.0,0.0,0.0,0.0,0.0,0.0,0.0,0.0,0.0,0.0,0.0,0.0,0.0,0.0,0.0,0.0,0.0,0.0,0.0,-0.9666,0.0,0.0,0.0,0.0,0.0,0.0,0.0,0.0,0.0,0.0,0.0,0.0,0.0,0.0,0.0,0.0,0.0,0.0,0.0,0.0,0.0,0.0,0.0,0.0,0.0,0.0,0.0,0.0,0.0,0.0,0.0,0.0,0.0,0.0,0.0,0.0,0.0,0.0,0.0,0.0,0.0,0.0,0.0,0.0,0.0,0.0,0.0,0.0,0.0,0.0,0.0,0.0,0.0,0.0,0.0,0.0,0.0,0.0,0.0,-1.2855,-1.3221,-1.2918,-1.286,-1.3109,-1.2675,-1.1665,0.0,0.0,0.0,0.0,0.0,0.0,0.0,0.0,0.0,0.0,0.0,0.0,0.0,0.0,0.0,0.0,0.0,0.0,0.0,0.0,0.0,0.0,0.0,0.0,0.0,0.0,0.0,0.0,0.0,0.0,0.0,0.0,0.0,0.0,0.0,0.0,0.0,0.0,0.0,0.0,0.0,0.0,0.0,0.0,0.0,0.0,0.0,0.0,0.0,0.0,0.0,0.0,0.0,0.0,0.0,0.0,0.0,0.0,0.0,0.0,0.0,0.0,0.0,0.0,0.0,0.0,0.0,0.0,0.0,0.0,0.0,0.0,0.0,0.0,0.0,0.0,0.0,0.0,0.0,0.0,0.0,0.0,0.0,0.0,0.0,0.0,0.0,0.0,0.0,0.0,0.0,0.0,0.0,0.0,0.0,0.0,0.0,0.0,0.0,0.0,0.0,0.0,0.0,0.0,0.0,0.0,0.0,-1.3694,-1.4145,-1.4149,-1.4145,-1.4105,-1.406,-1.406,-1.2988,-1.0755,0.0,0.0,0.0,0.0,0.0,0.0,0.0,0.0,0.0,0.0,0.0,0.0,0.0,0.0,0.0,0.0,0.0,0.0,0.0,0.0,0.0,0.0,0.0,0.0,0.0,0.0,0.0,0.0,0.0,0.0,0.0,0.0,0.0,0.0,0.0,0.0,0.0,0.0,-0.9823,-0.9812,0.0,0.0,0.0,0.0,0.0,0.0,0.0,0.0,-1.0019,0.0,0.0,0.0,0.0,0.0,0.0,0.0,0.0,0.0,0.0,0.0,0.0,0.0,0.0,0.0,0.0,0.0,0.0,0.0,0.0,0.0,0.0,0.0,0.0,0.0,0.0,0.0,0.0,0.0,0.0,0.0,0.0,0.0,0.0,0.0,0.0,0.0,0.0,0.0,0.0,0.0,0.0,0.0,0.0,0.0,0.0,0.0,0.0,0.0,0.0,0.0,0.0,0.0,0.0,0.0,0.0,-1.3081,-1.3902,-1.4344,-1.4344,-1.435,-1.4325,-1.4264,-1.4325,-1.3793,-1.2674,0.0,0.0,0.0,0.0,0.0,0.0,0.0,0.0,0.0,0.0,0.0,0.0,0.0,0.0,0.0,0.0,0.0,0.0,0.0,0.0,0.0,0.0,0.0,0.0,0.0,0.0,0.0,0.0,0.0,0.0,0.0,0.0,0.0,0.0,0.0,0.0,0.0,0.0,0.0,-0.9935,-0.9957,0.0,0.0,0.0,0.0,0.0,0.0,0.0,0.0,-1.0967,0.0,0.0,0.0,0.0,0.0,0.0,0.0,0.0,0.0,0.0,0.0,0.0,0.0,0.0,0.0,0.0,0.0,0.0,0.0,0.0,0.0,0.0,0.0,0.0,0.0,0.0,0.0,0.0,0.0,0.0,0.0,0.0,0.0,0.0,0.0,0.0,0.0,0.0,0.0,0.0,0.0,0.0,0.0,0.0,0.0,0.0,0.0,0.0,0.0,0.0,0.0,0.0,0.0,0.0,0.0,-1.3886,-1.4338,-1.4555,-1.4563,-1.4563,-1.4534,-1.4501,-1.4537,-1.4136,0.0,0.0,0.0,0.0,0.0,0.0,0.0,0.0,0.0,0.0,0.0,0.0,0.0,0.0,0.0,0.0,0.0,0.0,0.0,0.0,0.0,0.0,0.0,0.0,0.0,0.0,0.0,0.0,0.0,0.0,0.0,0.0,0.0,0.0,0.0,0.0,0.0,0.0,0.0,0.0,-0.9971,-1.001,-1.0043,0.0,0.0,0.0,0.0,0.0,0.0,-1.1367,-1.1913,0.0,0.0,0.0,0.0,0.0,0.0,0.0,0.0,0.0,0.0,0.0,0.0,0.0,0.0,0.0,0.0,0.0,0.0,0.0,0.0,0.0,0.0,0.0,0.0,0.0,0.0,0.0,0.0,0.0,0.0,0.0,0.0,0.0,0.0,0.0,0.0,0.0,0.0,0.0,0.0,0.0,0.0,0.0,0.0,0.0,0.0,0.0,0.0,0.0,0.0,0.0,0.0,0.0,0.0,0.0,-1.4629,-1.4728,-1.4748,-1.4748,-1.4729,-1.4738,-1.4756,-1.4736,-1.4305,0.0,0.0,0.0,0.0,0.0,0.0,0.0,0.0,0.0,0.0,0.0,0.0,0.0,0.0,0.0,0.0,0.0,0.0,0.0,0.0,0.0,0.0,0.0,0.0,0.0,0.0,0.0,0.0,0.0,0.0,0.0,0.0,0.0,0.0,0.0,0.0,0.0,0.0,0.0,0.0,0.0,-1.0364,-1.0608,-1.0632,0.0,0.0,0.0,0.0,-1.1574,-1.2301,0.0,0.0,0.0,0.0,0.0,0.0,0.0,0.0,0.0,0.0,0.0,0.0,0.0,0.0,0.0,0.0,0.0,0.0,0.0,0.0,0.0,0.0,0.0,0.0,0.0,0.0,0.0,0.0,0.0,0.0,0.0,0.0,0.0,0.0,0.0,0.0,0.0,0.0,0.0,0.0,0.0,0.0,0.0,0.0,0.0,0.0,0.0,0.0,0.0,0.0,0.0,0.0,0.0,0.0,0.0,0.0,-1.4877,-1.493,-1.4917,-1.4898,-1.4871,-1.4881,-1.4885,-1.4885,-1.4463,0.0,0.0,0.0,0.0,0.0,0.0,0.0,0.0,0.0,0.0,0.0,0.0,0.0,0.0,0.0,0.0,0.0,0.0,0.0,0.0,0.0,0.0,0.0,0.0,0.0,0.0,0.0,0.0,0.0,0.0,0.0,0.0,0.0,0.0,0.0,0.0,0.0,0.0,0.0,0.0,0.0,-1.1532,-1.2276,-1.2411,-1.2401,0.0,0.0,-1.2545,-1.2545,-1.3229,0.0,0.0,0.0,0.0,0.0,0.0,0.0,0.0,0.0,0.0,0.0,0.0,0.0,0.0,0.0,0.0,0.0,0.0,0.0,0.0,0.0,0.0,0.0,0.0,0.0,0.0,0.0,0.0,0.0,0.0,0.0,0.0,0.0,0.0,0.0,0.0,0.0,0.0,0.0,0.0,0.0,0.0,0.0,0.0,0.0,0.0,0.0,0.0,0.0,0.0,0.0,0.0,0.0,0.0,0.0,-1.5223,-1.5716,-1.53,-1.5047,-1.5002,-1.5021,-1.5014,-1.5007,-1.5011,-1.438,0.0,0.0,0.0,0.0,0.0,0.0,0.0,0.0,0.0,0.0,0.0,0.0,0.0,0.0,0.0,0.0,0.0,0.0,0.0,0.0,0.0,0.0,0.0,0.0,0.0,0.0,0.0,0.0,0.0,0.0,0.0,0.0,0.0,0.0,0.0,0.0,0.0,0.0,0.0,0.0,0.0,0.0,-1.2656,-1.2704,0.0,0.0,0.0,-1.3427,-1.3446,0.0,0.0,0.0,0.0,0.0,0.0,0.0,0.0,0.0,0.0,0.0,0.0,0.0,0.0,0.0,0.0,0.0,0.0,0.0,0.0,0.0,0.0,0.0,0.0,0.0,0.0,0.0,0.0,0.0,0.0,0.0,0.0,0.0,0.0,0.0,0.0,0.0,0.0,0.0,0.0,0.0,0.0,0.0,0.0,0.0,0.0,0.0,0.0,0.0,0.0,0.0,0.0,0.0,0.0,0.0,0.0,0.0,-1.6407,-1.5779,-1.5362,-1.5176,-1.5157,-1.5132,-1.5151,-1.5146,0.0,0.0,0.0,0.0,0.0,0.0,0.0,0.0,0.0,0.0,0.0,0.0,0.0,0.0,0.0,0.0,0.0,0.0,0.0,0.0,0.0,0.0,0.0,0.0,0.0,0.0,0.0,-0.6423,0.0,0.0,0.0,0.0,0.0,0.0,0.0,0.0,0.0,0.0,0.0,0.0,0.0,0.0,-1.3103,-1.3324,-1.3343,-1.3348,0.0,0.0,-1.4319,-1.4328,-1.4819,-1.5176,0.0,0.0,0.0,0.0,0.0,0.0,0.0,0.0,0.0,0.0,0.0,0.0,0.0,0.0,0.0,0.0,0.0,0.0,0.0,0.0,0.0,0.0,0.0,0.0,0.0,0.0,0.0,0.0,0.0,0.0,0.0,0.0,0.0,0.0,0.0,0.0,0.0,0.0,0.0,0.0,0.0,0.0,0.0,0.0,0.0,0.0,0.0,0.0,0.0,0.0,0.0,0.0,0.0,0.0,0.0,-1.6496,-1.6438,-1.6043,-1.5338,-1.5289,-1.5289,-1.5279,-1.5299,-1.4463,0.0,0.0,0.0,0.0,0.0,0.0,0.0,0.0,0.0,0.0,0.0,0.0,0.0,0.0,0.0,0.0,0.0,0.0,0.0,0.0,0.0,0.0,0.0,0.0,0.0,0.0,0.0,0.0,0.0,0.0,0.0,0.0,0.0,0.0,0.0,0.0,0.0,0.0,0.0,0.0,0.0,-1.4205,-1.5007,-1.5119,-1.5123,0.0,0.0,-1.5226,-1.5202,-1.5192,-1.5204,-1.5199,0.0,0.0,0.0,0.0,0.0,0.0,0.0,0.0,0.0,0.0,0.0,0.0,0.0,0.0,0.0,0.0,0.0,0.0,0.0,0.0,0.0,0.0,0.0,0.0,0.0,0.0,0.0,0.0,0.0,0.0,0.0,0.0,0.0,0.0,0.0,0.0,0.0,0.0,0.0,0.0,0.0,0.0,0.0,0.0,0.0,0.0,0.0,0.0,0.0,0.0,0.0,0.0,0.0,-1.7626,-1.8135,-1.7107,-1.6413,-1.6091,-1.5567,-1.5311,-1.5365,-1.531,-1.4481,0.0,0.0,0.0,0.0,0.0,0.0,0.0,0.0,0.0,0.0,0.0,0.0,0.0,0.0,0.0,0.0,0.0,0.0,0.0,0.0,0.0,0.0,0.0,0.0,0.0,0.0,0.0,0.0,-0.4788,-0.4173,-0.4712,0.0,0.0,0.0,0.0,0.0,0.0,0.0,0.0,0.0,0.0,-1.5532,-1.5326,-1.5287,0.0,0.0,-1.5283,-1.5293,-1.5283,-1.5284,-1.5251,-1.5265,-1.5226,0.0,0.0,0.0,0.0,0.0,0.0,0.0,0.0,0.0,0.0,0.0,0.0,0.0,0.0,0.0,0.0,0.0,0.0,0.0,0.0,0.0,0.0,0.0,0.0,0.0,0.0,0.0,0.0,0.0,0.0,0.0,0.0,0.0,0.0,0.0,0.0,0.0,0.0,0.0,0.0,0.0,0.0,0.0,0.0,0.0,0.0,0.0,0.0,0.0,0.0,0.0,0.0,-1.8582,-1.9193,-1.7987,-1.7131,-1.6632,-1.6041,-1.5616,-1.5399,-1.535,-1.4528,0.0,0.0,0.0,0.0,0.0,0.0,0.0,0.0,0.0,0.0,0.0,0.0,0.0,0.0,0.0,0.0,0.0,0.0,0.0,0.0,0.0,0.0,0.0,0.0,0.0,0.0,0.0,0.0,-0.4976,-0.4834,-0.5879,0.0,0.0,0.0,0.0,0.0,0.0,0.0,0.0,0.0,0.0,-1.667,-1.5846,-1.5703,-1.5598,-1.5369,-1.5327,-1.528,-1.5284,-1.5513,-1.5698,-1.5694,0.0,0.0,0.0,0.0,0.0,0.0,0.0,0.0,0.0,0.0,0.0,0.0,0.0,0.0,0.0,0.0,0.0,0.0,0.0,0.0,0.0,0.0,0.0,0.0,0.0,0.0,0.0,0.0,0.0,0.0,-1.7504,0.0,0.0,0.0,0.0,0.0,0.0,0.0,0.0,0.0,0.0,0.0,0.0,0.0,0.0,0.0,0.0,0.0,0.0,0.0,0.0,0.0,0.0,-1.9208,-1.9214,-1.9127,-1.8322,-1.6787,-1.668,-1.6241,-1.5441,-1.541,-1.4566,-1.2813,0.0,0.0,0.0,0.0,0.0,0.0,0.0,0.0,0.0,0.0,0.0,0.0,0.0,0.0,0.0,0.0,0.0,0.0,0.0,0.0,0.0,0.0,0.0,0.0,0.0,0.0,-0.6148,-0.5936,-0.6293,0.0,0.0,0.0,0.0,0.0,0.0,0.0,0.0,0.0,0.0,-1.7849,-1.7596,-1.6803,-1.6613,-1.6315,-1.5568,-1.5391,-1.5319,-1.5345,-1.6041,-1.6581,0.0,0.0,0.0,0.0,0.0,0.0,0.0,0.0,0.0,0.0,0.0,0.0,0.0,0.0,0.0,0.0,0.0,0.0,0.0,0.0,0.0,0.0,0.0,0.0,0.0,0.0,0.0,-1.7195,-1.7348,0.0,0.0,0.0,0.0,0.0,0.0,0.0,0.0,0.0,0.0,0.0,-2.211,-2.2429,0.0,0.0,0.0,0.0,0.0,0.0,0.0,0.0,0.0,0.0,0.0,0.0,-2.0063,-2.0043,-1.9537,-1.8719,-1.7588,-1.6989,-1.6288,-1.5429,-1.5405,-1.4266,-1.1883,0.0,0.0,0.0,0.0,0.0,0.0,0.0,0.0,0.0,0.0,0.0,0.0,0.0,0.0,0.0,0.0,0.0,0.0,0.0,0.0,0.0,0.0,0.0,0.0,0.0,-0.5692,0.0,0.0,0.0,0.0,0.0,0.0,0.0,0.0,0.0,0.0,0.0,-1.8417,-1.8487,-1.8701,-1.8643,-1.8175,-1.7766,-1.7416,0.0,0.0,0.0,0.0,0.0,0.0,0.0,0.0,0.0,0.0,0.0,0.0,0.0,0.0,-1.7575,-1.7484,-1.7461,-1.7562,-1.7808,0.0,0.0,0.0,0.0,0.0,0.0,0.0,0.0,0.0,0.0,0.0,0.0,0.0,0.0,-1.8624,0.0,-1.8787,0.0,0.0,0.0,0.0,0.0,0.0,0.0,0.0,-2.2831,-2.2912,-2.3253,-2.3313,-2.3205,0.0,-2.3254,-2.2118,0.0,0.0,0.0,0.0,0.0,0.0,0.0,0.0,-2.0507,-2.0487,-2.0019,-1.9336,-1.8476,-1.789,-1.7047,-1.5887,-1.5245,-1.4044,-1.2233,-1.07,-0.9344,0.0,0.0,0.0,0.0,0.0,0.0,0.0,0.0,0.0,0.0,0.0,0.0,0.0,0.0,0.0,0.0,0.0,0.0,0.0,0.0,0.0,0.0,0.0,-0.608,0.0,0.0,0.0,0.0,0.0,0.0,0.0,0.0,0.0,-1.7602,-1.8572,-1.9331,-1.9419,-1.9614,-1.9575,-1.9049,0.0,0.0,0.0,0.0,0.0,0.0,0.0,-1.839,-1.8459,-1.8651,-1.8807,-1.8805,-1.8514,-1.8387,-1.8724,0.0,0.0,-1.8473,-1.8353,-1.8434,-1.8737,-1.8796,-1.881,-1.8873,-1.8872,-1.8884,0.0,0.0,0.0,0.0,0.0,0.0,0.0,0.0,-2.1295,-2.137,0.0,-2.1531,0.0,0.0,0.0,0.0,0.0,-2.2338,0.0,0.0,-2.3034,-2.3127,-2.3896,-2.3995,-2.362,-2.2943,-2.381,-2.3763,-2.2868,-2.2192,0.0,0.0,0.0,0.0,0.0,0.0,-2.0503,-2.0504,-2.0544,-2.0175,-1.9315,-1.9266,-1.8453,-1.6707,-1.5005,-1.4014,-1.3708,-1.1401,-0.9932,-0.9661,-0.8162,0.0,0.0,0.0,0.0,0.0,0.0,0.0,0.0,0.0,0.0,0.0,0.0,0.0,0.0,0.0,0.0,0.0,0.0,0.0,0.0,-0.6924,0.0,0.0,0.0,0.0,0.0,0.0,0.0,0.0,0.0,0.0,-1.9385,-1.938,-1.9651,-2.0527,0.0,0.0,0.0,0.0,-1.9097,-1.8239,-1.81,-1.8118,-1.8118,-1.8798,-1.9324,-1.9346,0.0,0.0,-2.0489,-2.049,-2.0425,-2.0483,-2.0432,-2.0223,-1.9396,-1.9244,-1.9494,-2.0253,-2.038,-2.0476,-2.0479,-2.033,-2.039,-2.1972,0.0,0.0,0.0,0.0,-2.0708,-2.0824,-2.0941,-2.1067,-2.1169,-2.1251,-2.1366,0.0,0.0,0.0,0.0,0.0,0.0,-2.3416,-2.4302,-2.419,-2.4274,-2.462,-2.4736,-2.4648,-2.4462,-2.4812,-2.4543,-2.3694,-2.3512,-2.274,-2.1385,0.0,0.0,0.0,0.0,-2.0509,-2.0516,-2.0525,-2.0139,-1.9321,-1.9296,-1.8442,-1.6678,-1.6083,-1.5173,-1.385,-1.3035,-1.1699,-0.9791,-0.9202,0.0,0.0,0.0,0.0,0.0,0.0,0.0,0.0,0.0,0.0,0.0,0.0,0.0,0.0,0.0,0.0,0.0,0.0,0.0,-0.6773,-0.7268,-0.8224,0.0,0.0,0.0,0.0,0.0,0.0,0.0,0.0,0.0,-2.1063,-2.0611,-2.0552,0.0,0.0,-2.1448,-2.1196,-2.1136,-2.0861,-1.9981,-1.9862,0.0,0.0,-2.0031,-2.0168,-2.0217,-2.0408,-2.0579,-2.0577,-2.0564,-2.0558,-2.0572,-2.057,-2.0481,-2.0265,-2.0144,-2.024,-2.0498,-2.0523,-2.0527,-2.0566,-2.0523,-2.0515,-2.33,-2.1619,-2.1562,-2.1447,-2.13,-2.1342,-2.143,-2.1604,-2.1697,-2.1812,-2.1901,-2.201,-2.2096,-2.218,-2.2365,0.0,0.0,0.0,-2.3875,-2.4476,-2.4594,-2.4689,-2.4794,-2.4921,-2.4974,-2.4994,-2.5122,-2.4919,-2.4394,-2.4504,-2.3715,-2.2125,0.0,0.0,-2.0465,-2.0445,-2.0469,-2.0503,-2.0516,-2.0252,-1.9785,-1.9431,-1.8734,-1.7684,-1.7253,-1.6317,-1.4884,-1.4435,-1.3286,-1.1307,-1.0473,-0.9946,0.0,0.0,0.0,0.0,0.0,0.0,0.0,0.0,0.0,0.0,0.0,-1.4336,0.0,0.0,0.0,0.0,-0.8901,-0.8083,-0.8086,-0.9002,0.0,0.0,0.0,0.0,0.0,0.0,0.0,-2.0861,-2.1365,-2.1795,-2.233,-2.194,-2.1668,-2.1865,-2.2176,-2.2272,-2.1957,0.0,-2.1608,-2.0726,-2.0609,-2.0609,-2.0609,-2.0566,-2.0566,-2.0593,-2.0609,-2.0607,-2.0591,-2.0609,-2.0609,-2.0596,-2.0605,-2.0604,-2.0605,-2.0546,-2.0527,-2.0586,-2.0544,-2.0518,-2.0551,-2.0814,-2.1015,-2.4456,-2.3852,-2.3589,-2.3134,-2.2545,-2.2504,-2.2579,-2.2764,-2.2825,-2.2944,-2.307,-2.3126,-2.3265,-2.3407,-2.358,0.0,-2.3896,-2.4078,-2.4192,-2.4284,-2.4481,-2.4564,-2.458,-2.4704,-2.4779,-2.4779,-2.4915,-2.4981,-2.4994,-2.5111,-2.4345,-2.2719,-2.2018,-2.1249,-2.0427,-2.0381,-2.0419,-2.0487,-2.0488,-2.0499,-2.048,-1.971,-1.9266,-1.9182,-1.8358,-1.7473,-1.6529,-1.5687,-1.4718,-1.3632,-1.202,-1.1333,-1.1757,0.0,0.0,0.0,0.0,0.0,0.0,0.0,0.0,0.0,0.0,0.0,0.0,0.0,0.0,0.0,-0.9633,0.0,-1.0665,-1.1709,0.0,0.0,0.0,-1.7171,-1.9104,-2.0147,-2.1042,-2.1906,0.0,0.0,-2.3288,0.0,-2.2999,-2.2204,-2.2747,-2.2937,-2.2213,-2.2078,-2.1688,-2.0868,-2.0653,-2.0594,-2.0594,-2.0594,-2.0596,-2.0597,-2.0596,-2.0597,-2.0601,-2.0605,-2.0605,-2.0605,-2.0601,-2.0593,-2.0597,-2.0547,-2.0519,-2.0575,-2.0543,-2.0539,-2.0675,-2.123,-2.1749,-2.494,-2.4384,-2.4359,-2.3769,-2.2852,-2.249,-2.2377,-2.2432,-2.2579,-2.2712,-2.2816,-2.2919,-2.3095,-2.3336,-2.3412,-2.3589,-2.3747,-2.3855,-2.3958,-2.4075,-2.4228,-2.434,-2.4375,-2.4513,-2.4594,-2.466,-2.4779,-2.4832,-2.4851,-2.4993,-2.42,-2.2615,-2.242,-2.1681,-2.0372,-2.0372,-2.0421,-2.041,-2.0425,-2.0443,-2.0472,-2.0245,-1.9799,-1.9144,-1.8929,-1.8357,-1.7446,-1.7121,-1.6227,-1.4659,-1.411,-1.3048,-1.1308,-1.1397,0.0,0.0,0.0,0.0,0.0,0.0,0.0,0.0,0.0,-1.7631,-1.7511,0.0,-1.5199,0.0,-1.2937,-1.2285,-1.33,-1.3776,0.0,0.0,-1.854,-1.9906,-2.1822,-2.2308,-2.2806,-2.3679,-2.3958,-2.41,-2.4121,-2.4667,-2.4765,-2.3925,-2.3965,-2.4022,-2.3823,-2.3217,-2.2534,-2.1694,-2.103,-2.0619,-2.0601,-2.0603,-2.0605,-2.0605,-2.0605,-2.0605,-2.0605,-2.0604,-2.0597,-2.059,-2.0562,-2.0536,-2.0533,-2.0506,-2.0503,-2.0522,-2.05,-2.0711,-2.1347,-2.166,-2.1993,-2.5442,-2.4915,-2.4576,-2.4135,-2.3605,-2.2881,-2.2379,-2.2152,-2.2332,-2.247,-2.2579,-2.2764,-2.2952,-2.3119,-2.3265,-2.3383,-2.3544,-2.3682,-2.3771,-2.3873,-2.3996,-2.4095,-2.419,-2.4302,-2.4392,-2.4462,-2.4629,-2.4723,-2.4723,-2.4856,-2.4244,-2.3007,-2.308,-2.2503,-2.132,-2.0635,-2.0327,-2.0353,-2.0396,-2.0413,-2.0448,-2.0418,-2.0161,-1.9685,-1.9674,-1.9252,-1.8365,-1.8259,-1.7535,-1.61,-1.596,-1.5248,-1.3769,-1.3776,-1.4147,0.0,0.0,0.0,0.0,0.0,0.0,0.0,0.0,0.0,0.0,0.0,-1.6637,-1.529,-1.4685,-1.4714,-1.5562,-1.6535,-1.7852,-1.9697,-2.0765,-2.1796,-2.29,-2.3397,-2.3871,-2.4347,-2.4746,-2.4988,-2.4993,-2.5404,-2.552,-2.5047,-2.4972,-2.482,-2.4394,-2.3652,-2.2812,-2.2012,-2.1172,-2.0605,-2.0605,-2.0605,-2.0604,-2.0601,-2.0599,-2.0599,-2.0599,-2.0593,-2.0545,-2.0597,-2.055,-2.0506,-2.05,-2.0506,-2.0515,-2.0542,-2.0795,-2.1184,-2.1651,-2.2042,-2.2566,-2.5903,-2.5336,-2.4676,-2.4413,-2.4398,-2.3473,-2.2661,-2.2032,-2.2123,-2.2248,-2.2377,-2.2632,-2.279,-2.2868,-2.307,-2.3193,-2.3265,-2.3544,-2.3656,-2.3656,-2.381,-2.3915,-2.3976,-2.4096,-2.4192,-2.4266,-2.4481,-2.4566,-2.4601,-2.4723,-2.4369,-2.3611,-2.3714,-2.3341,-2.2448,-2.1158,-2.0472,-2.0453,-2.0411,-2.0379,-2.0379,-2.0495,-2.0559,-2.0578,-2.0656,-2.0347,-1.9632,-1.9507,-1.8942,-1.7842,-1.7689,-1.7506,-1.7164,-1.6541,-1.6638,0.0,-1.7187,0.0,0.0,0.0,0.0,0.0,0.0,0.0,0.0,-1.9758,-1.8136,-1.5629,-1.6228,-1.7083,-1.7898,-1.9429,-2.076,-2.1724,-2.2566,-2.3133,-2.3327,-2.4049,-2.4553,-2.4546,-2.523,-2.5687,-2.5648,-2.5687,-2.5687,-2.5629,-2.5609,-2.5344,-2.4678,-2.386,-2.3061,-2.2163,-2.1224,-2.0599,-2.0599,-2.0599,-2.0576,-2.0579,-2.0577,-2.0594,-2.0577,-2.0553,-2.0509,-2.057,-2.0542,-2.0513,-2.0513,-2.0508,-2.0502,-2.0488,-2.1099,-2.1676,-2.1958,-2.2599,-2.3378,-2.5821,-2.5781,-2.514,-2.4637,-2.4243,-2.41,-2.3502,-2.2597,-2.2165,-2.2044,-2.2248,-2.2388,-2.2515,-2.2579,-2.279,-2.2919,-2.2995,-2.3265,-2.3383,-2.3383,-2.3634,-2.3743,-2.3747,-2.3955,-2.4018,-2.4075,-2.4266,-2.4375,-2.4429,-2.4564,-2.4233,-2.3461,-2.3512,-2.3135,-2.2369,0.0,0.0,0.0,-2.0597,-2.0325,-2.0346,-2.1023,-2.1404,-2.1456,-2.2094,0.0,-2.2195,-2.2111,-2.1342,-1.9779,-1.9612,0.0,0.0,0.0,0.0,0.0,0.0,0.0,0.0,0.0,0.0,0.0,-2.3673,-2.3262,-2.2482,-2.2028,-2.1517,-2.0884,-2.0399,-2.0513,-2.1418,-2.134,-2.1891,-2.3396,-2.3813,-2.4219,-2.493,-2.5238,-2.5386,-2.5371,-2.5516,-2.5621,-2.5625,-2.5609,-2.5629,-2.5629,-2.5605,-2.5551,-2.5382,-2.4634,-2.3823,-2.2947,-2.1581,-2.0662,-2.0603,-2.0543,-2.0521,-2.0533,-2.0531,-2.0528,-2.0528,-2.0497,-2.051,-2.0529,-2.0499,-2.0508,-2.0511,-2.0517,-2.0541,-2.0424,-2.113,-2.1906,-2.2616,-2.3405,-2.4225,-2.6358,0.0,-2.5497,-2.5052,0.0,-2.4238,-2.3879,-2.3434,-2.2571,-2.2129,-2.2003,-2.2147,-2.2276,-2.2422,-2.2596,-2.2712,-2.2816,-2.3003,-2.3126,-2.3199,-2.3383,-2.3481,-2.3629,-2.3768,-2.3873,-2.3917,-2.4134,-2.4266,-2.4303,-2.4482,-2.4344,-2.3969,-2.4045,-2.3881,-2.3493,-2.3181,-2.2702,-2.2008,-2.1646,-2.1496,-2.1548,-2.1984,-2.2238,-2.2313,0.0,0.0,0.0,0.0,0.0,0.0,0.0,0.0,0.0,0.0,0.0,-2.1321,-2.1479,-2.1733,-2.2228,-2.3082,-2.3767,-2.4232,-2.4639,-2.4515,-2.3543,-2.2949,-2.255,-2.2464,-2.2064,-2.2223,-2.311,-2.2959,-2.3319,-2.4557,-2.4795,-2.5052,-2.5409,-2.5556,-2.5599,-2.56,-2.561,-2.56,-2.5604,-2.5604,-2.5604,-2.5604,-2.5604,-2.5604,-2.5531,-2.4904,-2.3959,-2.2692,-2.1834,-2.1051,-2.0625,-2.0528,-2.0503,-2.05,-2.0516,-2.0513,-2.051,-2.0515,-2.0508,-2.05,-2.0472,-2.0458,-2.0492,-2.0792,-2.1092,-2.1177,-2.2069,-2.2991,-2.3514,-2.3908,-2.445,-2.7034,-2.6006,-2.5757,-2.5462,-2.5068,-2.4335,-2.4071,-2.4037,0.0,0.0,0.0,-2.1949,-2.2061,-2.2225,-2.2377,-2.2515,-2.2632,-2.279,-2.2919,-2.3028,-2.3144,-2.3289,-2.343,-2.3589,-2.3703,-2.3774,-2.4016,-2.4133,-2.4208,-2.4339,-2.4465,-2.4482,-2.462,-2.4701,-2.467,-2.4167,-2.3594,-2.3015,-2.2792,-2.271,-2.2776,-2.2928,-2.3047,-2.3114,-2.3269,-2.3335,-2.3338,-2.3319,-2.3212,-2.2968,-2.2882,-2.2734,-2.2551,-2.2571,-2.2622,-2.2632,-2.2956,-2.3118,-2.3141,-2.3952,-2.4438,-2.4432,-2.5101,-2.5158,-2.4384,-2.3629,-2.316,-2.3083,-2.3083,-2.3429,-2.4178,-2.4301,-2.4615,-2.5324,-2.5453,-2.551,-2.5505,-2.5557,-2.5576,-2.5568,-2.5585,-2.5576,-2.5571,-2.5571,-2.5595,-2.5576,-2.5571,-2.5576,-2.5484,-2.4899,-2.386,-2.2497,-2.1932,-2.1464,-2.0747,-2.051,-2.051,-2.0499,-2.0496,-2.0488,-2.048,-2.0467,-2.0478,-2.0488,-2.0517,-2.0657,-2.0712,-2.1359,-2.1888,-2.1927,-2.3098,-2.4196,-2.4215,-2.432,-2.4629,-2.7365,-2.7178,-2.6001,-2.5559,-2.5561,-2.4826,-2.4265,-2.385,-2.2737,-2.2313,-2.2377,-2.1927,-2.1797,-2.1886,-2.218,-2.2338,-2.2349,-2.2623,-2.2755,0.0,-2.302,-2.3168,-2.3241,-2.343,-2.3589,-2.3721,-2.3831,-2.3937,-2.4094,-2.4209,-2.4303,-2.4412,-2.45,-2.4584,-2.4698,-2.4663,-2.462,-2.4553,-2.3286,-2.2649,-2.2718,-2.3439,-2.388,-2.3944,-2.4647,-2.505,-2.5045,-2.5031,-2.4696,-2.3947,-2.3842,-2.3467,-2.2738,-2.2729,-2.2719,-2.2814,-2.3493,-2.3951,-2.403,-2.4826,-2.5318,-2.5325,-2.5434,-2.5426,-2.5239,-2.5118,-2.5014,-2.4985,-2.4928,-2.5052,-2.5196,-2.5174,-2.5219,-2.5382,-2.5472,-2.5515,-2.5503,-2.5505,-2.5525,-2.5531,-2.5506,-2.5531,-2.5538,-2.5518,-2.5538,-2.5512,-2.5518,-2.5512,-2.5408,-2.4835,-2.3971,-2.3041,-2.2263,-2.1504,-2.0799,-2.0504,-2.0495,-2.0515,-2.0463,-2.0415,-2.043,-2.0415,-2.0443,-2.0457,-2.0995,-2.1415,-2.1514,-2.2172,-2.2641,-2.2782,-2.357,-2.4171,-2.4242,-2.4667,-2.512,-2.7719,-2.7365,-2.6809,-2.6174,-2.5517,-2.4901,-2.4483,-2.4202,-2.3417,-2.3039,-2.2978,-2.2736,-2.2768,-2.2957,-2.2775,-2.2757,-2.2885,-2.2702,-2.2632,-2.2712,-2.2893,-2.3028,-2.3151,-2.336,-2.3499,-2.3589,-2.3743,-2.3852,-2.3955,-2.4036,-2.4152,-2.4284,-2.443,-2.4534,-2.4584,-2.4695,-2.4753,-2.4798,-2.4208,-2.3926,-2.4011,-2.4391,-2.4636,-2.4706,-2.5091,-2.5303,-2.5339,-2.5332,-2.5178,-2.4774,-2.4697,-2.4484,-2.4139,-2.4101,-2.412,-2.4159,-2.4561,-2.4827,-2.4844,-2.5263,-2.5511,-2.5511,-2.5511,-2.5484,-2.5456,-2.5432,-2.5387,-2.5397,-2.5397,-2.5397,-2.5395,-2.5393,-2.5421,-2.5456,-2.5472,-2.5507,-2.5515,-2.5503,-2.5517,-2.5511,-2.5511,-2.5511,-2.5511,-2.5511,-2.5511,-2.5511,-2.5511,-2.5511,-2.5511,-2.5189,-2.4644,-2.3828,-2.2993,-2.2138,-2.1303,-2.0716,-2.0497,-2.0439,-2.0429,-2.0385,-2.0385,-2.0394,-2.0615,-2.1016,-2.1469,-2.1823,-2.2216,-2.2994,-2.3435,-2.3623,-2.4204,-2.4658,-2.4803,-2.5051,-2.5222,-2.8242,-2.7626,-2.7457,-2.6733,-2.5679,-2.5206,-2.4922,-2.4776,-2.4397,-2.4056,-2.3735,-2.3503,-2.36,-2.3836,-2.3404,-2.3374,-2.3502,-2.3141,-2.3038,-2.3175,-2.3292,-2.338,-2.3358,-2.3488,-2.3561,-2.3534,-2.3674,-2.3747,-2.3831,-2.3896,-2.4036,-2.419,-2.4376,-2.4465,-2.45,-2.4596,-2.4676,-2.4707,-2.4856,-2.4966,-2.5076,-2.5075,-2.5122,-2.5179,-2.5179,-2.5203,-2.5245,-2.5283,-2.5282,-2.5273,-2.5233,-2.5241,-2.5262,-2.5282,-2.5292,-2.5303,-2.5351,-2.5397,-2.5395,-2.5459,-2.5484,-2.5464,-2.5484,-2.5511,-2.5511,-2.5456,-2.5421,-2.5423,-2.5423,-2.5432,-2.5421,-2.5429,-2.5437,-2.5503,-2.5511,-2.5511,-2.5507,-2.5515,-2.5515,-2.5517,-2.5524,-2.5517,-2.5524,-2.5524,-2.5517,-2.5517,-2.5524,-2.5517,-2.5517,-2.5517,-2.5188,-2.4587,-2.3799,-2.2953,-2.2113,-2.128,-2.0815,-2.0698,-2.0518,-2.0557,-2.0609,-2.0694,-2.103,-2.1759,-2.2118,-2.2508,-2.3107,-2.3816,-2.4281,-2.4427,-2.4822,-2.5215,-2.5173,-2.5176,-2.5149,-2.8935,-2.8258,-2.7703,-2.698,-2.6348,-2.6298,-2.5954,-2.5443,-2.5545,-2.5318,-2.4775,-2.3779,-2.3511,-2.3651,-2.3836,-2.3998,-2.4125,-2.4262,-2.4347,-2.4474,-2.4706,-2.4514,-2.4043,-2.4086,-2.3894,-2.3595,-2.3552,-2.3701,-2.3819,-2.3813,-2.3955,-2.419,-2.4284,-2.4375,-2.4482,-2.4495,-2.458,-2.4698,-2.4726,-2.4813,-2.4991,-2.5012,-2.5044,-2.5125,-2.5106,-2.5134,-2.5116,-2.5182,-2.5225,-2.5214,-2.5209,-2.5212,-2.5212,-2.5212,-2.5233,-2.5303,-2.5293,-2.5332,-2.5387,-2.5393,-2.5401,-2.5421,-2.5456,-2.5511,-2.5511,-2.5503,-2.5484,-2.5484,-2.5484,-2.5484,-2.5484,-2.5503,-2.5484,-2.5503,-2.5511,-2.5511,-2.5511,-2.5511,-2.5511,-2.5511,-2.5519,-2.5511,-2.5519,-2.5519,-2.5519,-2.5519,-2.5507,-2.5507,-2.5507,-2.5499,-2.548,-2.5229,-2.4631,-2.3812,-2.2998,-2.2159,-2.1649,-2.1527,-2.0933,-2.0927,-2.1294,-2.1538,-2.1763,-2.2617,-2.3259,-2.3675,-2.4042,-2.4601,-2.5091,-2.4994,-2.5116,-2.5187,-2.5118,-2.5088,-2.5044,-2.9612,-2.8981,-2.8704,-2.798,-2.7011,-2.6594,-2.63,-2.6053,-2.624,-2.6197,-2.5984,-2.5727,-2.5329,-2.4782,-2.464,-2.4596,-2.4713,-2.4587,-2.4526,-2.4615,-2.4888,-2.4862,-2.4681,-2.4838,-2.4804,-2.459,-2.4258,-2.4171,-2.4203,-2.3963,-2.3876,-2.3958,-2.4114,-2.4228,-2.4303,-2.4375,-2.4464,-2.4584,-2.458,-2.466,-2.4806,-2.4875,-2.4912,-2.4999,-2.5012,-2.5044,-2.5049,-2.5106,-2.5125,-2.5151,-2.5144,-2.5141,-2.5206,-2.5206,-2.5209,-2.5243,-2.5274,-2.5322,-2.5388,-2.5387,-2.5385,-2.5385,-2.544,-2.5437,-2.5429,-2.5464,-2.5511,-2.5511,-2.5511,-2.5511,-2.5511,-2.5511,-2.5511,-2.5511,-2.5511,-2.5511,-2.5511,-2.5511,-2.5511,-2.5511,-2.5511,-2.5511,-2.5511,-2.5511,-2.5511,-2.5511,-2.5511,-2.5503,-2.5511,-2.5511,-2.5484,-2.5418,-2.5116,-2.4609,-2.3843,-2.2984,-2.2506,-2.2344,-2.2137,-2.2095,-2.2204,-2.2331,-2.2604,-2.3463,-2.387,-2.4303,-2.4677,-2.4907,-2.5239,-2.5206,-2.518,-2.5113,-2.5063,-2.5025,-2.4993,-3.0289,-2.972,-2.9504,-2.8858,-2.7904,-2.7226,-2.6826,-2.6718,-2.6896,-2.6876,-2.6733,-2.7078,-2.6789,-2.6066,-2.5554,-2.5398,-2.5342,-2.5096,-2.5023,-2.5135,-2.5367,-2.5416,-2.5333,-2.5484,-2.553,-2.5349,-2.4944,-2.4701,-2.4581,-2.4231,-2.3945,-2.385,-2.3955,-2.4074,-2.4133,-2.4247,-2.4321,-2.4411,-2.4462,-2.4549,-2.465,-2.4707,-2.4783,-2.4856,-2.4936,-2.494,-2.4968,-2.5057,-2.5057,-2.5057,-2.5089,-2.5126,-2.5156,-2.5187,-2.5172,-2.5209,-2.5233,-2.5293,-2.5341,-2.537,-2.536,-2.5369,-2.5387,-2.5385,-2.5393,-2.5448,-2.5468,-2.5468,-2.5476,-2.5464,-2.5511,-2.5511,-2.5511,-2.5511,-2.5511,-2.5511,-2.5511,-2.5511,-2.5511,-2.5511,-2.5511,-2.5511,-2.5511,-2.5484,-2.5456,-2.5484,-2.5476,-2.5476,-2.5476,-2.5476,-2.5448,-2.5412,-2.5404,-2.5153,-2.4579,-2.3806,-2.3327,-2.3138,-2.3044,-2.2797,-2.3116,-2.3148,-2.3399,-2.4149,-2.4254,-2.4434,-2.4854,-2.5107,-2.516,-2.5101,-2.5082,-2.5057,-2.5012,-2.4999,-2.4985,-3.0982,-3.0335,-2.9689,-2.9396,-2.9258,-2.8596,-2.795,-2.7411,-2.7596,-2.7344,-2.6873,-2.7115,-2.719,-2.7073,-2.6711,-2.639,-2.6165,-2.6137,-2.6265,-2.6505,-2.6589,-2.6396,-2.6061,-2.6057,-2.5854,-2.5602,-2.5437,-2.5129,-2.4664,-2.4569,-2.4288,-2.3819,-2.3828,-2.3876,-2.3996,-2.4113,-2.4209,-2.4229,-2.4375,-2.45,-2.4498,-2.4582,-2.4679,-2.4791,-2.4798,-2.4837,-2.4902,-2.4991,-2.501,-2.4991,-2.5063,-2.5101,-2.5082,-2.5095,-2.5139,-2.5191,-2.5206,-2.5209,-2.5231,-2.5282,-2.5302,-2.5313,-2.5361,-2.5388,-2.5397,-2.5415,-2.5415,-2.5395,-2.5412,-2.5429,-2.5484,-2.5503,-2.5511,-2.5511,-2.5511,-2.5511,-2.5511,-2.5484,-2.5511,-2.5503,-2.5484,-2.5503,-2.5484,-2.5429,-2.5401,-2.5401,-2.5404,-2.5395,-2.5415,-2.5423,-2.5395,-2.5397,-2.5389,-2.537,-2.5243,-2.4626,-2.4135,-2.3983,-2.3676,-2.3186,-2.3621,-2.4034,-2.4455,-2.4769,-2.487,-2.495,-2.5068,-2.5107,-2.5082,-2.5057,-2.5025,-2.4999,-2.4972,-2.4991,-2.4977,-3.1643,-3.0982,-3.0335,-3.0058,-3.0027,-2.9797,-2.9319,-2.8688,-2.8867,-2.8575,-2.8154,-2.8227,-2.811,-2.7842,-2.7774,-2.7526,-2.7189,-2.7427,-2.735,-2.71,-2.7279,-2.7131,-2.6666,-2.6739,-2.6805,-2.6702,-2.6335,-2.5797,-2.5163,-2.4817,-2.4504,-2.4288,-2.3916,-2.3771,-2.3876,-2.3935,-2.3998,-2.4134,-2.4247,-2.4303,-2.4339,-2.4464,-2.4568,-2.4617,-2.4711,-2.4753,-2.4836,-2.4884,-2.494,-2.4991,-2.5018,-2.5031,-2.5044,-2.5089,-2.5114,-2.5139,-2.5125,-2.5149,-2.516,-2.5217,-2.525,-2.5261,-2.5302,-2.5341,-2.5341,-2.537,-2.5388,-2.5397,-2.5387,-2.5404,-2.5432,-2.5476,-2.5511,-2.5511,-2.5511,-2.5511,-2.5503,-2.5456,-2.5429,-2.5429,-2.544,-2.5432,-2.5432,-2.5404,-2.5385,-2.5404,-2.5387,-2.5388,-2.5388,-2.536,-2.5341,-2.5341,-2.5341,-2.5321,-2.5264,-2.5111,-2.4861,-2.4793,-2.461,-2.4484,-2.4694,-2.4662,-2.4965,-2.4912,-2.5106,-2.512,-2.5063,-2.5057,-2.5018,-2.5004,-2.4985,-2.4972,-2.4931,-2.4931,-2.4917,-3.2136,-3.1643,-3.1012,-3.0735,-3.072,-3.0505,-3.0166,-2.975,-2.9871,-2.9757,-2.945,-2.9343,-2.9092,-2.8833,-2.8729,-2.857,-2.8285,-2.8249,-2.7937,-2.7607,-2.7908,-2.772,-2.7301,-2.7415,-2.7454,-2.7352,-2.7051,-2.6503,-2.5932,-2.5506,-2.5066,-2.4599,-2.4198,-2.3952,-2.3801,-2.3771,-2.3894,-2.3996,-2.4094,-2.4152,-2.421,-2.4339,-2.4447,-2.4517,-2.458,-2.4676,-2.4764,-2.4842,-2.4907,-2.4977,-2.4991,-2.4991,-2.4999,-2.5044,-2.5076,-2.507,-2.5063,-2.5088,-2.5101,-2.5137,-2.5172,-2.5176,-2.5217,-2.5258,-2.5261,-2.5302,-2.5322,-2.5322,-2.5361,-2.537,-2.5379,-2.5425,-2.5451,-2.5468,-2.5448,-2.5468,-2.5468,-2.5421,-2.5385,-2.5395,-2.5387,-2.5397,-2.5388,-2.5379,-2.537,-2.5351,-2.5351,-2.5322,-2.5332,-2.5312,-2.5262,-2.5271,-2.525,-2.5228,-2.5168,-2.5102,-2.5086,-2.5048,-2.4998,-2.513,-2.5184,-2.518,-2.5144,-2.5107,-2.5063,-2.5038,-2.5012,-2.5004,-2.4977,-2.4964,-2.4945,-2.4931,-2.4884,-2.4851,-2.4842,-3.2398,-3.2259,-3.1674,-3.1397,-3.132,-3.0828,-3.0489,-3.0443,-3.0516,-3.0576,-3.0479,-3.0206,-2.9989,-3.0054,-2.964,-2.9428,-2.9259,-2.8611,-2.8272,-2.8295,-2.8434,-2.826,-2.7858,-2.8015,-2.7825,-2.7382,-2.7496,-2.7274,-2.6715,-2.6578,-2.5985,-2.4942,-2.4807,-2.4485,-2.3715,-2.3902,-2.388,-2.3925,-2.399,-2.4054,-2.419,-2.421,-2.4303,-2.4446,-2.4497,-2.458,-2.4711,-2.4764,-2.4837,-2.4902,-2.4959,-2.501,-2.4991,-2.501,-2.5004,-2.5012,-2.4993,-2.5044,-2.507,-2.5101,-2.5101,-2.5099,-2.5118,-2.5149,-2.5195,-2.5187,-2.5209,-2.5212,-2.5252,-2.5292,-2.5292,-2.5293,-2.5351,-2.5397,-2.5406,-2.5406,-2.5387,-2.5387,-2.5397,-2.5379,-2.537,-2.5361,-2.5313,-2.5293,-2.5292,-2.5292,-2.5252,-2.5212,-2.5212,-2.5209,-2.5206,-2.5195,-2.5172,-2.5137,-2.5113,-2.5088,-2.5144,-2.5168,-2.5099,-2.5125,-2.5101,-2.5095,-2.5082,-2.5057,-2.5025,-2.5012,-2.4972,-2.4945,-2.4931,-2.4917,-2.4917,-2.487,-2.4827,-2.4779,-2.4783,-3.2813,-3.2398,-3.2182,-3.209,-3.2059,-3.1844,-3.1536,-3.1089,-3.1127,-3.1037,-3.0822,-3.0639,-3.0694,-3.086,-3.0783,-3.0482,-3.0099,-2.9862,-2.9491,-2.9009,-2.9062,-2.8898,-2.8575,-2.8674,-2.8562,-2.8152,-2.7753,-2.7542,-2.7326,-2.7028,-2.6499,-2.6127,-2.5679,-2.5403,-2.5106,-2.4741,-2.4505,-2.4486,-2.4085,-2.3917,-2.3996,-2.4133,-2.4266,-2.4303,-2.441,-2.4549,-2.4647,-2.4738,-2.4823,-2.4902,-2.4926,-2.4945,-2.4977,-2.4991,-2.4991,-2.5004,-2.5004,-2.5004,-2.5018,-2.5012,-2.5019,-2.5057,-2.5076,-2.5114,-2.5139,-2.5182,-2.5194,-2.5168,-2.5164,-2.5179,-2.5209,-2.522,-2.5339,-2.5322,-2.5332,-2.5332,-2.5351,-2.5322,-2.5303,-2.5283,-2.5253,-2.5243,-2.5231,-2.5239,-2.5228,-2.5187,-2.5145,-2.5122,-2.513,-2.5137,-2.5132,-2.512,-2.5095,-2.5076,-2.5082,-2.507,-2.5082,-2.5095,-2.5095,-2.5063,-2.5038,-2.5044,-2.5031,-2.4999,-2.4985,-2.4972,-2.4945,-2.4917,-2.4903,-2.4856,-2.4842,-2.4798,-2.4734,-2.4723,-2.4707,-3.3167,-3.2752,-3.2505,-3.2398,-3.2398,-3.2398,-3.2167,-3.1797,-3.1751,-3.1681,-3.1535,-3.1275,-3.1334,-3.1539,-3.1433,-3.1133,-3.08,-3.0942,-3.061,-2.9864,-2.9749,-2.953,-2.9135,-2.9132,-2.8905,-2.8551,-2.814,-2.7849,-2.7654,-2.7406,-2.7101,-2.6756,-2.6419,-2.6093,-2.5886,-2.5421,-2.5201,-2.5188,-2.4861,-2.4679,-2.4765,-2.4931,-2.5051,-2.5111,-2.5264,-2.5409,-2.5492,-2.5592,-2.5405,-2.4984,-2.4898,-2.4964,-2.4996,-2.4991,-2.4991,-2.4991,-2.4991,-2.4991,-2.4991,-2.5004,-2.4999,-2.5031,-2.5329,-2.5519,-2.5608,-2.5748,-2.6009,-2.6022,-2.6085,-2.6034,-2.6123,-2.6104,-2.6006,-2.5658,-2.5405,-2.5292,-2.5262,-2.5241,-2.519,-2.5168,-2.5157,-2.5164,-2.516,-2.518,-2.5149,-2.5106,-2.5082,-2.5069,-2.5057,-2.5063,-2.5051,-2.5057,-2.5044,-2.5044,-2.5063,-2.5031,-2.4999,-2.5031,-2.5031,-2.5031,-2.5018,-2.5018,-2.5004,-2.4945,-2.4912,-2.4903,-2.4875,-2.4861,-2.4865,-2.4817,-2.4768,-2.4723,-2.4676,-2.4626,-2.4613,-3.3429,-3.3321,-3.2675,-3.2398,-3.2398,-3.2398,-3.2351,-3.2367,-3.2351,-3.2485,-3.2594,-3.2133,-3.2055,-3.212,-3.1776,-3.151,-3.1451,-3.1598,-3.1341,-3.0862,-3.0582,-3.017,-2.9755,-2.9539,-2.9178,-2.8833,-2.8719,-2.8345,-2.7844,-2.7959,-2.7632,-2.704,-2.7006,-2.671,-2.6247,-2.5943,-2.5922,-2.5971,-2.5913,-2.5901,-2.6023,-2.619,-2.6341,-2.6447,-2.6536,-2.6656,-2.6727,-2.68,-2.6343,-2.5209,-2.5277,-2.5324,-2.5148,-2.5124,-2.5313,-2.5262,-2.5129,-2.5313,-2.5237,-2.5427,-2.537,-2.5479,-2.5972,-2.628,-2.6403,-2.6854,-2.721,-2.7295,-2.7333,-2.7423,-2.7404,-2.7366,-2.7062,-2.6447,-2.5688,-2.5256,-2.5187,-2.5145,-2.5111,-2.5106,-2.5082,-2.5088,-2.5095,-2.5114,-2.5082,-2.5101,-2.507,-2.5051,-2.5019,-2.5006,-2.4993,-2.4999,-2.5018,-2.5018,-2.5037,-2.5037,-2.4985,-2.4959,-2.4991,-2.4959,-2.4959,-2.4964,-2.4945,-2.4903,-2.4842,-2.4813,-2.4802,-2.4787,-2.4772,-2.4726,-2.4695,-2.4666,-2.4615,-2.4547,-2.4497,-3.3744,-3.3336,-3.2675,-3.2398,-3.2398,-3.2398,-3.2398,-3.2398,-3.2398,-3.2578,-3.278,-3.271,-3.2729,-3.3008,-3.2803,-3.2487,-3.2193,-3.2267,-3.1982,-3.1421,-3.1185,-3.0915,-3.061,-3.0272,-3.0035,-2.9937,-2.9589,-2.9129,-2.8543,-2.8622,-2.8335,-2.7731,-2.7725,-2.7709,-2.7522,-2.6942,-2.6718,-2.6688,-2.6236,-2.6111,-2.6206,-2.6322,-2.6381,-2.653,-2.6712,-2.6854,-2.6935,-2.7102,-2.706,-2.6736,-2.6722,-2.6563,-2.6218,-2.6513,-2.6531,-2.6237,-2.6531,-2.6792,-2.6792,-2.6773,-2.6807,-2.6859,-2.6963,-2.7157,-2.7165,-2.7365,-2.7528,-2.7523,-2.7523,-2.758,-2.7571,-2.7571,-2.7433,-2.7157,-2.6111,-2.5258,-2.5189,-2.512,-2.5088,-2.5076,-2.5095,-2.5051,-2.5038,-2.5044,-2.5012,-2.5018,-2.5018,-2.5004,-2.4985,-2.4966,-2.4972,-2.4991,-2.4991,-2.4991,-2.4991,-2.4991,-2.4977,-2.4931,-2.4912,-2.4898,-2.4884,-2.4889,-2.4856,-2.4827,-2.4802,-2.4772,-2.4742,-2.4726,-2.4679,-2.4631,-2.458,-2.453,-2.4515,-2.4464,-2.4375,-3.4342,-3.3798,-3.3106,-3.2644,-3.2413,-3.2398,-3.2398,-3.2398,-3.2398,-3.2594,-3.2843,-3.2912,-3.3058,-3.3309,-3.3277,-3.3087,-3.2776,-3.2934,-3.2686,-3.2031,-3.1548,-3.1179,-3.0969,-3.076,-3.0697,-3.052,-3.0352,-2.988,-2.9298,-2.9088,-2.88,-2.8464,-2.8213,-2.8144,-2.8093,-2.7799,-2.7522,-2.7495,-2.7136,-2.6997,-2.7054,-2.7194,-2.7349,-2.747,-2.76,-2.7733,-2.7899,-2.811,-2.7976,-2.7495,-2.7299,-2.7198,-2.6968,-2.7225,-2.7278,-2.6961,-2.7297,-2.7464,-2.7494,-2.7494,-2.7494,-2.7566,-2.774,-2.7975,-2.8092,-2.826,-2.8502,-2.8559,-2.8502,-2.8518,-2.8438,-2.823,-2.8055,-2.7918,-2.6868,-2.5988,-2.5665,-2.5627,-2.5405,-2.5196,-2.5044,-2.5044,-2.4999,-2.5004,-2.4972,-2.4959,-2.4945,-2.4931,-2.4917,-2.4917,-2.4931,-2.495,-2.4931,-2.4917,-2.4917,-2.4917,-2.4903,-2.487,-2.4827,-2.4827,-2.4827,-2.4798,-2.4764,-2.4734,-2.4707,-2.4695,-2.4663,-2.4615,-2.4566,-2.4515,-2.4462,-2.441,-2.4375,-2.4358,-2.4266,-3.494,-3.4472,-3.369,-3.3013,-3.2444,-3.2398,-3.2398,-3.2398,-3.2398,-3.2578,-3.2827,-3.2912,-3.3058,-3.3256,-3.3293,-3.3277,-3.3261,-3.3443,-3.3182,-3.2595,-3.2036,-3.1626,-3.1374,-3.123,-3.1014,-3.0717,-3.0871,-3.0577,-3.0051,-2.9495,-2.9281,-2.9119,-2.8575,-2.8322,-2.8378,-2.8245,-2.8182,-2.812,-2.8076,-2.804,-2.8118,-2.8222,-2.8311,-2.8452,-2.8636,-2.8835,-2.9068,-2.9249,-2.8876,-2.7614,-2.7533,-2.7697,-2.7641,-2.7689,-2.7724,-2.7781,-2.7894,-2.7944,-2.7805,-2.7956,-2.7858,-2.8048,-2.8525,-2.8809,-2.8922,-2.9317,-2.9623,-2.9585,-2.9869,-2.9696,-2.9602,-2.915,-2.8885,-2.873,-2.8116,-2.7414,-2.6745,-2.6413,-2.6039,-2.5356,-2.5229,-2.5129,-2.511,-2.5034,-2.4964,-2.4884,-2.4884,-2.487,-2.4856,-2.4856,-2.4875,-2.4889,-2.487,-2.4823,-2.4842,-2.4856,-2.4827,-2.4798,-2.4738,-2.4707,-2.4704,-2.4689,-2.4654,-2.4642,-2.4629,-2.4582,-2.4513,-2.4479,-2.4429,-2.4393,-2.4321,-2.4248,-2.421,-2.4191,-2.4152,-3.4835,-3.4414,-3.3706,-3.3013,-3.2459,-3.2398,-3.2398,-3.2398,-3.2398,-3.2508,-3.2648,-3.2843,-3.3005,-3.315,-3.324,-3.3293,-3.3293,-3.3471,-3.331,-3.2983,-3.3045,-3.2776,-3.2317,-3.181,-3.1334,-3.1336,-3.165,-3.1394,-3.0784,-3.0602,-3.0448,-2.9986,-2.9325,-2.8976,-2.9055,-2.8556,-2.82,-2.8209,-2.8246,-2.83,-2.8353,-2.8458,-2.8562,-2.8662,-2.89,-2.9093,-2.9251,-2.9334,-2.9247,-2.912,-2.9062,-2.8965,-2.9038,-2.9129,-2.911,-2.9108,-2.9164,-2.9221,-2.9257,-2.9162,-2.9311,-2.925,-2.9344,-2.9645,-2.9642,-2.9737,-2.9888,-2.9907,-2.9907,-2.9907,-2.9851,-2.9758,-2.9572,-2.9458,-2.9309,-2.8896,-2.8199,-2.7513,-2.704,-2.6688,-2.6216,-2.5876,-2.5838,-2.529,-2.5087,-2.4884,-2.4846,-2.4827,-2.4813,-2.4798,-2.4817,-2.4832,-2.4832,-2.4783,-2.4783,-2.4783,-2.4753,-2.4707,-2.4645,-2.4615,-2.4613,-2.4594,-2.4561,-2.4528,-2.4532,-2.4462,-2.4393,-2.4321,-2.4284,-2.4229,-2.4191,-2.4134,-2.4095,-2.4074,-2.4034,-3.479,-3.4414,-3.3706,-3.3013,-3.2459,-3.2398,-3.2398,-3.2398,-3.2398,-3.2453,-3.2648,-3.2843,-3.2951,-3.3096,-3.3256,-3.3293,-3.3346,-3.3503,-3.3569,-3.3485,-3.35,-3.339,-3.3339,-3.2706,-3.2247,-3.2102,-3.2031,-3.1812,-3.1551,-3.1269,-3.0997,-3.0755,-3.0026,-2.9763,-2.9745,-2.9126,-2.8834,-2.8691,-2.8397,-2.8264,-2.8327,-2.8406,-2.8536,-2.8662,-2.8858,-2.9067,-2.9138,-2.9246,-2.9349,-2.9412,-2.9513,-2.9608,-2.9701,-2.9738,-2.9755,-2.9754,-2.9771,-2.9789,-2.977,-2.9789,-2.9787,-2.9842,-2.9861,-2.9859,-2.9841,-2.9857,-2.9839,-2.9857,-2.9857,-2.9857,-2.9857,-2.9859,-2.9861,-2.9861,-2.9808,-2.9565,-2.9094,-2.8428,-2.7746,-2.7396,-2.6868,-2.6733,-2.6434,-2.5985,-2.5665,-2.5631,-2.5502,-2.543,-2.476,-2.476,-2.4742,-2.476,-2.4776,-2.4742,-2.4742,-2.4707,-2.466,-2.4613,-2.4564,-2.4513,-2.4479,-2.4462,-2.4462,-2.4446,-2.4411,-2.4339,-2.4266,-2.4191,-2.4135,-2.4096,-2.4075,-2.4016,-2.3976,-2.3917,-2.3873,-3.4622,-3.426,-3.3644,-3.3013,-3.2459,-3.2398,-3.2398,-3.2398,-3.2398,-3.2468,-3.2594,-3.2773,-3.2966,-3.3043,-3.3256,-3.3309,-3.3346,-3.3555,-3.37,-3.3838,-3.3762,-3.39,-3.391,-3.3648,-3.3303,-3.2884,-3.255,-3.2282,-3.1969,-3.1654,-3.1526,-3.1361,-3.0822,-3.0579,-3.0445,-2.9935,-2.9565,-2.9476,-2.8887,-2.854,-2.847,-2.8479,-2.8484,-2.8662,-2.8834,-2.897,-2.904,-2.913,-2.9262,-2.927,-2.9332,-2.9431,-2.9549,-2.9626,-2.9664,-2.9663,-2.97,-2.9719,-2.9737,-2.9755,-2.9773,-2.9773,-2.979,-2.979,-2.9808,-2.9789,-2.9806,-2.9789,-2.9806,-2.9806,-2.9789,-2.9789,-2.979,-2.9792,-2.9793,-2.9738,-2.9587,-2.9097,-2.8457,-2.7949,-2.7633,-2.7428,-2.7313,-2.7013,-2.6674,-2.6355,-2.6209,-2.5949,-2.5316,-2.5057,-2.5244,-2.5412,-2.5579,-2.5263,-2.5171,-2.5047,-2.4957,-2.4664,-2.4575,-2.4541,-2.4468,-2.4393,-2.4375,-2.4321,-2.4284,-2.4209,-2.4152,-2.4075,-2.4036,-2.3996,-2.3955,-2.3915,-2.3855,-2.3795,-2.3768,-3.392,-3.3567,-3.346,-3.3013,-3.2459,-3.2398,-3.2444,-3.2398,-3.2413,-3.2398,-3.2453,-3.2773,-3.2897,-3.3005,-3.3203,-3.3293,-3.3346,-3.3555,-3.3745,-3.3899,-3.4023,-3.4396,-3.4499,-3.4365,-3.4218,-3.4189,-3.3585,-3.2819,-3.2336,-3.2127,-3.2089,-3.2102,-3.1653,-3.1328,-3.1191,-3.0718,-3.0332,-3.0225,-2.9601,-2.9208,-2.9005,-2.8622,-2.8406,-2.8612,-2.8737,-2.881,-2.8905,-2.8994,-2.9085,-2.9134,-2.92,-2.9265,-2.9368,-2.9451,-2.9531,-2.9551,-2.9551,-2.9589,-2.957,-2.9626,-2.9664,-2.9701,-2.9719,-2.9754,-2.9771,-2.9771,-2.9754,-2.9773,-2.979,-2.979,-2.9789,-2.9736,-2.9737,-2.9719,-2.9664,-2.9626,-2.9551,-2.9363,-2.9214,-2.8858,-2.8465,-2.811,-2.8034,-2.7828,-2.7398,-2.708,-2.6895,-2.6691,-2.6243,-2.6206,-2.6411,-2.656,-2.6691,-2.6206,-2.5722,-2.554,-2.5356,-2.4931,-2.4783,-2.4708,-2.4597,-2.4395,-2.4303,-2.4411,-2.4261,-2.4074,-2.3996,-2.3976,-2.3935,-2.3855,-2.3831,-2.3807,-2.3747,-2.3725,-2.3811,-3.3447,-3.3398,-3.3398,-3.3229,-3.2952,-3.2921,-3.2921,-3.2859,-3.2552,-3.2398,-3.2453,-3.2648,-3.2827,-3.2951,-3.3096,-3.3256,-3.3346,-3.3607,-3.3694,-3.3797,-3.425,-3.4659,-3.4899,-3.4839,-3.4861,-3.478,-3.4387,-3.3613,-3.2717,-3.2442,-3.2476,-3.2369,-3.215,-3.2107,-3.1977,-3.1484,-3.1171,-3.0957,-3.0386,-2.9779,-2.9387,-2.8702,-2.8478,-2.8536,-2.8612,-2.8694,-2.8785,-2.8858,-2.8929,-2.8975,-2.9021,-2.9089,-2.9178,-2.9243,-2.9312,-2.9373,-2.9433,-2.9453,-2.9453,-2.9511,-2.9588,-2.9589,-2.9608,-2.9626,-2.9626,-2.9626,-2.9664,-2.9645,-2.9664,-2.9645,-2.9626,-2.9608,-2.9608,-2.9589,-2.955,-2.9531,-2.9453,-2.9433,-2.9431,-2.947,-2.9117,-2.8819,-2.8837,-2.8539,-2.809,-2.7791,-2.7586,-2.7363,-2.7121,-2.7139,-2.727,-2.7176,-2.7176,-2.684,-2.6357,-2.6188,-2.5889,-2.5425,-2.5146,-2.5086,-2.51,-2.5067,-2.4844,-2.4743,-2.4463,-2.4293,-2.3894,-2.3873,-2.381,-2.3786,-2.3819,-2.3811,-2.3714,-2.3688,-2.3957,-3.3157,-3.3413,-3.3567,-3.3614,-3.3598,-3.3444,-3.3383,-3.3275,-3.2675,-3.2398,-3.2398,-3.2523,-3.2718,-3.2897,-3.3058,-3.3203,-3.3309,-3.3591,-3.3694,-3.3797,-3.425,-3.4659,-3.493,-3.5191,-3.5256,-3.5258,-3.4964,-3.4547,-3.3532,-3.2931,-3.2669,-3.2633,-3.2664,-3.2606,-3.2426,-3.2111,-3.1943,-3.1689,-3.1153,-3.0386,-2.9647,-2.8953,-2.8587,-2.8621,-2.8626,-2.8587,-2.8662,-2.8712,-2.8785,-2.8834,-2.8881,-2.8947,-2.9021,-2.904,-2.9112,-2.9206,-2.9291,-2.9351,-2.9372,-2.9412,-2.9451,-2.9451,-2.9453,-2.9472,-2.9472,-2.9472,-2.9472,-2.9472,-2.9472,-2.9472,-2.9474,-2.9472,-2.9453,-2.9471,-2.9451,-2.9433,-2.9351,-2.931,-2.9267,-2.9307,-2.939,-2.9316,-2.9126,-2.9089,-2.8604,-2.8491,-2.8285,-2.8172,-2.795,-2.7763,-2.7742,-2.7571,-2.7438,-2.7267,-2.7006,-2.6875,-2.6518,-2.6072,-2.5862,-2.5779,-2.5863,-2.5932,-2.5633,-2.5262,-2.5235,-2.5028,-2.4418,-2.3876,-2.3923,-2.3956,-2.3934,-2.4087,-2.4413,-2.4533,-2.4676,-3.3157,-3.346,-3.4091,-3.4352,-3.4229,-3.369,-3.3413,-3.3321,-3.269,-3.2398,-3.2398,-3.2508,-3.2718,-3.2897,-3.315,-3.324,-3.3398,-3.3539,-3.3694,-3.3797,-3.425,-3.4643,-3.4883,-3.5198,-3.5498,-3.5591,-3.5274,-3.4783,-3.4279,-3.3681,-3.33,-3.3213,-3.2825,-3.2557,-3.257,-3.2542,-3.2713,-3.2581,-3.1903,-3.1135,-3.0404,-2.9694,-2.941,-2.9251,-2.8945,-2.8693,-2.8807,-2.884,-2.8764,-2.8789,-2.8798,-2.881,-2.8834,-2.8834,-2.8834,-2.8929,-2.9067,-2.924,-2.924,-2.9286,-2.9307,-2.9326,-2.933,-2.9332,-2.9332,-2.9332,-2.9332,-2.9314,-2.9332,-2.9332,-2.9332,-2.9332,-2.9312,-2.9328,-2.9307,-2.9286,-2.924,-2.92,-2.9156,-2.9112,-2.9156,-2.9178,-2.9104,-2.9163,-2.9166,-2.9089,-2.8993,-2.8824,-2.8673,-2.8393,-2.8298,-2.8143,-2.8026,-2.7852,-2.7657,-2.7524,-2.726,-2.6777,-2.6695,-2.6589,-2.6693,-2.67,-2.6188,-2.5924,-2.5907,-2.5578,-2.4864,-2.4415,-2.4249,-2.4334,-2.458,-2.5016,-2.5504,-2.5497,-2.5343,-3.3998,-3.3928,-3.4752,-3.4889,-3.4445,-3.4121,-3.3767,-3.3321,-3.269,-3.2398,-3.2398,-3.2453,-3.2648,-3.2897,-3.3203,-3.3293,-3.3361,-3.3607,-3.3694,-3.3797,-3.425,-3.4594,-3.4851,-3.5152,-3.552,-3.5715,-3.5728,-3.5811,-3.53,-3.4551,-3.3911,-3.3512,-3.3283,-3.2947,-3.2659,-3.2722,-3.282,-3.2652,-3.2117,-3.1546,-3.1082,-3.0505,-3.0116,-3.0181,-2.9833,-2.9719,-2.9656,-2.9332,-2.9186,-2.913,-2.8916,-2.8637,-2.8687,-2.8712,-2.8743,-2.881,-2.9362,-2.9457,-2.9136,-2.9185,-2.9285,-2.9233,-2.924,-2.9228,-2.9228,-2.9302,-2.9302,-2.9228,-2.9246,-2.9283,-2.9299,-2.9203,-2.92,-2.9215,-2.9414,-2.9296,-2.9251,-2.9081,-2.904,-2.897,-2.8923,-2.8983,-2.903,-2.8998,-2.898,-2.8962,-2.8902,-2.8828,-2.8769,-2.8691,-2.8667,-2.8722,-2.862,-2.8542,-2.8342,-2.8161,-2.8057,-2.7718,-2.7687,-2.7619,-2.7619,-2.7468,-2.6932,-2.662,-2.6595,-2.6086,-2.5327,-2.5112,-2.5082,-2.5195,-2.5386,-2.5754,-2.6068,-2.5854,-2.5765,-3.5049,-3.4759,-3.5446,-3.5353,-3.4722,-3.4552,-3.406,-3.3352,-3.2675,-3.2398,-3.2453,-3.2523,-3.2718,-3.2897,-3.315,-3.3293,-3.3309,-3.3591,-3.3694,-3.3899,-3.4201,-3.4546,-3.4804,-3.5105,-3.5475,-3.5817,-3.5881,-3.6096,-3.6168,-3.5632,-3.4714,-3.3809,-3.36,-3.3247,-3.28,-3.2672,-3.2787,-3.2813,-3.2349,-3.2063,-3.1867,-3.1225,-3.0951,-3.0856,-3.0778,-3.0693,-3.0664,-3.024,-2.9872,-2.9791,-2.9521,-2.934,-2.9331,-2.9437,-2.9427,-2.9526,-2.9958,-3.0002,-2.9776,-2.9728,-2.9622,-2.9651,-2.9674,-2.9876,-2.9844,-2.9697,-2.9715,-2.9858,-2.9839,-2.9826,-2.9715,-2.9743,-2.9829,-2.9861,-2.9824,-2.9612,-2.949,-2.9619,-2.9497,-2.9338,-2.921,-2.8905,-2.89,-2.8798,-2.8761,-2.8828,-2.8804,-2.8761,-2.8761,-2.8761,-2.8761,-2.8761,-2.8669,-2.8608,-2.854,-2.8446,-2.844,-2.845,-2.838,-2.8326,-2.8128,-2.803,-2.7709,-2.7512,-2.7253,-2.7058,-2.6613,-2.6254,-2.5922,-2.604,-2.6183,-2.6318,-2.6443,-2.63,-2.6407,-3.5993,-3.6073,-3.6276,-3.5953,-3.5276,-3.4737,-3.4044,-3.3275,-3.2675,-3.2413,-3.2453,-3.2718,-3.2843,-3.2951,-3.315,-3.3293,-3.3309,-3.3555,-3.3642,-3.3848,-3.4201,-3.4546,-3.4804,-3.5088,-3.5475,-3.5756,-3.5932,-3.6251,-3.6568,-3.6458,-3.5605,-3.474,-3.4056,-3.3318,-3.2855,-3.276,-3.2755,-3.2866,-3.2702,-3.2702,-3.2491,-3.2045,-3.1635,-3.1457,-3.0993,-3.0594,-3.0731,-3.0671,-3.0635,-3.0682,-3.0399,-3.0312,-3.0232,-3.0296,-3.0287,-3.0351,-3.0594,-3.0676,-3.0622,-3.0638,-3.0907,-3.1005,-3.094,-3.0764,-3.0698,-3.0921,-3.0987,-3.0837,-3.0661,-3.0782,-3.0885,-3.1024,-3.0677,-3.0586,-3.0458,-3.0432,-3.0399,-3.0545,-3.0366,-2.9888,-2.9618,-2.9465,-2.9313,-2.9303,-2.8793,-2.8789,-2.8681,-2.8637,-2.8637,-2.8637,-2.8612,-2.8587,-2.851,-2.8458,-2.8414,-2.838,-2.838,-2.8353,-2.8327,-2.83,-2.8246,-2.8201,-2.8094,-2.8013,-2.7718,-2.7824,-2.7779,-2.7077,-2.6684,-2.6835,-2.6978,-2.705,-2.7246,-2.7299,-2.7487,-3.5538,-3.5753,-3.543,-3.5106,-3.4799,-3.4106,-3.3429,-3.2813,-3.2505,-3.2398,-3.2398,-3.2718,-3.2912,-3.2951,-3.315,-3.3293,-3.3346,-3.3555,-3.3642,-3.3899,-3.4184,-3.4497,-3.4739,-3.5041,-3.5412,-3.5667,-3.5888,-3.6251,-3.6661,-3.6719,-3.6212,-3.5367,-3.4618,-3.397,-3.3492,-3.2953,-3.2838,-3.2834,-3.2916,-3.2916,-3.2844,-3.267,-3.242,-3.2349,-3.2242,-3.1992,-3.2005,-3.1541,-3.139,-3.1248,-3.1029,-3.0915,-3.089,-3.0901,-3.0923,-3.0998,-3.1265,-3.1498,-3.1427,-3.1309,-3.1129,-3.1172,-3.118,-3.1245,-3.1354,-3.1245,-3.1217,-3.1162,-3.1281,-3.1409,-3.1209,-3.1137,-3.0966,-3.1039,-3.113,-3.1202,-3.1247,-3.1329,-3.1084,-3.0559,-3.0413,-3.0314,-3.016,-3.0006,-2.9341,-2.8763,-2.8637,-2.8608,-2.8753,-2.8825,-2.8907,-2.8899,-2.8856,-2.8694,-2.8649,-2.8524,-2.8371,-2.8398,-2.8425,-2.8532,-2.8612,-2.8182,-2.8119,-2.8126,-2.8099,-2.7954,-2.7748,-2.7475,-2.7343,-2.7405,-2.753,-2.768,-2.7911,-2.8099,-2.8126,-3.4927,-3.5091,-3.4429,-3.4152,-3.4075,-3.3614,-3.3013,-3.2475,-3.2413,-3.2398,-3.2453,-3.2718,-3.2912,-3.2951,-3.315,-3.3309,-3.3361,-3.3555,-3.3642,-3.3899,-3.4201,-3.4431,-3.4707,-3.4994,-3.5429,-3.5622,-3.5888,-3.6251,-3.6702,-3.6719,-3.6474,-3.6015,-3.539,-3.4657,-3.3756,-3.3232,-3.2916,-3.2916,-3.2916,-3.2916,-3.2916,-3.288,-3.2862,-3.2844,-3.2773,-3.2755,-3.263,-3.2309,-3.2103,-3.1961,-3.1724,-3.1464,-3.1404,-3.141,-3.1415,-3.1624,-3.1894,-3.2247,-3.2164,-3.2,-3.1745,-3.2019,-3.201,-3.1974,-3.1829,-3.1829,-3.2083,-3.201,-3.1929,-3.1801,-3.1765,-3.188,-3.1877,-3.2022,-3.2004,-3.204,-3.1975,-3.1982,-3.1639,-3.1222,-3.1139,-3.0955,-3.0532,-3.0342,-3.023,-2.971,-2.9683,-2.9629,-2.9602,-2.962,-2.9493,-2.9466,-2.9384,-2.9213,-2.9024,-2.9175,-2.9336,-2.938,-2.9351,-2.9198,-2.9098,-2.8667,-2.8408,-2.8504,-2.8404,-2.8046,-2.7787,-2.7547,-2.7692,-2.7908,-2.7943,-2.788,-2.7954,-2.8025,-2.8071,-3.4358,-3.4414,-3.3721,-3.3429,-3.3429,-3.3413,-3.2982,-3.2428,-3.2398,-3.2398,-3.2468,-3.2773,-3.2912,-3.2966,-3.3203,-3.3309,-3.3346,-3.3555,-3.3694,-3.3848,-3.425,-3.4448,-3.4691,-3.4994,-3.5429,-3.5622,-3.5888,-3.6251,-3.6684,-3.6702,-3.6701,-3.6615,-3.5972,-3.5027,-3.3863,-3.3179,-3.2902,-3.2916,-3.2916,-3.2916,-3.2916,-3.2916,-3.2916,-3.2916,-3.2916,-3.2916,-3.2844,-3.2791,-3.2616,-3.2563,-3.2563,-3.2451,-3.2487,-3.2523,-3.2554,-3.2644,-3.2715,-3.2854,-3.2916,-3.3075,-3.3033,-3.3006,-3.2835,-3.2944,-3.3169,-3.3223,-3.306,-3.2799,-3.2929,-3.3045,-3.3094,-3.3015,-3.2841,-3.2739,-3.2667,-3.2631,-3.2559,-3.2523,-3.217,-3.1972,-3.1769,-3.1542,-3.0981,-3.063,-3.0814,-3.0747,-3.0751,-3.0643,-3.0417,-3.0209,-3.0019,-2.9955,-2.9855,-2.9826,-2.9762,-3.0118,-3.0285,-3.0339,-3.0184,-2.9858,-2.9639,-2.9366,-2.9189,-2.9036,-2.88,-2.8551,-2.8117,-2.7683,-2.7871,-2.8006,-2.7917,-2.7893,-2.7968,-2.8063,-2.8193,-3.3652,-3.3706,-3.3013,-3.2736,-3.2736,-3.2736,-3.2582,-3.2428,-3.2398,-3.2398,-3.2453,-3.2773,-3.2912,-3.3005,-3.315,-3.3293,-3.3346,-3.3539,-3.3694,-3.3745,-3.425,-3.4448,-3.4643,-3.5024,-3.5412,-3.5622,-3.5888,-3.6251,-3.6702,-3.6719,-3.6806,-3.6755,-3.6239,-3.5151,-3.4004,-3.3232,-3.2916,-3.2916,-3.2916,-3.2916,-3.2916,-3.2916,-3.2916,-3.2916,-3.2916,-3.2916,-3.2916,-3.2916,-3.2916,-3.2916,-3.2916,-3.2916,-3.2916,-3.2916,-3.2916,-3.2916,-3.2916,-3.306,-3.3152,-3.3274,-3.3304,-3.3364,-3.3393,-3.3393,-3.3393,-3.3393,-3.3375,-3.3364,-3.3322,-3.3292,-3.3256,-3.305,-3.2916,-3.2916,-3.2898,-3.2898,-3.288,-3.2898,-3.2742,-3.267,-3.2532,-3.2411,-3.1992,-3.1569,-3.1612,-3.1433,-3.1356,-3.0993,-3.0713,-3.0534,-3.0362,-3.0362,-3.0344,-3.0374,-3.0505,-3.0795,-3.0818,-3.0716,-3.049,-3.0194,-3.0026,-3.0053,-2.9818,-2.9646,-2.9355,-2.9015,-2.8565,-2.8136,-2.8032,-2.801,-2.8072,-2.8045,-2.8027,-2.829,-2.8574,-3.2946,-3.2998,-3.2582,-3.2398,-3.2398,-3.2398,-3.2398,-3.2398,-3.2398,-3.2398,-3.2453,-3.2773,-3.2912,-3.2966,-3.315,-3.3293,-3.3346,-3.3539,-3.3694,-3.3797,-3.425,-3.4497,-3.4691,-3.5041,-3.5412,-3.5684,-3.5888,-3.6251,-3.6719,-3.6719,-3.6806,-3.6812,-3.6347,-3.5611,-3.4606,-3.3964,-3.3333,-3.3312,-3.3205,-3.2916,-3.2916,-3.2916,-3.2916,-3.2916,-3.2916,-3.2916,-3.2916,-3.2916,-3.2916,-3.2916,-3.2916,-3.2916,-3.2916,-3.2916,-3.2916,-3.2916,-3.2988,-3.3117,-3.3244,-3.3322,-3.3334,-3.3393,-3.3393,-3.3393,-3.3393,-3.3393,-3.3393,-3.3364,-3.3322,-3.3292,-3.3214,-3.3042,-3.3011,-3.2979,-3.2979,-3.2979,-3.2979,-3.2979,-3.2979,-3.293,-3.2898,-3.2916,-3.287,-3.2763,-3.2513,-3.2214,-3.1934,-3.152,-3.1146,-3.1092,-3.1039,-3.1075,-3.1133,-3.1298,-3.1373,-3.1462,-3.1381,-3.1154,-3.0949,-3.0811,-3.0818,-3.0861,-3.0567,-3.0171,-2.9756,-2.931,-2.8899,-2.8624,-2.8539,-2.8505,-2.8487,-2.8397,-2.8187,-2.8548,-2.8999,-3.2413,-3.2398,-3.2398,-3.2398,-3.2398,-3.2398,-3.2398,-3.2398,-3.2398,-3.2398,-3.2453,-3.2773,-3.2897,-3.2951,-3.3203,-3.3293,-3.3346,-3.3607,-3.3642,-3.3848,-3.425,-3.4497,-3.4787,-3.5105,-3.5475,-3.5728,-3.5993,-3.6233,-3.6661,-3.6783,-3.6886,-3.6882,-3.6468,-3.6123,-3.5561,-3.4889,-3.4246,-3.4011,-3.3508,-3.3241,-3.3187,-3.2987,-3.2934,-3.2916,-3.2916,-3.2916,-3.2916,-3.2916,-3.2916,-3.2916,-3.2916,-3.2916,-3.2916,-3.2916,-3.2916,-3.2943,-3.3039,-3.3184,-3.3304,-3.3364,-3.3364,-3.3393,-3.3393,-3.3393,-3.3393,-3.3393,-3.3393,-3.3364,-3.3352,-3.3244,-3.3135,-3.3042,-3.2979,-3.2948,-3.2916,-3.2916,-3.2916,-3.2916,-3.2916,-3.2898,-3.2866,-3.2852,-3.2787,-3.2755,-3.2755,-3.2563,-3.2282,-3.2231,-3.1998,-3.2151,-3.2083,-3.2069,-3.216,-3.2373,-3.234,-3.2024,-3.1923,-3.1663,-3.1807,-3.1722,-3.1758,-3.1498,-3.115,-3.0664,-3.0076,-2.9661,-2.9438,-2.9248,-2.9109,-2.9075,-2.9127,-2.8922,-2.8801,-2.9196,-2.9644,-3.2398,-3.2398,-3.2398,-3.2398,-3.2398,-3.2398,-3.2398,-3.2398,-3.2398,-3.2468,-3.2578,-3.2788,-3.2951,-3.3058,-3.3219,-3.3309,-3.3398,-3.3539,-3.3642,-3.3899,-3.425,-3.4513,-3.4804,-3.5105,-3.5475,-3.5728,-3.5975,-3.6233,-3.6643,-3.6806,-3.6908,-3.69,-3.6728,-3.6756,-3.6516,-3.5934,-3.5421,-3.4796,-3.4187,-3.3794,-3.3508,-3.3241,-3.3094,-3.2934,-3.2916,-3.2916,-3.2916,-3.2916,-3.2916,-3.2916,-3.2916,-3.2916,-3.2916,-3.2898,-3.2898,-3.3055,-3.3154,-3.3273,-3.3364,-3.3393,-3.3393,-3.3393,-3.3393,-3.3393,-3.3393,-3.3393,-3.3393,-3.3364,-3.3352,-3.3244,-3.3135,-3.3042,-3.2979,-3.2916,-3.2916,-3.2916,-3.2916,-3.2884,-3.2884,-3.2834,-3.2802,-3.2787,-3.269,-3.2657,-3.2606,-3.2606,-3.2573,-3.2557,-3.2574,-3.2641,-3.259,-3.2539,-3.2506,-3.2472,-3.2489,-3.2244,-3.2264,-3.2266,-3.2232,-3.2161,-3.1881,-3.1617,-3.1491,-3.1143,-3.0554,-3.0276,-3.0118,-2.9926,-2.9683,-2.9799,-2.9836,-2.96,-2.9518,-2.9896,-3.0118,-3.2398,-3.2398,-3.2398,-3.2398,-3.2398,-3.2398,-3.2398,-3.2398,-3.2398,-3.2468,-3.2594,-3.2827,-3.2951,-3.3112,-3.3256,-3.3309,-3.3309,-3.3539,-3.3694,-3.3848,-3.425,-3.4546,-3.4851,-3.5152,-3.5503,-3.5773,-3.6019,-3.6233,-3.6643,-3.6886,-3.697,-3.697,-3.697,-3.7105,-3.7008,-3.673,-3.6486,-3.5865,-3.5221,-3.4543,-3.4044,-3.3633,-3.3312,-3.2987,-3.2934,-3.2916,-3.2916,-3.2916,-3.2916,-3.2916,-3.2916,-3.2916,-3.2898,-3.293,-3.3042,-3.3165,-3.325,-3.3309,-3.3393,-3.3393,-3.3393,-3.3393,-3.3429,-3.3393,-3.3393,-3.3393,-3.3393,-3.3393,-3.3352,-3.3292,-3.3183,-3.3073,-3.2979,-3.2916,-3.2916,-3.2916,-3.2884,-3.287,-3.282,-3.277,-3.2705,-3.2657,-3.2623,-3.2557,-3.2472,-3.2404,-3.237,-3.2318,-3.2371,-3.2439,-3.2387,-3.2335,-3.2335,-3.2335,-3.2318,-3.2301,-3.2214,-3.2108,-3.2037,-3.1929,-3.1802,-3.1657,-3.1497,-3.1281,-3.1052,-3.0789,-3.0564,-3.0445,-3.0268,-3.0366,-3.0467,-3.0353,-3.0326,-3.0496,-3.0666,-3.2259,-3.2305,-3.2367,-3.2398,-3.2398,-3.2398,-3.2398,-3.2398,-3.2398,-3.2523,-3.2648,-3.2843,-3.3005,-3.315,-3.3256,-3.3309,-3.3346,-3.3539,-3.3694,-3.3761,-3.425,-3.4611,-3.4899,-3.5182,-3.5549,-3.5844,-3.6062,-3.6251,-3.6643,-3.6869,-3.697,-3.697,-3.697,-3.7087,-3.7206,-3.719,-3.7055,-3.6952,-3.6131,-3.5346,-3.4615,-3.4169,-3.3758,-3.3152,-3.2987,-3.2916,-3.2916,-3.2916,-3.2916,-3.2916,-3.2916,-3.2916,-3.293,-3.2975,-3.3117,-3.3226,-3.3298,-3.3345,-3.3393,-3.3393,-3.3538,-3.3538,-3.3502,-3.3773,-3.3936,-3.352,-3.3411,-3.3393,-3.3364,-3.3322,-3.3214,-3.3104,-3.3042,-3.2948,-3.2884,-3.2884,-3.287,-3.2805,-3.2722,-3.2657,-3.259,-3.2541,-3.2422,-3.2353,-3.2301,-3.2214,-3.2161,-3.2108,-3.2161,-3.2231,-3.2336,-3.2231,-3.2126,-3.2161,-3.2126,-3.2073,-3.2001,-3.1929,-3.1819,-3.1746,-3.1634,-3.1538,-3.144,-3.1244,-3.1104,-3.1111,-3.097,-3.0762,-3.0661,-3.0813,-3.0931,-3.105,-3.1123,-3.1021,-3.1026,-3.1197,-3.1674,-3.2182,-3.2398,-3.2398,-3.2398,-3.2382,-3.2398,-3.2398,-3.2563,-3.2773,-3.2897,-3.3005,-3.3203,-3.3177,-3.3198,-3.3282,-3.3395,-3.3662,-3.3815,-3.4202,-3.4659,-3.4899,-3.5182,-3.5549,-3.5844,-3.6079,-3.6293,-3.6643,-3.6869,-3.697,-3.697,-3.7009,-3.7087,-3.7297,-3.7297,-3.7374,-3.7523,-3.7113,-3.6381,-3.5792,-3.4686,-3.3919,-3.358,-3.3401,-3.3005,-3.2952,-3.2916,-3.2916,-3.2916,-3.2916,-3.2916,-3.2997,-3.3055,-3.3165,-3.3292,-3.3515,-3.3628,-3.3647,-3.3719,-3.39,-3.419,-3.4389,-3.4751,-3.4661,-3.3882,-3.3484,-3.3484,-3.3472,-3.3448,-3.3388,-3.3309,-3.3216,-3.3122,-3.3027,-3.3012,-3.2948,-3.2831,-3.2714,-3.256,-3.251,-3.2406,-3.2302,-3.2144,-3.2108,-3.202,-3.1966,-3.1929,-3.194,-3.2009,-3.2364,-3.2312,-3.2,-3.1948,-3.1912,-3.1839,-3.1783,-3.1691,-3.1617,-3.1521,-3.1462,-3.1346,-3.1269,-3.123,-3.1117,-3.1112,-3.1032,-3.0942,-3.0908,-3.1032,-3.1032,-3.1032,-3.1032,-3.0965,-3.1078,-3.0643,-3.0997,-3.1351,-3.1505,-3.1567,-3.1813,-3.1951,-3.1997,-3.2259,-3.2508,-3.2773,-3.2897,-3.3058,-3.3182,-3.2993,-3.2882,-3.2934,-3.3128,-3.3166,-3.3432,-3.3989,-3.4578,-3.4899,-3.5081,-3.5577,-3.5888,-3.6251,-3.6502,-3.6632,-3.6869,-3.697,-3.697,-3.7009,-3.7087,-3.7259,-3.7297,-3.741,-3.7594,-3.7577,-3.7309,-3.6792,-3.5774,-3.4633,-3.424,-3.3702,-3.3323,-3.2952,-3.2916,-3.2916,-3.3094,-3.3241,-3.3534,-3.3759,-3.4074,-3.4276,-3.4442,-3.454,-3.4461,-3.4425,-3.4461,-3.4588,-3.4963,-3.5131,-3.5439,-3.5413,-3.478,-3.4751,-3.4733,-3.4733,-3.4708,-3.4564,-3.4483,-3.4368,-3.427,-3.4138,-3.4088,-3.3933,-3.3776,-3.3407,-3.2914,-3.2755,-3.2527,-3.2315,-3.1875,-3.1873,-3.194,-3.1869,-3.2245,-3.2145,-3.2119,-3.2427,-3.2486,-3.2245,-3.1883,-3.1671,-3.1634,-3.1596,-3.1521,-3.1428,-3.1329,-3.1252,-3.119,-3.1112,-3.1055,-3.1032,-3.0969,-3.0929,-3.0871,-3.0912,-3.0952,-3.0952,-3.0912,-3.0912,-3.0871,-3.0952,-3.0181,-3.0237,-3.0397,-3.0391,-3.0505,-3.1012,-3.1274,-3.1366,-3.1844,-3.216,-3.2307,-3.2578,-3.2933,-3.2966,-3.274,-3.2455,-3.2431,-3.2729,-3.275,-3.2868,-3.3584,-3.3904,-3.4286,-3.4764,-3.5036,-3.5412,-3.5825,-3.6121,-3.6365,-3.6549,-3.6685,-3.6917,-3.7027,-3.7087,-3.722,-3.7314,-3.7427,-3.7521,-3.7577,-3.7577,-3.7238,-3.6827,-3.5685,-3.4809,-3.4232,-3.3852,-3.3426,-3.3219,-3.3237,-3.3455,-3.3919,-3.4196,-3.4476,-3.4878,-3.5227,-3.5395,-3.539,-3.5476,-3.5566,-3.5494,-3.5688,-3.5882,-3.591,-3.5987,-3.5995,-3.6049,-3.5991,-3.5919,-3.5919,-3.5634,-3.5519,-3.5403,-3.5285,-3.5184,-3.5047,-3.4872,-3.4728,-3.4528,-3.3997,-3.3358,-3.3092,-3.283,-3.2475,-3.2015,-3.1943,-3.1953,-3.2154,-3.2525,-3.281,-3.2838,-3.298,-3.2918,-3.2696,-3.2247,-3.1786,-3.1475,-3.1492,-3.1329,-3.1274,-3.1157,-3.1038,-3.0998,-3.0975,-3.0935,-3.0895,-3.0871,-3.0848,-3.0807,-3.0848,-3.0831,-3.079,-3.0749,-3.079,-3.0749,-3.079,-2.9119,-2.9643,-3.0181,-3.0345,-3.0428,-3.0566,-3.0612,-3.0612,-3.0735,-3.0849,-3.1223,-3.183,-3.2394,-3.3134,-3.3161,-3.2819,-3.2159,-3.241,-3.2174,-3.2063,-3.2722,-3.2922,-3.323,-3.3846,-3.3845,-3.4301,-3.4818,-3.5099,-3.5786,-3.5998,-3.6309,-3.6794,-3.6987,-3.7048,-3.7108,-3.7241,-3.7372,-3.7466,-3.754,-3.7577,-3.738,-3.6952,-3.6435,-3.5791,-3.5323,-3.5011,-3.4792,-3.4755,-3.4775,-3.4813,-3.4865,-3.5073,-3.5334,-3.558,-3.5894,-3.6154,-3.6182,-3.6114,-3.615,-3.6136,-3.629,-3.6671,-3.6732,-3.6883,-3.7012,-3.7266,-3.714,-3.6996,-3.6744,-3.5969,-3.5726,-3.5677,-3.5592,-3.5489,-3.5368,-3.51,-3.4879,-3.4731,-3.4443,-3.4081,-3.3805,-3.3549,-3.3311,-3.2969,-3.2844,-3.2906,-3.3019,-3.3352,-3.359,-3.36,-3.3609,-3.3414,-3.3228,-3.2819,-3.2417,-3.1591,-3.1382,-3.1241,-3.1134,-3.0998,-3.0918,-3.0861,-3.0821,-3.0797,-3.0757,-3.0733,-3.0708,-3.0708,-3.0667,-3.0651,-3.0609,-3.0568,-3.0609,-3.0609,-3.0651]}]]